<?xml version="1.0" encoding="UTF-8" standalone="no" ?>
<gpx xmlns="http://www.topografix.com/GPX/1/1" xmlns:xsi="http://www.w3.org/2001/XMLSchema-instance" xsi:schemaLocation="http://www.topografix.com/GPX/1/1 http://www.topografix.com/GPX/1/1/gpx.xsd" version="1.1" creator="VisuGPX - https://www.visugpx.com">
  <metadata>
    <name>roc 2010</name>
    <desc><![CDATA[roc 2010 frejus]]></desc>
  </metadata>
  <trk>
    <name><![CDATA[ACTIVE LOG121855]]></name>
    <trkseg>
      <trkpt lat="43.41979" lon="6.73993">
        <ele>4</ele>
        <time>2010-10-09T11:18:53Z</time>
      </trkpt>
      <trkpt lat="43.42056" lon="6.73888">
        <ele>5</ele>
      </trkpt>
      <trkpt lat="43.421" lon="6.73859">
        <ele>5</ele>
      </trkpt>
      <trkpt lat="43.42187" lon="6.73816">
        <ele>6</ele>
      </trkpt>
      <trkpt lat="43.42239" lon="6.73797">
        <ele>6</ele>
      </trkpt>
      <trkpt lat="43.42313" lon="6.73764">
        <ele>6.904109</ele>
      </trkpt>
      <trkpt lat="43.42361" lon="6.73749">
        <ele>7</ele>
      </trkpt>
      <trkpt lat="43.42391" lon="6.73738">
        <ele>7</ele>
      </trkpt>
      <trkpt lat="43.42429" lon="6.73725">
        <ele>7.109266</ele>
      </trkpt>
      <trkpt lat="43.42454" lon="6.73709">
        <ele>7.537984</ele>
      </trkpt>
      <trkpt lat="43.42474" lon="6.73679">
        <ele>8</ele>
      </trkpt>
      <trkpt lat="43.42481" lon="6.73652">
        <ele>8</ele>
      </trkpt>
      <trkpt lat="43.4246" lon="6.73599">
        <ele>7.548641</ele>
      </trkpt>
      <trkpt lat="43.42423" lon="6.73549">
        <ele>7</ele>
      </trkpt>
      <trkpt lat="43.42384" lon="6.73481">
        <ele>7</ele>
      </trkpt>
      <trkpt lat="43.42361" lon="6.73441">
        <ele>7</ele>
      </trkpt>
      <trkpt lat="43.42327" lon="6.73379">
        <ele>7</ele>
      </trkpt>
      <trkpt lat="43.42281" lon="6.73305">
        <ele>6.6625</ele>
      </trkpt>
      <trkpt lat="43.42224" lon="6.73211">
        <ele>6.58664</ele>
      </trkpt>
      <trkpt lat="43.4218" lon="6.73141">
        <ele>6.611891</ele>
      </trkpt>
      <trkpt lat="43.42136" lon="6.73076">
        <ele>6.124984</ele>
      </trkpt>
      <trkpt lat="43.42079" lon="6.73011">
        <ele>6</ele>
      </trkpt>
      <trkpt lat="43.42027" lon="6.72989">
        <ele>6</ele>
      </trkpt>
      <trkpt lat="43.41997" lon="6.72974">
        <ele>6</ele>
      </trkpt>
      <trkpt lat="43.41973" lon="6.72962">
        <ele>5.87625</ele>
      </trkpt>
      <trkpt lat="43.41976" lon="6.72936">
        <ele>5.45125</ele>
      </trkpt>
      <trkpt lat="43.41987" lon="6.72902">
        <ele>4.90125</ele>
      </trkpt>
      <trkpt lat="43.41984" lon="6.7287">
        <ele>4.37625</ele>
      </trkpt>
      <trkpt lat="43.41977" lon="6.72849">
        <ele>4.05125</ele>
      </trkpt>
      <trkpt lat="43.41957" lon="6.72832">
        <ele>3.80125</ele>
      </trkpt>
      <trkpt lat="43.41917" lon="6.72846">
        <ele>4.07625</ele>
      </trkpt>
      <trkpt lat="43.41884" lon="6.72847">
        <ele>3.612922</ele>
      </trkpt>
      <trkpt lat="43.41862" lon="6.72854">
        <ele>3.535234</ele>
      </trkpt>
      <trkpt lat="43.41808" lon="6.72829">
        <ele>3.266297</ele>
        <time>2010-10-09T11:18:58Z</time>
      </trkpt>
      <trkpt lat="43.41771" lon="6.72812">
        <ele>3.70125</ele>
        <time>2010-10-09T11:19:03Z</time>
      </trkpt>
      <trkpt lat="43.41733" lon="6.72792">
        <ele>3.42625</ele>
        <time>2010-10-09T11:19:14Z</time>
      </trkpt>
      <trkpt lat="43.41685" lon="6.72767">
        <ele>3.942266</ele>
        <time>2010-10-09T11:19:26Z</time>
      </trkpt>
      <trkpt lat="43.41655" lon="6.72752">
        <ele>3.208109</ele>
        <time>2010-10-09T11:19:40Z</time>
      </trkpt>
      <trkpt lat="43.41617" lon="6.72735">
        <ele>2.786391</ele>
        <time>2010-10-09T11:19:55Z</time>
      </trkpt>
      <trkpt lat="43.4156" lon="6.72705">
        <ele>2.019797</ele>
        <time>2010-10-09T11:20:04Z</time>
      </trkpt>
      <trkpt lat="43.41527" lon="6.72688">
        <ele>2</ele>
        <time>2010-10-09T11:20:09Z</time>
      </trkpt>
      <trkpt lat="43.41467" lon="6.72651">
        <ele>2.529703</ele>
        <time>2010-10-09T11:20:13Z</time>
      </trkpt>
      <trkpt lat="43.41436" lon="6.72632">
        <ele>2.947172</ele>
        <time>2010-10-09T11:20:21Z</time>
      </trkpt>
      <trkpt lat="43.41396" lon="6.72613">
        <ele>3.6375</ele>
        <time>2010-10-09T11:20:26Z</time>
      </trkpt>
      <trkpt lat="43.41366" lon="6.72599">
        <ele>4</ele>
        <time>2010-10-09T11:20:29Z</time>
      </trkpt>
      <trkpt lat="43.41307" lon="6.72576">
        <ele>4</ele>
        <time>2010-10-09T11:20:34Z</time>
      </trkpt>
      <trkpt lat="43.41262" lon="6.72549">
        <ele>4</ele>
        <time>2010-10-09T11:20:37Z</time>
      </trkpt>
      <trkpt lat="43.41226" lon="6.72531">
        <ele>4.084703</ele>
        <time>2010-10-09T11:20:41Z</time>
      </trkpt>
      <trkpt lat="43.41197" lon="6.72518">
        <ele>4.34875</ele>
        <time>2010-10-09T11:20:45Z</time>
      </trkpt>
      <trkpt lat="43.41152" lon="6.72497">
        <ele>-0.905</ele>
        <time>2010-10-09T11:21:33Z</time>
      </trkpt>
      <trkpt lat="43.41173" lon="6.72506">
        <ele>2.869</ele>
        <time>2010-10-09T11:22:00Z</time>
      </trkpt>
      <trkpt lat="43.41166" lon="6.72504">
        <ele>2.885</ele>
        <time>2010-10-09T11:22:02Z</time>
      </trkpt>
      <trkpt lat="43.41131" lon="6.72483">
        <ele>3.45</ele>
        <time>2010-10-09T11:22:11Z</time>
      </trkpt>
      <trkpt lat="43.41083" lon="6.72453">
        <ele>3.692</ele>
        <time>2010-10-09T11:22:21Z</time>
      </trkpt>
      <trkpt lat="43.41067" lon="6.72436">
        <ele>3.218</ele>
        <time>2010-10-09T11:22:24Z</time>
      </trkpt>
      <trkpt lat="43.41029" lon="6.72414">
        <ele>2.425</ele>
        <time>2010-10-09T11:22:29Z</time>
      </trkpt>
      <trkpt lat="43.40959" lon="6.7241">
        <ele>3.313</ele>
        <time>2010-10-09T11:22:37Z</time>
      </trkpt>
      <trkpt lat="43.40938" lon="6.72416">
        <ele>2.639</ele>
        <time>2010-10-09T11:22:40Z</time>
      </trkpt>
      <trkpt lat="43.40914" lon="6.72412">
        <ele>1.181</ele>
        <time>2010-10-09T11:22:44Z</time>
      </trkpt>
      <trkpt lat="43.40908" lon="6.72383">
        <ele>1.116</ele>
        <time>2010-10-09T11:22:47Z</time>
      </trkpt>
      <trkpt lat="43.40883" lon="6.72343">
        <ele>1.338</ele>
        <time>2010-10-09T11:22:52Z</time>
      </trkpt>
      <trkpt lat="43.40869" lon="6.72334">
        <ele>1.677</ele>
        <time>2010-10-09T11:22:54Z</time>
      </trkpt>
      <trkpt lat="43.40825" lon="6.72328">
        <ele>1.135</ele>
        <time>2010-10-09T11:23:00Z</time>
      </trkpt>
      <trkpt lat="43.40767" lon="6.72307">
        <ele>0.238</ele>
        <time>2010-10-09T11:23:08Z</time>
      </trkpt>
      <trkpt lat="43.40752" lon="6.723">
        <ele>1.579</ele>
        <time>2010-10-09T11:23:10Z</time>
      </trkpt>
      <trkpt lat="43.40732" lon="6.72267">
        <ele>0.664</ele>
        <time>2010-10-09T11:23:14Z</time>
      </trkpt>
      <trkpt lat="43.40736" lon="6.72246">
        <ele>0.431</ele>
        <time>2010-10-09T11:23:16Z</time>
      </trkpt>
      <trkpt lat="43.40771" lon="6.72175">
        <ele>-0.633</ele>
        <time>2010-10-09T11:23:24Z</time>
      </trkpt>
      <trkpt lat="43.40778" lon="6.72157">
        <ele>-0.743</ele>
        <time>2010-10-09T11:23:26Z</time>
      </trkpt>
      <trkpt lat="43.40785" lon="6.72137">
        <ele>-0.593</ele>
        <time>2010-10-09T11:23:28Z</time>
      </trkpt>
      <trkpt lat="43.40792" lon="6.72072">
        <ele>0.036</ele>
        <time>2010-10-09T11:23:34Z</time>
      </trkpt>
      <trkpt lat="43.40807" lon="6.71987">
        <ele>-0.221</ele>
        <time>2010-10-09T11:23:42Z</time>
      </trkpt>
      <trkpt lat="43.40844" lon="6.7188">
        <ele>-0.114</ele>
        <time>2010-10-09T11:23:52Z</time>
      </trkpt>
      <trkpt lat="43.40875" lon="6.7182">
        <ele>0.146</ele>
        <time>2010-10-09T11:23:58Z</time>
      </trkpt>
      <trkpt lat="43.40891" lon="6.7179">
        <ele>-0.903</ele>
        <time>2010-10-09T11:24:01Z</time>
      </trkpt>
      <trkpt lat="43.40907" lon="6.71732">
        <ele>-0.352</ele>
        <time>2010-10-09T11:24:06Z</time>
      </trkpt>
      <trkpt lat="43.40922" lon="6.71663">
        <ele>-0.915</ele>
        <time>2010-10-09T11:24:12Z</time>
      </trkpt>
      <trkpt lat="43.40937" lon="6.71575">
        <ele>-0.159</ele>
        <time>2010-10-09T11:24:20Z</time>
      </trkpt>
      <trkpt lat="43.40945" lon="6.71533">
        <ele>-0.59</ele>
        <time>2010-10-09T11:24:24Z</time>
      </trkpt>
      <trkpt lat="43.40948" lon="6.71501">
        <ele>-0.465</ele>
        <time>2010-10-09T11:24:27Z</time>
      </trkpt>
      <trkpt lat="43.40968" lon="6.71466">
        <ele>0.795</ele>
        <time>2010-10-09T11:24:31Z</time>
      </trkpt>
      <trkpt lat="43.40977" lon="6.71463">
        <ele>0.632</ele>
        <time>2010-10-09T11:24:32Z</time>
      </trkpt>
      <trkpt lat="43.40993" lon="6.71456">
        <ele>0.407</ele>
        <time>2010-10-09T11:24:34Z</time>
      </trkpt>
      <trkpt lat="43.41008" lon="6.71446">
        <ele>0.507</ele>
        <time>2010-10-09T11:24:36Z</time>
      </trkpt>
      <trkpt lat="43.41027" lon="6.71428">
        <ele>0.483</ele>
        <time>2010-10-09T11:24:39Z</time>
      </trkpt>
      <trkpt lat="43.41076" lon="6.71355">
        <ele>-0.102</ele>
        <time>2010-10-09T11:24:49Z</time>
      </trkpt>
      <trkpt lat="43.41085" lon="6.71339">
        <ele>-0.792</ele>
        <time>2010-10-09T11:24:51Z</time>
      </trkpt>
      <trkpt lat="43.41103" lon="6.71304">
        <ele>-0.502</ele>
        <time>2010-10-09T11:24:55Z</time>
      </trkpt>
      <trkpt lat="43.41134" lon="6.71275">
        <ele>0.328</ele>
        <time>2010-10-09T11:25:00Z</time>
      </trkpt>
      <trkpt lat="43.41156" lon="6.71265">
        <ele>0.077</ele>
        <time>2010-10-09T11:25:03Z</time>
      </trkpt>
      <trkpt lat="43.41213" lon="6.71206">
        <ele>-0.629</ele>
        <time>2010-10-09T11:25:12Z</time>
      </trkpt>
      <trkpt lat="43.41229" lon="6.71184">
        <ele>0.596</ele>
        <time>2010-10-09T11:25:15Z</time>
      </trkpt>
      <trkpt lat="43.41259" lon="6.71115">
        <ele>0.249</ele>
        <time>2010-10-09T11:25:23Z</time>
      </trkpt>
      <trkpt lat="43.41284" lon="6.71058">
        <ele>-0.034</ele>
        <time>2010-10-09T11:25:30Z</time>
      </trkpt>
      <trkpt lat="43.41316" lon="6.71006">
        <ele>0.46</ele>
        <time>2010-10-09T11:25:37Z</time>
      </trkpt>
      <trkpt lat="43.41355" lon="6.70952">
        <ele>0.88</ele>
        <time>2010-10-09T11:25:45Z</time>
      </trkpt>
      <trkpt lat="43.41398" lon="6.7089">
        <ele>0.123</ele>
        <time>2010-10-09T11:25:54Z</time>
      </trkpt>
      <trkpt lat="43.41408" lon="6.70876">
        <ele>0.681</ele>
        <time>2010-10-09T11:25:56Z</time>
      </trkpt>
      <trkpt lat="43.41425" lon="6.70832">
        <ele>0.815</ele>
        <time>2010-10-09T11:26:01Z</time>
      </trkpt>
      <trkpt lat="43.41433" lon="6.70775">
        <ele>0.128</ele>
        <time>2010-10-09T11:26:07Z</time>
      </trkpt>
      <trkpt lat="43.41448" lon="6.70725">
        <ele>0.898</ele>
        <time>2010-10-09T11:26:13Z</time>
      </trkpt>
      <trkpt lat="43.4145" lon="6.70718">
        <ele>0.937</ele>
        <time>2010-10-09T11:26:14Z</time>
      </trkpt>
      <trkpt lat="43.41455" lon="6.70684">
        <ele>0.287</ele>
        <time>2010-10-09T11:26:18Z</time>
      </trkpt>
      <trkpt lat="43.41454" lon="6.70666">
        <ele>0.029</ele>
        <time>2010-10-09T11:26:20Z</time>
      </trkpt>
      <trkpt lat="43.41434" lon="6.70647">
        <ele>-0.252</ele>
        <time>2010-10-09T11:26:24Z</time>
      </trkpt>
      <trkpt lat="43.4142" lon="6.70638">
        <ele>0.024</ele>
        <time>2010-10-09T11:26:26Z</time>
      </trkpt>
      <trkpt lat="43.41398" lon="6.7063">
        <ele>-0.173</ele>
        <time>2010-10-09T11:26:29Z</time>
      </trkpt>
      <trkpt lat="43.41374" lon="6.706">
        <ele>0.14</ele>
        <time>2010-10-09T11:26:34Z</time>
      </trkpt>
      <trkpt lat="43.41356" lon="6.70601">
        <ele>0.309</ele>
        <time>2010-10-09T11:26:39Z</time>
      </trkpt>
      <trkpt lat="43.41352" lon="6.70613">
        <ele>0.104</ele>
        <time>2010-10-09T11:26:41Z</time>
      </trkpt>
      <trkpt lat="43.41336" lon="6.70618">
        <ele>-0.196</ele>
        <time>2010-10-09T11:26:45Z</time>
      </trkpt>
      <trkpt lat="43.41291" lon="6.70579">
        <ele>1.035</ele>
        <time>2010-10-09T11:26:54Z</time>
      </trkpt>
      <trkpt lat="43.41272" lon="6.70571">
        <ele>1.806</ele>
        <time>2010-10-09T11:26:58Z</time>
      </trkpt>
      <trkpt lat="43.41256" lon="6.70551">
        <ele>2.481</ele>
        <time>2010-10-09T11:27:03Z</time>
      </trkpt>
      <trkpt lat="43.41251" lon="6.70541">
        <ele>3.21</ele>
        <time>2010-10-09T11:27:05Z</time>
      </trkpt>
      <trkpt lat="43.41247" lon="6.70534">
        <ele>2.667</ele>
        <time>2010-10-09T11:27:07Z</time>
      </trkpt>
      <trkpt lat="43.41243" lon="6.70534">
        <ele>2.633</ele>
        <time>2010-10-09T11:27:13Z</time>
      </trkpt>
      <trkpt lat="43.41243" lon="6.70534">
        <ele>2.015</ele>
        <time>2010-10-09T11:29:22Z</time>
      </trkpt>
      <trkpt lat="43.41238" lon="6.70549">
        <ele>3.282</ele>
        <time>2010-10-09T11:29:30Z</time>
      </trkpt>
      <trkpt lat="43.41229" lon="6.70567">
        <ele>6.037</ele>
        <time>2010-10-09T11:29:38Z</time>
      </trkpt>
      <trkpt lat="43.41226" lon="6.70571">
        <ele>6.352</ele>
        <time>2010-10-09T11:29:40Z</time>
      </trkpt>
      <trkpt lat="43.41219" lon="6.70567">
        <ele>7.153</ele>
        <time>2010-10-09T11:29:44Z</time>
      </trkpt>
      <trkpt lat="43.41216" lon="6.70548">
        <ele>8.375</ele>
        <time>2010-10-09T11:29:51Z</time>
      </trkpt>
      <trkpt lat="43.4121" lon="6.7053">
        <ele>10.868</ele>
        <time>2010-10-09T11:30:00Z</time>
      </trkpt>
      <trkpt lat="43.41204" lon="6.70513">
        <ele>12.801</ele>
        <time>2010-10-09T11:30:08Z</time>
      </trkpt>
      <trkpt lat="43.412" lon="6.70487">
        <ele>13.731</ele>
        <time>2010-10-09T11:30:18Z</time>
      </trkpt>
      <trkpt lat="43.41194" lon="6.70474">
        <ele>14.79</ele>
        <time>2010-10-09T11:30:26Z</time>
      </trkpt>
      <trkpt lat="43.41193" lon="6.70473">
        <ele>14.965</ele>
        <time>2010-10-09T11:30:36Z</time>
      </trkpt>
      <trkpt lat="43.4119" lon="6.70467">
        <ele>13.347</ele>
        <time>2010-10-09T11:32:55Z</time>
      </trkpt>
      <trkpt lat="43.41189" lon="6.70464">
        <ele>13.691</ele>
        <time>2010-10-09T11:33:04Z</time>
      </trkpt>
      <trkpt lat="43.41187" lon="6.7046">
        <ele>13.739</ele>
        <time>2010-10-09T11:33:17Z</time>
      </trkpt>
      <trkpt lat="43.41183" lon="6.70454">
        <ele>15.623</ele>
        <time>2010-10-09T11:33:30Z</time>
      </trkpt>
      <trkpt lat="43.4118" lon="6.70452">
        <ele>16.445</ele>
        <time>2010-10-09T11:33:45Z</time>
      </trkpt>
      <trkpt lat="43.41177" lon="6.7045">
        <ele>16.95</ele>
        <time>2010-10-09T11:33:58Z</time>
      </trkpt>
      <trkpt lat="43.41177" lon="6.70449">
        <ele>17.385</ele>
        <time>2010-10-09T11:34:03Z</time>
      </trkpt>
      <trkpt lat="43.41178" lon="6.70444">
        <ele>18.006</ele>
        <time>2010-10-09T11:34:15Z</time>
      </trkpt>
      <trkpt lat="43.41177" lon="6.70442">
        <ele>18.934</ele>
        <time>2010-10-09T11:34:28Z</time>
      </trkpt>
      <trkpt lat="43.41178" lon="6.70438">
        <ele>18.808</ele>
        <time>2010-10-09T11:34:38Z</time>
      </trkpt>
      <trkpt lat="43.41177" lon="6.70433">
        <ele>19.514</ele>
        <time>2010-10-09T11:35:01Z</time>
      </trkpt>
      <trkpt lat="43.41174" lon="6.70428">
        <ele>20.872</ele>
        <time>2010-10-09T11:35:11Z</time>
      </trkpt>
      <trkpt lat="43.41171" lon="6.70426">
        <ele>21.072</ele>
        <time>2010-10-09T11:35:25Z</time>
      </trkpt>
      <trkpt lat="43.41166" lon="6.70424">
        <ele>23.84</ele>
        <time>2010-10-09T11:35:46Z</time>
      </trkpt>
      <trkpt lat="43.41163" lon="6.70424">
        <ele>24.626</ele>
        <time>2010-10-09T11:35:57Z</time>
      </trkpt>
      <trkpt lat="43.41159" lon="6.70419">
        <ele>26.178</ele>
        <time>2010-10-09T11:36:12Z</time>
      </trkpt>
      <trkpt lat="43.41156" lon="6.70415">
        <ele>27.488</ele>
        <time>2010-10-09T11:36:23Z</time>
      </trkpt>
      <trkpt lat="43.41155" lon="6.70412">
        <ele>28.343</ele>
        <time>2010-10-09T11:36:29Z</time>
      </trkpt>
      <trkpt lat="43.41153" lon="6.70408">
        <ele>28.468</ele>
        <time>2010-10-09T11:36:40Z</time>
      </trkpt>
      <trkpt lat="43.4115" lon="6.70408">
        <ele>28.958</ele>
        <time>2010-10-09T11:36:54Z</time>
      </trkpt>
      <trkpt lat="43.4115" lon="6.70408">
        <ele>29.338</ele>
        <time>2010-10-09T11:37:09Z</time>
      </trkpt>
      <trkpt lat="43.4115" lon="6.70405">
        <ele>30.118</ele>
        <time>2010-10-09T11:37:19Z</time>
      </trkpt>
      <trkpt lat="43.41146" lon="6.70401">
        <ele>31.153</ele>
        <time>2010-10-09T11:37:29Z</time>
      </trkpt>
      <trkpt lat="43.4115" lon="6.70398">
        <ele>32.383</ele>
        <time>2010-10-09T11:37:38Z</time>
      </trkpt>
      <trkpt lat="43.41155" lon="6.70396">
        <ele>32.162</ele>
        <time>2010-10-09T11:37:46Z</time>
      </trkpt>
      <trkpt lat="43.41153" lon="6.70391">
        <ele>33.75</ele>
        <time>2010-10-09T11:37:55Z</time>
      </trkpt>
      <trkpt lat="43.41155" lon="6.70387">
        <ele>34.678</ele>
        <time>2010-10-09T11:38:03Z</time>
      </trkpt>
      <trkpt lat="43.41155" lon="6.70383">
        <ele>35.354</ele>
        <time>2010-10-09T11:38:11Z</time>
      </trkpt>
      <trkpt lat="43.41155" lon="6.70377">
        <ele>37.314</ele>
        <time>2010-10-09T11:38:21Z</time>
      </trkpt>
      <trkpt lat="43.41158" lon="6.7037">
        <ele>38.421</ele>
        <time>2010-10-09T11:38:29Z</time>
      </trkpt>
      <trkpt lat="43.41156" lon="6.70363">
        <ele>41.449</ele>
        <time>2010-10-09T11:38:41Z</time>
      </trkpt>
      <trkpt lat="43.41156" lon="6.7036">
        <ele>42.175</ele>
        <time>2010-10-09T11:38:44Z</time>
      </trkpt>
      <trkpt lat="43.41159" lon="6.70355">
        <ele>42.822</ele>
        <time>2010-10-09T11:38:51Z</time>
      </trkpt>
      <trkpt lat="43.41162" lon="6.70349">
        <ele>43.165</ele>
        <time>2010-10-09T11:38:58Z</time>
      </trkpt>
      <trkpt lat="43.41166" lon="6.70345">
        <ele>43.036</ele>
        <time>2010-10-09T11:39:01Z</time>
      </trkpt>
      <trkpt lat="43.41168" lon="6.70328">
        <ele>44.902</ele>
        <time>2010-10-09T11:39:09Z</time>
      </trkpt>
      <trkpt lat="43.41169" lon="6.70322">
        <ele>44.813</ele>
        <time>2010-10-09T11:39:11Z</time>
      </trkpt>
      <trkpt lat="43.41169" lon="6.70316">
        <ele>45.4</ele>
        <time>2010-10-09T11:39:13Z</time>
      </trkpt>
      <trkpt lat="43.41166" lon="6.7031">
        <ele>46.609</ele>
        <time>2010-10-09T11:39:16Z</time>
      </trkpt>
      <trkpt lat="43.41161" lon="6.70293">
        <ele>47.411</ele>
        <time>2010-10-09T11:39:23Z</time>
      </trkpt>
      <trkpt lat="43.41157" lon="6.70285">
        <ele>47.849</ele>
        <time>2010-10-09T11:39:26Z</time>
      </trkpt>
      <trkpt lat="43.41145" lon="6.70277">
        <ele>48.266</ele>
        <time>2010-10-09T11:39:32Z</time>
      </trkpt>
      <trkpt lat="43.41135" lon="6.70277">
        <ele>50.202</ele>
        <time>2010-10-09T11:39:36Z</time>
      </trkpt>
      <trkpt lat="43.41109" lon="6.70285">
        <ele>51.387</ele>
        <time>2010-10-09T11:39:45Z</time>
      </trkpt>
      <trkpt lat="43.41078" lon="6.70292">
        <ele>51.538</ele>
        <time>2010-10-09T11:39:53Z</time>
      </trkpt>
      <trkpt lat="43.41068" lon="6.70292">
        <ele>50.266</ele>
        <time>2010-10-09T11:39:58Z</time>
      </trkpt>
      <trkpt lat="43.41065" lon="6.70292">
        <ele>51.178</ele>
        <time>2010-10-09T11:41:00Z</time>
      </trkpt>
      <trkpt lat="43.41063" lon="6.70292">
        <ele>50.268</ele>
        <time>2010-10-09T11:41:08Z</time>
      </trkpt>
      <trkpt lat="43.41064" lon="6.7029">
        <ele>52.819</ele>
        <time>2010-10-09T11:49:29Z</time>
      </trkpt>
      <trkpt lat="43.41064" lon="6.70288">
        <ele>50.432</ele>
        <time>2010-10-09T11:52:35Z</time>
      </trkpt>
      <trkpt lat="43.41064" lon="6.7029">
        <ele>50.655</ele>
        <time>2010-10-09T11:52:52Z</time>
      </trkpt>
      <trkpt lat="43.41059" lon="6.70288">
        <ele>50.907</ele>
        <time>2010-10-09T11:53:00Z</time>
      </trkpt>
      <trkpt lat="43.41052" lon="6.70286">
        <ele>51.092</ele>
        <time>2010-10-09T11:53:02Z</time>
      </trkpt>
      <trkpt lat="43.41015" lon="6.70276">
        <ele>50.571</ele>
        <time>2010-10-09T11:53:11Z</time>
      </trkpt>
      <trkpt lat="43.40991" lon="6.7027">
        <ele>51.36</ele>
        <time>2010-10-09T11:53:17Z</time>
      </trkpt>
      <trkpt lat="43.4098" lon="6.70274">
        <ele>52.659</ele>
        <time>2010-10-09T11:53:20Z</time>
      </trkpt>
      <trkpt lat="43.40976" lon="6.70275">
        <ele>52.819</ele>
        <time>2010-10-09T11:53:21Z</time>
      </trkpt>
      <trkpt lat="43.40947" lon="6.70264">
        <ele>54.084</ele>
        <time>2010-10-09T11:53:29Z</time>
      </trkpt>
      <trkpt lat="43.40919" lon="6.70259">
        <ele>53.384</ele>
        <time>2010-10-09T11:53:36Z</time>
      </trkpt>
      <trkpt lat="43.40899" lon="6.70255">
        <ele>52.849</ele>
        <time>2010-10-09T11:53:40Z</time>
      </trkpt>
      <trkpt lat="43.40888" lon="6.7025">
        <ele>51.972</ele>
        <time>2010-10-09T11:53:42Z</time>
      </trkpt>
      <trkpt lat="43.40874" lon="6.7024">
        <ele>53.162</ele>
        <time>2010-10-09T11:53:45Z</time>
      </trkpt>
      <trkpt lat="43.4085" lon="6.70236">
        <ele>52.157</ele>
        <time>2010-10-09T11:53:50Z</time>
      </trkpt>
      <trkpt lat="43.4082" lon="6.70242">
        <ele>51.24</ele>
        <time>2010-10-09T11:53:55Z</time>
      </trkpt>
      <trkpt lat="43.40794" lon="6.70235">
        <ele>52.224</ele>
        <time>2010-10-09T11:54:00Z</time>
      </trkpt>
      <trkpt lat="43.40767" lon="6.70217">
        <ele>53.169</ele>
        <time>2010-10-09T11:54:07Z</time>
      </trkpt>
      <trkpt lat="43.40748" lon="6.70197">
        <ele>54.372</ele>
        <time>2010-10-09T11:54:15Z</time>
      </trkpt>
      <trkpt lat="43.40742" lon="6.70192">
        <ele>55.426</ele>
        <time>2010-10-09T11:54:18Z</time>
      </trkpt>
      <trkpt lat="43.40736" lon="6.70191">
        <ele>56.041</ele>
        <time>2010-10-09T11:54:21Z</time>
      </trkpt>
      <trkpt lat="43.40729" lon="6.70183">
        <ele>57.233</ele>
        <time>2010-10-09T11:54:27Z</time>
      </trkpt>
      <trkpt lat="43.40725" lon="6.70184">
        <ele>58.652</ele>
        <time>2010-10-09T11:54:30Z</time>
      </trkpt>
      <trkpt lat="43.40709" lon="6.70175">
        <ele>59.51</ele>
        <time>2010-10-09T11:54:38Z</time>
      </trkpt>
      <trkpt lat="43.40701" lon="6.70167">
        <ele>61.246</ele>
        <time>2010-10-09T11:54:43Z</time>
      </trkpt>
      <trkpt lat="43.40683" lon="6.70158">
        <ele>61.918</ele>
        <time>2010-10-09T11:54:51Z</time>
      </trkpt>
      <trkpt lat="43.40655" lon="6.7015">
        <ele>63.066</ele>
        <time>2010-10-09T11:55:01Z</time>
      </trkpt>
      <trkpt lat="43.40622" lon="6.70132">
        <ele>62.377</ele>
        <time>2010-10-09T11:55:11Z</time>
      </trkpt>
      <trkpt lat="43.4059" lon="6.70116">
        <ele>61.298</ele>
        <time>2010-10-09T11:55:19Z</time>
      </trkpt>
      <trkpt lat="43.4057" lon="6.70113">
        <ele>61.494</ele>
        <time>2010-10-09T11:55:23Z</time>
      </trkpt>
      <trkpt lat="43.40533" lon="6.70105">
        <ele>61.345</ele>
        <time>2010-10-09T11:55:31Z</time>
      </trkpt>
      <trkpt lat="43.40506" lon="6.70098">
        <ele>62.516</ele>
        <time>2010-10-09T11:55:39Z</time>
      </trkpt>
      <trkpt lat="43.4049" lon="6.70101">
        <ele>63.322</ele>
        <time>2010-10-09T11:55:46Z</time>
      </trkpt>
      <trkpt lat="43.40473" lon="6.70106">
        <ele>65.029</ele>
        <time>2010-10-09T11:55:53Z</time>
      </trkpt>
      <trkpt lat="43.40471" lon="6.70106">
        <ele>65.246</ele>
        <time>2010-10-09T11:55:54Z</time>
      </trkpt>
      <trkpt lat="43.40455" lon="6.70102">
        <ele>68.067</ele>
        <time>2010-10-09T11:56:03Z</time>
      </trkpt>
      <trkpt lat="43.40449" lon="6.701">
        <ele>69.469</ele>
        <time>2010-10-09T11:56:08Z</time>
      </trkpt>
      <trkpt lat="43.40438" lon="6.70091">
        <ele>71.309</ele>
        <time>2010-10-09T11:56:16Z</time>
      </trkpt>
      <trkpt lat="43.40413" lon="6.70076">
        <ele>73.41</ele>
        <time>2010-10-09T11:56:28Z</time>
      </trkpt>
      <trkpt lat="43.40392" lon="6.70068">
        <ele>74.347</ele>
        <time>2010-10-09T11:56:36Z</time>
      </trkpt>
      <trkpt lat="43.40372" lon="6.70059">
        <ele>75.684</ele>
        <time>2010-10-09T11:56:42Z</time>
      </trkpt>
      <trkpt lat="43.40336" lon="6.70036">
        <ele>76.944</ele>
        <time>2010-10-09T11:56:52Z</time>
      </trkpt>
      <trkpt lat="43.40313" lon="6.7002">
        <ele>75.997</ele>
        <time>2010-10-09T11:56:59Z</time>
      </trkpt>
      <trkpt lat="43.40281" lon="6.69985">
        <ele>74.987</ele>
        <time>2010-10-09T11:57:08Z</time>
      </trkpt>
      <trkpt lat="43.40267" lon="6.69969">
        <ele>74.886</ele>
        <time>2010-10-09T11:57:12Z</time>
      </trkpt>
      <trkpt lat="43.40255" lon="6.69955">
        <ele>74.109</ele>
        <time>2010-10-09T11:57:15Z</time>
      </trkpt>
      <trkpt lat="43.40244" lon="6.69946">
        <ele>73.011</ele>
        <time>2010-10-09T11:57:17Z</time>
      </trkpt>
      <trkpt lat="43.40223" lon="6.69941">
        <ele>69.019</ele>
        <time>2010-10-09T11:57:21Z</time>
      </trkpt>
      <trkpt lat="43.40212" lon="6.69949">
        <ele>67.475</ele>
        <time>2010-10-09T11:57:23Z</time>
      </trkpt>
      <trkpt lat="43.402" lon="6.69961">
        <ele>65.792</ele>
        <time>2010-10-09T11:57:25Z</time>
      </trkpt>
      <trkpt lat="43.40186" lon="6.69974">
        <ele>63.806</ele>
        <time>2010-10-09T11:57:27Z</time>
      </trkpt>
      <trkpt lat="43.40179" lon="6.69981">
        <ele>63.438</ele>
        <time>2010-10-09T11:57:28Z</time>
      </trkpt>
      <trkpt lat="43.40153" lon="6.70011">
        <ele>59.113</ele>
        <time>2010-10-09T11:57:32Z</time>
      </trkpt>
      <trkpt lat="43.40122" lon="6.70048">
        <ele>59.819</ele>
        <time>2010-10-09T11:57:38Z</time>
      </trkpt>
      <trkpt lat="43.40109" lon="6.70067">
        <ele>61.514</ele>
        <time>2010-10-09T11:57:42Z</time>
      </trkpt>
      <trkpt lat="43.40098" lon="6.70088">
        <ele>62.506</ele>
        <time>2010-10-09T11:57:49Z</time>
      </trkpt>
      <trkpt lat="43.4009" lon="6.70105">
        <ele>64.12</ele>
        <time>2010-10-09T11:57:58Z</time>
      </trkpt>
      <trkpt lat="43.4008" lon="6.70122">
        <ele>66.971</ele>
        <time>2010-10-09T11:58:07Z</time>
      </trkpt>
      <trkpt lat="43.4007" lon="6.7013">
        <ele>70.03</ele>
        <time>2010-10-09T11:58:14Z</time>
      </trkpt>
      <trkpt lat="43.40069" lon="6.7013">
        <ele>70.296</ele>
        <time>2010-10-09T11:58:15Z</time>
      </trkpt>
      <trkpt lat="43.40056" lon="6.70127">
        <ele>72.347</ele>
        <time>2010-10-09T11:58:23Z</time>
      </trkpt>
      <trkpt lat="43.40042" lon="6.70118">
        <ele>74.479</ele>
        <time>2010-10-09T11:58:32Z</time>
      </trkpt>
      <trkpt lat="43.40029" lon="6.70112">
        <ele>76.423</ele>
        <time>2010-10-09T11:58:40Z</time>
      </trkpt>
      <trkpt lat="43.40012" lon="6.70105">
        <ele>79.021</ele>
        <time>2010-10-09T11:58:51Z</time>
      </trkpt>
      <trkpt lat="43.39993" lon="6.70108">
        <ele>82.355</ele>
        <time>2010-10-09T11:59:02Z</time>
      </trkpt>
      <trkpt lat="43.39978" lon="6.70117">
        <ele>83.745</ele>
        <time>2010-10-09T11:59:11Z</time>
      </trkpt>
      <trkpt lat="43.39964" lon="6.70123">
        <ele>86.786</ele>
        <time>2010-10-09T11:59:21Z</time>
      </trkpt>
      <trkpt lat="43.39951" lon="6.70128">
        <ele>89.275</ele>
        <time>2010-10-09T11:59:32Z</time>
      </trkpt>
      <trkpt lat="43.39938" lon="6.70127">
        <ele>91.564</ele>
        <time>2010-10-09T11:59:41Z</time>
      </trkpt>
      <trkpt lat="43.39922" lon="6.70134">
        <ele>95.005</ele>
        <time>2010-10-09T11:59:51Z</time>
      </trkpt>
      <trkpt lat="43.39903" lon="6.70141">
        <ele>98.14</ele>
        <time>2010-10-09T12:00:02Z</time>
      </trkpt>
      <trkpt lat="43.39888" lon="6.70153">
        <ele>98.926</ele>
        <time>2010-10-09T12:00:10Z</time>
      </trkpt>
      <trkpt lat="43.39867" lon="6.70175">
        <ele>99.635</ele>
        <time>2010-10-09T12:00:21Z</time>
      </trkpt>
      <trkpt lat="43.39849" lon="6.70185">
        <ele>100.322</ele>
        <time>2010-10-09T12:00:29Z</time>
      </trkpt>
      <trkpt lat="43.39831" lon="6.70183">
        <ele>99.945</ele>
        <time>2010-10-09T12:00:40Z</time>
      </trkpt>
      <trkpt lat="43.39812" lon="6.70181">
        <ele>99.774</ele>
        <time>2010-10-09T12:00:48Z</time>
      </trkpt>
      <trkpt lat="43.39808" lon="6.70181">
        <ele>99.406</ele>
        <time>2010-10-09T12:00:53Z</time>
      </trkpt>
      <trkpt lat="43.398" lon="6.7018">
        <ele>100.014</ele>
        <time>2010-10-09T12:02:20Z</time>
      </trkpt>
      <trkpt lat="43.3977" lon="6.70176">
        <ele>99.595</ele>
        <time>2010-10-09T12:02:28Z</time>
      </trkpt>
      <trkpt lat="43.3975" lon="6.70173">
        <ele>99.373</ele>
        <time>2010-10-09T12:02:33Z</time>
      </trkpt>
      <trkpt lat="43.39709" lon="6.70159">
        <ele>98.821</ele>
        <time>2010-10-09T12:02:42Z</time>
      </trkpt>
      <trkpt lat="43.39704" lon="6.70157">
        <ele>97.995</ele>
        <time>2010-10-09T12:02:43Z</time>
      </trkpt>
      <trkpt lat="43.39672" lon="6.70133">
        <ele>98.683</ele>
        <time>2010-10-09T12:02:51Z</time>
      </trkpt>
      <trkpt lat="43.39654" lon="6.70115">
        <ele>100.205</ele>
        <time>2010-10-09T12:02:58Z</time>
      </trkpt>
      <trkpt lat="43.39639" lon="6.70087">
        <ele>103.648</ele>
        <time>2010-10-09T12:03:07Z</time>
      </trkpt>
      <trkpt lat="43.39635" lon="6.70077">
        <ele>105.169</ele>
        <time>2010-10-09T12:03:10Z</time>
      </trkpt>
      <trkpt lat="43.39623" lon="6.70063">
        <ele>105.273</ele>
        <time>2010-10-09T12:03:17Z</time>
      </trkpt>
      <trkpt lat="43.39609" lon="6.70059">
        <ele>105.01</ele>
        <time>2010-10-09T12:03:23Z</time>
      </trkpt>
      <trkpt lat="43.39592" lon="6.70063">
        <ele>106.62</ele>
        <time>2010-10-09T12:03:30Z</time>
      </trkpt>
      <trkpt lat="43.39564" lon="6.70079">
        <ele>106.266</ele>
        <time>2010-10-09T12:03:38Z</time>
      </trkpt>
      <trkpt lat="43.39546" lon="6.70088">
        <ele>104.967</ele>
        <time>2010-10-09T12:03:42Z</time>
      </trkpt>
      <trkpt lat="43.39532" lon="6.70097">
        <ele>103.808</ele>
        <time>2010-10-09T12:03:45Z</time>
      </trkpt>
      <trkpt lat="43.39507" lon="6.70106">
        <ele>102.998</ele>
        <time>2010-10-09T12:03:49Z</time>
      </trkpt>
      <trkpt lat="43.39483" lon="6.70107">
        <ele>103.541</ele>
        <time>2010-10-09T12:03:53Z</time>
      </trkpt>
      <trkpt lat="43.39453" lon="6.70101">
        <ele>102.412</ele>
        <time>2010-10-09T12:03:58Z</time>
      </trkpt>
      <trkpt lat="43.39392" lon="6.70086">
        <ele>99.911</ele>
        <time>2010-10-09T12:04:07Z</time>
      </trkpt>
      <trkpt lat="43.39381" lon="6.70081">
        <ele>99.866</ele>
        <time>2010-10-09T12:04:09Z</time>
      </trkpt>
      <trkpt lat="43.39357" lon="6.70062">
        <ele>98.916</ele>
        <time>2010-10-09T12:04:14Z</time>
      </trkpt>
      <trkpt lat="43.39321" lon="6.70016">
        <ele>96.754</ele>
        <time>2010-10-09T12:04:22Z</time>
      </trkpt>
      <trkpt lat="43.39292" lon="6.6998">
        <ele>98.561</ele>
        <time>2010-10-09T12:04:30Z</time>
      </trkpt>
      <trkpt lat="43.39289" lon="6.69977">
        <ele>99.018</ele>
        <time>2010-10-09T12:04:31Z</time>
      </trkpt>
      <trkpt lat="43.3928" lon="6.69965">
        <ele>99.587</ele>
        <time>2010-10-09T12:04:34Z</time>
      </trkpt>
      <trkpt lat="43.39259" lon="6.69939">
        <ele>100.01</ele>
        <time>2010-10-09T12:04:42Z</time>
      </trkpt>
      <trkpt lat="43.39259" lon="6.69938">
        <ele>99.86</ele>
        <time>2010-10-09T12:04:50Z</time>
      </trkpt>
      <trkpt lat="43.39257" lon="6.69938">
        <ele>99.782</ele>
        <time>2010-10-09T12:05:16Z</time>
      </trkpt>
      <trkpt lat="43.39243" lon="6.69934">
        <ele>99.921</ele>
        <time>2010-10-09T12:05:23Z</time>
      </trkpt>
      <trkpt lat="43.39229" lon="6.69929">
        <ele>98.871</ele>
        <time>2010-10-09T12:05:26Z</time>
      </trkpt>
      <trkpt lat="43.3921" lon="6.69909">
        <ele>97.934</ele>
        <time>2010-10-09T12:05:30Z</time>
      </trkpt>
      <trkpt lat="43.39194" lon="6.69881">
        <ele>96.522</ele>
        <time>2010-10-09T12:05:34Z</time>
      </trkpt>
      <trkpt lat="43.39173" lon="6.6986">
        <ele>97.903</ele>
        <time>2010-10-09T12:05:40Z</time>
      </trkpt>
      <trkpt lat="43.39166" lon="6.69855">
        <ele>99.343</ele>
        <time>2010-10-09T12:05:43Z</time>
      </trkpt>
      <trkpt lat="43.39159" lon="6.69851">
        <ele>100.997</ele>
        <time>2010-10-09T12:05:46Z</time>
      </trkpt>
      <trkpt lat="43.39142" lon="6.69838">
        <ele>104.071</ele>
        <time>2010-10-09T12:05:54Z</time>
      </trkpt>
      <trkpt lat="43.39136" lon="6.69815">
        <ele>104.996</ele>
        <time>2010-10-09T12:06:01Z</time>
      </trkpt>
      <trkpt lat="43.39135" lon="6.69804">
        <ele>106.387</ele>
        <time>2010-10-09T12:06:05Z</time>
      </trkpt>
      <trkpt lat="43.3914" lon="6.69782">
        <ele>109</ele>
        <time>2010-10-09T12:06:14Z</time>
      </trkpt>
      <trkpt lat="43.39145" lon="6.69767">
        <ele>111.222</ele>
        <time>2010-10-09T12:06:22Z</time>
      </trkpt>
      <trkpt lat="43.39147" lon="6.69763">
        <ele>111.547</ele>
        <time>2010-10-09T12:06:24Z</time>
      </trkpt>
      <trkpt lat="43.3915" lon="6.69754">
        <ele>112.391</ele>
        <time>2010-10-09T12:06:29Z</time>
      </trkpt>
      <trkpt lat="43.3915" lon="6.69752">
        <ele>112.793</ele>
        <time>2010-10-09T12:06:30Z</time>
      </trkpt>
      <trkpt lat="43.39152" lon="6.69725">
        <ele>115.428</ele>
        <time>2010-10-09T12:06:43Z</time>
      </trkpt>
      <trkpt lat="43.39153" lon="6.69696">
        <ele>118.301</ele>
        <time>2010-10-09T12:06:54Z</time>
      </trkpt>
      <trkpt lat="43.39152" lon="6.69674">
        <ele>120.765</ele>
        <time>2010-10-09T12:07:03Z</time>
      </trkpt>
      <trkpt lat="43.39149" lon="6.69656">
        <ele>123.967</ele>
        <time>2010-10-09T12:07:11Z</time>
      </trkpt>
      <trkpt lat="43.39144" lon="6.69639">
        <ele>127.477</ele>
        <time>2010-10-09T12:07:21Z</time>
      </trkpt>
      <trkpt lat="43.39143" lon="6.69624">
        <ele>130.581</ele>
        <time>2010-10-09T12:07:29Z</time>
      </trkpt>
      <trkpt lat="43.39144" lon="6.69621">
        <ele>131.292</ele>
        <time>2010-10-09T12:07:31Z</time>
      </trkpt>
      <trkpt lat="43.39144" lon="6.6961">
        <ele>133.453</ele>
        <time>2010-10-09T12:07:37Z</time>
      </trkpt>
      <trkpt lat="43.39142" lon="6.69595">
        <ele>135.51</ele>
        <time>2010-10-09T12:07:45Z</time>
      </trkpt>
      <trkpt lat="43.39141" lon="6.69592">
        <ele>136.55</ele>
        <time>2010-10-09T12:07:47Z</time>
      </trkpt>
      <trkpt lat="43.39139" lon="6.69573">
        <ele>137.464</ele>
        <time>2010-10-09T12:07:56Z</time>
      </trkpt>
      <trkpt lat="43.39136" lon="6.69565">
        <ele>137.477</ele>
        <time>2010-10-09T12:08:00Z</time>
      </trkpt>
      <trkpt lat="43.39128" lon="6.69555">
        <ele>137.926</ele>
        <time>2010-10-09T12:08:06Z</time>
      </trkpt>
      <trkpt lat="43.3911" lon="6.69544">
        <ele>138.057</ele>
        <time>2010-10-09T12:08:15Z</time>
      </trkpt>
      <trkpt lat="43.39091" lon="6.69538">
        <ele>138.997</ele>
        <time>2010-10-09T12:08:24Z</time>
      </trkpt>
      <trkpt lat="43.39087" lon="6.69537">
        <ele>139.204</ele>
        <time>2010-10-09T12:08:30Z</time>
      </trkpt>
      <trkpt lat="43.3908" lon="6.69534">
        <ele>139.602</ele>
        <time>2010-10-09T12:09:26Z</time>
      </trkpt>
      <trkpt lat="43.39061" lon="6.69522">
        <ele>141.733</ele>
        <time>2010-10-09T12:09:36Z</time>
      </trkpt>
      <trkpt lat="43.39043" lon="6.69511">
        <ele>144.417</ele>
        <time>2010-10-09T12:09:46Z</time>
      </trkpt>
      <trkpt lat="43.39038" lon="6.69506">
        <ele>145.134</ele>
        <time>2010-10-09T12:09:50Z</time>
      </trkpt>
      <trkpt lat="43.39022" lon="6.6949">
        <ele>148.828</ele>
        <time>2010-10-09T12:10:02Z</time>
      </trkpt>
      <trkpt lat="43.39004" lon="6.69475">
        <ele>150.761</ele>
        <time>2010-10-09T12:10:13Z</time>
      </trkpt>
      <trkpt lat="43.38986" lon="6.6946">
        <ele>153.901</ele>
        <time>2010-10-09T12:10:26Z</time>
      </trkpt>
      <trkpt lat="43.38982" lon="6.69457">
        <ele>155.437</ele>
        <time>2010-10-09T12:10:29Z</time>
      </trkpt>
      <trkpt lat="43.38973" lon="6.69443">
        <ele>156.401</ele>
        <time>2010-10-09T12:10:37Z</time>
      </trkpt>
      <trkpt lat="43.38966" lon="6.69428">
        <ele>158.761</ele>
        <time>2010-10-09T12:10:45Z</time>
      </trkpt>
      <trkpt lat="43.38957" lon="6.694">
        <ele>162.17</ele>
        <time>2010-10-09T12:10:59Z</time>
      </trkpt>
      <trkpt lat="43.38953" lon="6.69383">
        <ele>164.725</ele>
        <time>2010-10-09T12:11:08Z</time>
      </trkpt>
      <trkpt lat="43.38944" lon="6.6936">
        <ele>167.999</ele>
        <time>2010-10-09T12:11:21Z</time>
      </trkpt>
      <trkpt lat="43.38937" lon="6.6934">
        <ele>170.451</ele>
        <time>2010-10-09T12:11:34Z</time>
      </trkpt>
      <trkpt lat="43.38929" lon="6.69328">
        <ele>172.528</ele>
        <time>2010-10-09T12:11:44Z</time>
      </trkpt>
      <trkpt lat="43.3892" lon="6.69316">
        <ele>174.424</ele>
        <time>2010-10-09T12:11:53Z</time>
      </trkpt>
      <trkpt lat="43.38912" lon="6.69307">
        <ele>176.325</ele>
        <time>2010-10-09T12:12:01Z</time>
      </trkpt>
      <trkpt lat="43.38898" lon="6.69299">
        <ele>178.688</ele>
        <time>2010-10-09T12:12:12Z</time>
      </trkpt>
      <trkpt lat="43.38885" lon="6.6929">
        <ele>180.352</ele>
        <time>2010-10-09T12:12:21Z</time>
      </trkpt>
      <trkpt lat="43.3887" lon="6.69279">
        <ele>182.348</ele>
        <time>2010-10-09T12:12:31Z</time>
      </trkpt>
      <trkpt lat="43.38863" lon="6.69276">
        <ele>183.927</ele>
        <time>2010-10-09T12:12:36Z</time>
      </trkpt>
      <trkpt lat="43.38852" lon="6.69272">
        <ele>185.673</ele>
        <time>2010-10-09T12:12:45Z</time>
      </trkpt>
      <trkpt lat="43.38838" lon="6.69265">
        <ele>188.181</ele>
        <time>2010-10-09T12:12:55Z</time>
      </trkpt>
      <trkpt lat="43.38831" lon="6.69258">
        <ele>189.355</ele>
        <time>2010-10-09T12:13:02Z</time>
      </trkpt>
      <trkpt lat="43.38822" lon="6.69247">
        <ele>191.241</ele>
        <time>2010-10-09T12:13:11Z</time>
      </trkpt>
      <trkpt lat="43.38807" lon="6.69227">
        <ele>194.204</ele>
        <time>2010-10-09T12:13:25Z</time>
      </trkpt>
      <trkpt lat="43.38792" lon="6.69207">
        <ele>197.338</ele>
        <time>2010-10-09T12:13:38Z</time>
      </trkpt>
      <trkpt lat="43.38778" lon="6.69196">
        <ele>200.235</ele>
        <time>2010-10-09T12:13:47Z</time>
      </trkpt>
      <trkpt lat="43.38761" lon="6.6918">
        <ele>202.281</ele>
        <time>2010-10-09T12:13:57Z</time>
      </trkpt>
      <trkpt lat="43.38745" lon="6.69163">
        <ele>203.804</ele>
        <time>2010-10-09T12:14:06Z</time>
      </trkpt>
      <trkpt lat="43.38725" lon="6.69145">
        <ele>204.506</ele>
        <time>2010-10-09T12:14:15Z</time>
      </trkpt>
      <trkpt lat="43.38717" lon="6.69138">
        <ele>204.541</ele>
        <time>2010-10-09T12:14:19Z</time>
      </trkpt>
      <trkpt lat="43.38717" lon="6.6912">
        <ele>207.537</ele>
        <time>2010-10-09T12:14:26Z</time>
      </trkpt>
      <trkpt lat="43.38722" lon="6.69113">
        <ele>208.977</ele>
        <time>2010-10-09T12:14:30Z</time>
      </trkpt>
      <trkpt lat="43.38729" lon="6.69102">
        <ele>211.987</ele>
        <time>2010-10-09T12:14:36Z</time>
      </trkpt>
      <trkpt lat="43.38736" lon="6.69099">
        <ele>212.555</ele>
        <time>2010-10-09T12:14:40Z</time>
      </trkpt>
      <trkpt lat="43.38751" lon="6.69103">
        <ele>214.281</ele>
        <time>2010-10-09T12:14:49Z</time>
      </trkpt>
      <trkpt lat="43.3876" lon="6.69109">
        <ele>215.041</ele>
        <time>2010-10-09T12:14:54Z</time>
      </trkpt>
      <trkpt lat="43.38777" lon="6.69118">
        <ele>215.641</ele>
        <time>2010-10-09T12:15:04Z</time>
      </trkpt>
      <trkpt lat="43.3879" lon="6.6912">
        <ele>215.878</ele>
        <time>2010-10-09T12:15:11Z</time>
      </trkpt>
      <trkpt lat="43.38792" lon="6.69121">
        <ele>215.949</ele>
        <time>2010-10-09T12:15:12Z</time>
      </trkpt>
      <trkpt lat="43.38803" lon="6.69134">
        <ele>215.609</ele>
        <time>2010-10-09T12:15:19Z</time>
      </trkpt>
      <trkpt lat="43.38809" lon="6.69141">
        <ele>215.228</ele>
        <time>2010-10-09T12:15:24Z</time>
      </trkpt>
      <trkpt lat="43.38815" lon="6.6914">
        <ele>214.639</ele>
        <time>2010-10-09T12:15:27Z</time>
      </trkpt>
      <trkpt lat="43.3882" lon="6.69134">
        <ele>214.289</ele>
        <time>2010-10-09T12:15:33Z</time>
      </trkpt>
      <trkpt lat="43.3882" lon="6.69134">
        <ele>215.288</ele>
        <time>2010-10-09T12:17:35Z</time>
      </trkpt>
      <trkpt lat="43.38822" lon="6.69134">
        <ele>215.098</ele>
        <time>2010-10-09T12:20:24Z</time>
      </trkpt>
      <trkpt lat="43.38836" lon="6.69123">
        <ele>214.682</ele>
        <time>2010-10-09T12:20:30Z</time>
      </trkpt>
      <trkpt lat="43.38841" lon="6.6912">
        <ele>214.245</ele>
        <time>2010-10-09T12:20:31Z</time>
      </trkpt>
      <trkpt lat="43.38868" lon="6.69098">
        <ele>210.422</ele>
        <time>2010-10-09T12:20:36Z</time>
      </trkpt>
      <trkpt lat="43.38886" lon="6.69088">
        <ele>206.865</ele>
        <time>2010-10-09T12:20:39Z</time>
      </trkpt>
      <trkpt lat="43.38914" lon="6.69062">
        <ele>204.498</ele>
        <time>2010-10-09T12:20:45Z</time>
      </trkpt>
      <trkpt lat="43.38951" lon="6.69045">
        <ele>201.263</ele>
        <time>2010-10-09T12:20:50Z</time>
      </trkpt>
      <trkpt lat="43.3898" lon="6.6904">
        <ele>197.61</ele>
        <time>2010-10-09T12:20:54Z</time>
      </trkpt>
      <trkpt lat="43.39002" lon="6.69034">
        <ele>194.16</ele>
        <time>2010-10-09T12:20:57Z</time>
      </trkpt>
      <trkpt lat="43.39009" lon="6.69032">
        <ele>192.498</ele>
        <time>2010-10-09T12:20:58Z</time>
      </trkpt>
      <trkpt lat="43.39038" lon="6.69019">
        <ele>187.033</ele>
        <time>2010-10-09T12:21:03Z</time>
      </trkpt>
      <trkpt lat="43.39047" lon="6.69015">
        <ele>185.948</ele>
        <time>2010-10-09T12:21:05Z</time>
      </trkpt>
      <trkpt lat="43.39064" lon="6.69002">
        <ele>181.445</ele>
        <time>2010-10-09T12:21:09Z</time>
      </trkpt>
      <trkpt lat="43.39069" lon="6.68999">
        <ele>181.144</ele>
        <time>2010-10-09T12:21:10Z</time>
      </trkpt>
      <trkpt lat="43.39085" lon="6.68993">
        <ele>176.502</ele>
        <time>2010-10-09T12:21:14Z</time>
      </trkpt>
      <trkpt lat="43.39088" lon="6.68992">
        <ele>176.852</ele>
        <time>2010-10-09T12:21:15Z</time>
      </trkpt>
      <trkpt lat="43.39099" lon="6.68985">
        <ele>173.886</ele>
        <time>2010-10-09T12:21:18Z</time>
      </trkpt>
      <trkpt lat="43.3911" lon="6.68966">
        <ele>170.81</ele>
        <time>2010-10-09T12:21:22Z</time>
      </trkpt>
      <trkpt lat="43.39115" lon="6.68963">
        <ele>169.465</ele>
        <time>2010-10-09T12:21:23Z</time>
      </trkpt>
      <trkpt lat="43.39132" lon="6.68954">
        <ele>164.455</ele>
        <time>2010-10-09T12:21:28Z</time>
      </trkpt>
      <trkpt lat="43.39138" lon="6.6895">
        <ele>162.764</ele>
        <time>2010-10-09T12:21:30Z</time>
      </trkpt>
      <trkpt lat="43.3915" lon="6.68949">
        <ele>161.15</ele>
        <time>2010-10-09T12:21:33Z</time>
      </trkpt>
      <trkpt lat="43.39173" lon="6.6893">
        <ele>158.256</ele>
        <time>2010-10-09T12:21:38Z</time>
      </trkpt>
      <trkpt lat="43.39199" lon="6.68919">
        <ele>153.962</ele>
        <time>2010-10-09T12:21:42Z</time>
      </trkpt>
      <trkpt lat="43.39231" lon="6.68917">
        <ele>151.478</ele>
        <time>2010-10-09T12:21:46Z</time>
      </trkpt>
      <trkpt lat="43.39247" lon="6.68916">
        <ele>150.413</ele>
        <time>2010-10-09T12:21:48Z</time>
      </trkpt>
      <trkpt lat="43.39266" lon="6.68921">
        <ele>149.536</ele>
        <time>2010-10-09T12:21:51Z</time>
      </trkpt>
      <trkpt lat="43.39276" lon="6.68921">
        <ele>147.88</ele>
        <time>2010-10-09T12:21:53Z</time>
      </trkpt>
      <trkpt lat="43.39291" lon="6.68913">
        <ele>143.813</ele>
        <time>2010-10-09T12:21:56Z</time>
      </trkpt>
      <trkpt lat="43.39297" lon="6.6891">
        <ele>142.755</ele>
        <time>2010-10-09T12:21:57Z</time>
      </trkpt>
      <trkpt lat="43.39314" lon="6.68901">
        <ele>138.585</ele>
        <time>2010-10-09T12:22:00Z</time>
      </trkpt>
      <trkpt lat="43.39337" lon="6.68884">
        <ele>135.849</ele>
        <time>2010-10-09T12:22:04Z</time>
      </trkpt>
      <trkpt lat="43.39361" lon="6.68888">
        <ele>131.79</ele>
        <time>2010-10-09T12:22:08Z</time>
      </trkpt>
      <trkpt lat="43.39388" lon="6.68901">
        <ele>126.717</ele>
        <time>2010-10-09T12:22:12Z</time>
      </trkpt>
      <trkpt lat="43.3941" lon="6.6891">
        <ele>124.374</ele>
        <time>2010-10-09T12:22:15Z</time>
      </trkpt>
      <trkpt lat="43.39423" lon="6.68918">
        <ele>121.111</ele>
        <time>2010-10-09T12:22:17Z</time>
      </trkpt>
      <trkpt lat="43.39441" lon="6.68925">
        <ele>119.026</ele>
        <time>2010-10-09T12:22:20Z</time>
      </trkpt>
      <trkpt lat="43.39454" lon="6.68922">
        <ele>117.735</ele>
        <time>2010-10-09T12:22:22Z</time>
      </trkpt>
      <trkpt lat="43.39464" lon="6.68913">
        <ele>117.01</ele>
        <time>2010-10-09T12:22:24Z</time>
      </trkpt>
      <trkpt lat="43.39477" lon="6.68901">
        <ele>115.104</ele>
        <time>2010-10-09T12:22:27Z</time>
      </trkpt>
      <trkpt lat="43.3949" lon="6.68891">
        <ele>111.991</ele>
        <time>2010-10-09T12:22:30Z</time>
      </trkpt>
      <trkpt lat="43.39503" lon="6.68879">
        <ele>108.746</ele>
        <time>2010-10-09T12:22:33Z</time>
      </trkpt>
      <trkpt lat="43.39519" lon="6.68865">
        <ele>105.921</ele>
        <time>2010-10-09T12:22:36Z</time>
      </trkpt>
      <trkpt lat="43.39535" lon="6.68836">
        <ele>100.592</ele>
        <time>2010-10-09T12:22:40Z</time>
      </trkpt>
      <trkpt lat="43.39535" lon="6.6882">
        <ele>99.899</ele>
        <time>2010-10-09T12:22:43Z</time>
      </trkpt>
      <trkpt lat="43.39523" lon="6.68792">
        <ele>99.436</ele>
        <time>2010-10-09T12:22:48Z</time>
      </trkpt>
      <trkpt lat="43.39503" lon="6.68764">
        <ele>99.265</ele>
        <time>2010-10-09T12:22:56Z</time>
      </trkpt>
      <trkpt lat="43.395" lon="6.68761">
        <ele>99.036</ele>
        <time>2010-10-09T12:22:57Z</time>
      </trkpt>
      <trkpt lat="43.39483" lon="6.68744">
        <ele>97.616</ele>
        <time>2010-10-09T12:23:01Z</time>
      </trkpt>
      <trkpt lat="43.39471" lon="6.6871">
        <ele>96.737</ele>
        <time>2010-10-09T12:23:06Z</time>
      </trkpt>
      <trkpt lat="43.39464" lon="6.68685">
        <ele>97.728</ele>
        <time>2010-10-09T12:23:11Z</time>
      </trkpt>
      <trkpt lat="43.39464" lon="6.68675">
        <ele>97.106</ele>
        <time>2010-10-09T12:23:13Z</time>
      </trkpt>
      <trkpt lat="43.39467" lon="6.68636">
        <ele>94.836</ele>
        <time>2010-10-09T12:23:18Z</time>
      </trkpt>
      <trkpt lat="43.39475" lon="6.68597">
        <ele>92.418</ele>
        <time>2010-10-09T12:23:22Z</time>
      </trkpt>
      <trkpt lat="43.39481" lon="6.68567">
        <ele>89.683</ele>
        <time>2010-10-09T12:23:25Z</time>
      </trkpt>
      <trkpt lat="43.3948" lon="6.6853">
        <ele>86.409</ele>
        <time>2010-10-09T12:23:30Z</time>
      </trkpt>
      <trkpt lat="43.39478" lon="6.68528">
        <ele>86.115</ele>
        <time>2010-10-09T12:23:31Z</time>
      </trkpt>
      <trkpt lat="43.39471" lon="6.68523">
        <ele>85.187</ele>
        <time>2010-10-09T12:23:33Z</time>
      </trkpt>
      <trkpt lat="43.39459" lon="6.68519">
        <ele>84.395</ele>
        <time>2010-10-09T12:23:35Z</time>
      </trkpt>
      <trkpt lat="43.39449" lon="6.68517">
        <ele>81.832</ele>
        <time>2010-10-09T12:23:37Z</time>
      </trkpt>
      <trkpt lat="43.39428" lon="6.68495">
        <ele>78.036</ele>
        <time>2010-10-09T12:23:41Z</time>
      </trkpt>
      <trkpt lat="43.39404" lon="6.68466">
        <ele>74.529</ele>
        <time>2010-10-09T12:23:45Z</time>
      </trkpt>
      <trkpt lat="43.39394" lon="6.68446">
        <ele>73.619</ele>
        <time>2010-10-09T12:23:47Z</time>
      </trkpt>
      <trkpt lat="43.3939" lon="6.68436">
        <ele>73.522</ele>
        <time>2010-10-09T12:23:48Z</time>
      </trkpt>
      <trkpt lat="43.39381" lon="6.68398">
        <ele>73.205</ele>
        <time>2010-10-09T12:23:52Z</time>
      </trkpt>
      <trkpt lat="43.39368" lon="6.68375">
        <ele>69.167</ele>
        <time>2010-10-09T12:23:57Z</time>
      </trkpt>
      <trkpt lat="43.39366" lon="6.68373">
        <ele>68.476</ele>
        <time>2010-10-09T12:23:58Z</time>
      </trkpt>
      <trkpt lat="43.39354" lon="6.68351">
        <ele>63.932</ele>
        <time>2010-10-09T12:24:03Z</time>
      </trkpt>
      <trkpt lat="43.39342" lon="6.68334">
        <ele>62.173</ele>
        <time>2010-10-09T12:24:06Z</time>
      </trkpt>
      <trkpt lat="43.39331" lon="6.68335">
        <ele>62.841</ele>
        <time>2010-10-09T12:24:08Z</time>
      </trkpt>
      <trkpt lat="43.39314" lon="6.68334">
        <ele>63.644</ele>
        <time>2010-10-09T12:24:12Z</time>
      </trkpt>
      <trkpt lat="43.39308" lon="6.68317">
        <ele>63.257</ele>
        <time>2010-10-09T12:24:16Z</time>
      </trkpt>
      <trkpt lat="43.39309" lon="6.6831">
        <ele>63.454</ele>
        <time>2010-10-09T12:24:18Z</time>
      </trkpt>
      <trkpt lat="43.39314" lon="6.68302">
        <ele>62.993</ele>
        <time>2010-10-09T12:24:20Z</time>
      </trkpt>
      <trkpt lat="43.39316" lon="6.68283">
        <ele>63.658</ele>
        <time>2010-10-09T12:24:24Z</time>
      </trkpt>
      <trkpt lat="43.39307" lon="6.68263">
        <ele>66.577</ele>
        <time>2010-10-09T12:24:35Z</time>
      </trkpt>
      <trkpt lat="43.3929" lon="6.68247">
        <ele>69.834</ele>
        <time>2010-10-09T12:24:47Z</time>
      </trkpt>
      <trkpt lat="43.39277" lon="6.6824">
        <ele>71.851</ele>
        <time>2010-10-09T12:24:54Z</time>
      </trkpt>
      <trkpt lat="43.39273" lon="6.68229">
        <ele>72.358</ele>
        <time>2010-10-09T12:24:59Z</time>
      </trkpt>
      <trkpt lat="43.39274" lon="6.68226">
        <ele>72.399</ele>
        <time>2010-10-09T12:25:00Z</time>
      </trkpt>
      <trkpt lat="43.39274" lon="6.68192">
        <ele>71.947</ele>
        <time>2010-10-09T12:25:09Z</time>
      </trkpt>
      <trkpt lat="43.39264" lon="6.68181">
        <ele>70.834</ele>
        <time>2010-10-09T12:25:13Z</time>
      </trkpt>
      <trkpt lat="43.39254" lon="6.68176">
        <ele>69.211</ele>
        <time>2010-10-09T12:25:15Z</time>
      </trkpt>
      <trkpt lat="43.39244" lon="6.68166">
        <ele>69.029</ele>
        <time>2010-10-09T12:25:17Z</time>
      </trkpt>
      <trkpt lat="43.39208" lon="6.68135">
        <ele>69.062</ele>
        <time>2010-10-09T12:25:25Z</time>
      </trkpt>
      <trkpt lat="43.39199" lon="6.68122">
        <ele>68.498</ele>
        <time>2010-10-09T12:25:29Z</time>
      </trkpt>
      <trkpt lat="43.39187" lon="6.68084">
        <ele>66.562</ele>
        <time>2010-10-09T12:25:34Z</time>
      </trkpt>
      <trkpt lat="43.39186" lon="6.68063">
        <ele>66.387</ele>
        <time>2010-10-09T12:25:37Z</time>
      </trkpt>
      <trkpt lat="43.39169" lon="6.68029">
        <ele>65.334</ele>
        <time>2010-10-09T12:25:45Z</time>
      </trkpt>
      <trkpt lat="43.39163" lon="6.68011">
        <ele>64.338</ele>
        <time>2010-10-09T12:25:49Z</time>
      </trkpt>
      <trkpt lat="43.39163" lon="6.67999">
        <ele>63.839</ele>
        <time>2010-10-09T12:25:51Z</time>
      </trkpt>
      <trkpt lat="43.39153" lon="6.67976">
        <ele>62.489</ele>
        <time>2010-10-09T12:25:55Z</time>
      </trkpt>
      <trkpt lat="43.39144" lon="6.67927">
        <ele>60.285</ele>
        <time>2010-10-09T12:26:01Z</time>
      </trkpt>
      <trkpt lat="43.39142" lon="6.67913">
        <ele>59.371</ele>
        <time>2010-10-09T12:26:03Z</time>
      </trkpt>
      <trkpt lat="43.3914" lon="6.67901">
        <ele>58.172</ele>
        <time>2010-10-09T12:26:05Z</time>
      </trkpt>
      <trkpt lat="43.39133" lon="6.67882">
        <ele>55.149</ele>
        <time>2010-10-09T12:26:09Z</time>
      </trkpt>
      <trkpt lat="43.39134" lon="6.67877">
        <ele>55.02</ele>
        <time>2010-10-09T12:26:10Z</time>
      </trkpt>
      <trkpt lat="43.39132" lon="6.67849">
        <ele>50.965</ele>
        <time>2010-10-09T12:26:15Z</time>
      </trkpt>
      <trkpt lat="43.39125" lon="6.67829">
        <ele>47.747</ele>
        <time>2010-10-09T12:26:19Z</time>
      </trkpt>
      <trkpt lat="43.3912" lon="6.67813">
        <ele>46.423</ele>
        <time>2010-10-09T12:26:22Z</time>
      </trkpt>
      <trkpt lat="43.39123" lon="6.67795">
        <ele>43.764</ele>
        <time>2010-10-09T12:26:26Z</time>
      </trkpt>
      <trkpt lat="43.39133" lon="6.67789">
        <ele>41.848</ele>
        <time>2010-10-09T12:26:31Z</time>
      </trkpt>
      <trkpt lat="43.39136" lon="6.67785">
        <ele>42.129</ele>
        <time>2010-10-09T12:26:51Z</time>
      </trkpt>
      <trkpt lat="43.39139" lon="6.67782">
        <ele>41.152</ele>
        <time>2010-10-09T12:26:57Z</time>
      </trkpt>
      <trkpt lat="43.39141" lon="6.67783">
        <ele>40.773</ele>
        <time>2010-10-09T12:27:04Z</time>
      </trkpt>
      <trkpt lat="43.39142" lon="6.67781">
        <ele>40.479</ele>
        <time>2010-10-09T12:27:09Z</time>
      </trkpt>
      <trkpt lat="43.3915" lon="6.6777">
        <ele>37.441</ele>
        <time>2010-10-09T12:27:20Z</time>
      </trkpt>
      <trkpt lat="43.39158" lon="6.67762">
        <ele>35.378</ele>
        <time>2010-10-09T12:27:30Z</time>
      </trkpt>
      <trkpt lat="43.39158" lon="6.67762">
        <ele>35.206</ele>
        <time>2010-10-09T12:27:42Z</time>
      </trkpt>
      <trkpt lat="43.39162" lon="6.67759">
        <ele>34.339</ele>
        <time>2010-10-09T12:27:58Z</time>
      </trkpt>
      <trkpt lat="43.39166" lon="6.67755">
        <ele>32.816</ele>
        <time>2010-10-09T12:28:05Z</time>
      </trkpt>
      <trkpt lat="43.3917" lon="6.67752">
        <ele>30.892</ele>
        <time>2010-10-09T12:28:12Z</time>
      </trkpt>
      <trkpt lat="43.39173" lon="6.67751">
        <ele>30.245</ele>
        <time>2010-10-09T12:28:20Z</time>
      </trkpt>
      <trkpt lat="43.39178" lon="6.67752">
        <ele>28.99</ele>
        <time>2010-10-09T12:28:28Z</time>
      </trkpt>
      <trkpt lat="43.39179" lon="6.67749">
        <ele>28.116</ele>
        <time>2010-10-09T12:28:34Z</time>
      </trkpt>
      <trkpt lat="43.39182" lon="6.67748">
        <ele>27.207</ele>
        <time>2010-10-09T12:28:43Z</time>
      </trkpt>
      <trkpt lat="43.39187" lon="6.6774">
        <ele>25.158</ele>
        <time>2010-10-09T12:28:52Z</time>
      </trkpt>
      <trkpt lat="43.39188" lon="6.6774">
        <ele>24.835</ele>
        <time>2010-10-09T12:28:53Z</time>
      </trkpt>
      <trkpt lat="43.39191" lon="6.67735">
        <ele>23.461</ele>
        <time>2010-10-09T12:29:01Z</time>
      </trkpt>
      <trkpt lat="43.39193" lon="6.67721">
        <ele>21.674</ele>
        <time>2010-10-09T12:29:06Z</time>
      </trkpt>
      <trkpt lat="43.39191" lon="6.67708">
        <ele>20.423</ele>
        <time>2010-10-09T12:29:08Z</time>
      </trkpt>
      <trkpt lat="43.39185" lon="6.67698">
        <ele>18.669</ele>
        <time>2010-10-09T12:29:10Z</time>
      </trkpt>
      <trkpt lat="43.3919" lon="6.67686">
        <ele>17.698</ele>
        <time>2010-10-09T12:29:14Z</time>
      </trkpt>
      <trkpt lat="43.39199" lon="6.67675">
        <ele>16.977</ele>
        <time>2010-10-09T12:29:17Z</time>
      </trkpt>
      <trkpt lat="43.39212" lon="6.67664">
        <ele>15.665</ele>
        <time>2010-10-09T12:29:20Z</time>
      </trkpt>
      <trkpt lat="43.39223" lon="6.67651">
        <ele>13.967</ele>
        <time>2010-10-09T12:29:23Z</time>
      </trkpt>
      <trkpt lat="43.39217" lon="6.67639">
        <ele>11.175</ele>
        <time>2010-10-09T12:29:27Z</time>
      </trkpt>
      <trkpt lat="43.39215" lon="6.6763">
        <ele>10.756</ele>
        <time>2010-10-09T12:29:29Z</time>
      </trkpt>
      <trkpt lat="43.39227" lon="6.67623">
        <ele>11.166</ele>
        <time>2010-10-09T12:29:34Z</time>
      </trkpt>
      <trkpt lat="43.39255" lon="6.67622">
        <ele>11.229</ele>
        <time>2010-10-09T12:29:41Z</time>
      </trkpt>
      <trkpt lat="43.39276" lon="6.67614">
        <ele>11.634</ele>
        <time>2010-10-09T12:29:47Z</time>
      </trkpt>
      <trkpt lat="43.3929" lon="6.67611">
        <ele>12.038</ele>
        <time>2010-10-09T12:29:51Z</time>
      </trkpt>
      <trkpt lat="43.3932" lon="6.6761">
        <ele>11.803</ele>
        <time>2010-10-09T12:30:00Z</time>
      </trkpt>
      <trkpt lat="43.39337" lon="6.67608">
        <ele>11.677</ele>
        <time>2010-10-09T12:30:06Z</time>
      </trkpt>
      <trkpt lat="43.39345" lon="6.67605">
        <ele>11.071</ele>
        <time>2010-10-09T12:30:08Z</time>
      </trkpt>
      <trkpt lat="43.39359" lon="6.67595">
        <ele>10.329</ele>
        <time>2010-10-09T12:30:11Z</time>
      </trkpt>
      <trkpt lat="43.39388" lon="6.67581">
        <ele>10.49</ele>
        <time>2010-10-09T12:30:19Z</time>
      </trkpt>
      <trkpt lat="43.394" lon="6.67569">
        <ele>12.076</ele>
        <time>2010-10-09T12:30:25Z</time>
      </trkpt>
      <trkpt lat="43.3941" lon="6.67564">
        <ele>11.419</ele>
        <time>2010-10-09T12:30:29Z</time>
      </trkpt>
      <trkpt lat="43.39422" lon="6.6757">
        <ele>11.346</ele>
        <time>2010-10-09T12:30:34Z</time>
      </trkpt>
      <trkpt lat="43.39425" lon="6.67572">
        <ele>11.03</ele>
        <time>2010-10-09T12:30:35Z</time>
      </trkpt>
      <trkpt lat="43.39437" lon="6.67569">
        <ele>11.245</ele>
        <time>2010-10-09T12:30:39Z</time>
      </trkpt>
      <trkpt lat="43.3944" lon="6.67568">
        <ele>11.412</ele>
        <time>2010-10-09T12:30:40Z</time>
      </trkpt>
      <trkpt lat="43.39453" lon="6.67573">
        <ele>10.932</ele>
        <time>2010-10-09T12:30:43Z</time>
      </trkpt>
      <trkpt lat="43.39476" lon="6.67561">
        <ele>10.854</ele>
        <time>2010-10-09T12:30:49Z</time>
      </trkpt>
      <trkpt lat="43.39498" lon="6.67545">
        <ele>9.899</ele>
        <time>2010-10-09T12:30:56Z</time>
      </trkpt>
      <trkpt lat="43.39501" lon="6.67545">
        <ele>9.221</ele>
        <time>2010-10-09T12:30:57Z</time>
      </trkpt>
      <trkpt lat="43.39505" lon="6.67546">
        <ele>8.541</ele>
        <time>2010-10-09T12:30:59Z</time>
      </trkpt>
      <trkpt lat="43.39508" lon="6.67547">
        <ele>9.537</ele>
        <time>2010-10-09T12:31:06Z</time>
      </trkpt>
      <trkpt lat="43.3951" lon="6.67549">
        <ele>10.338</ele>
        <time>2010-10-09T12:31:09Z</time>
      </trkpt>
      <trkpt lat="43.39518" lon="6.67536">
        <ele>10.689</ele>
        <time>2010-10-09T12:31:16Z</time>
      </trkpt>
      <trkpt lat="43.3953" lon="6.67523">
        <ele>10.377</ele>
        <time>2010-10-09T12:31:25Z</time>
      </trkpt>
      <trkpt lat="43.39536" lon="6.67521">
        <ele>10.44</ele>
        <time>2010-10-09T12:31:32Z</time>
      </trkpt>
      <trkpt lat="43.39544" lon="6.67516">
        <ele>10.389</ele>
        <time>2010-10-09T12:31:43Z</time>
      </trkpt>
      <trkpt lat="43.39564" lon="6.67504">
        <ele>10.486</ele>
        <time>2010-10-09T12:31:49Z</time>
      </trkpt>
      <trkpt lat="43.39597" lon="6.67492">
        <ele>10.519</ele>
        <time>2010-10-09T12:31:57Z</time>
      </trkpt>
      <trkpt lat="43.39633" lon="6.67479">
        <ele>10.335</ele>
        <time>2010-10-09T12:32:06Z</time>
      </trkpt>
      <trkpt lat="43.39669" lon="6.67471">
        <ele>10.342</ele>
        <time>2010-10-09T12:32:15Z</time>
      </trkpt>
      <trkpt lat="43.3969" lon="6.67469">
        <ele>9.641</ele>
        <time>2010-10-09T12:32:22Z</time>
      </trkpt>
      <trkpt lat="43.39694" lon="6.6747">
        <ele>9.218</ele>
        <time>2010-10-09T12:32:23Z</time>
      </trkpt>
      <trkpt lat="43.3971" lon="6.67479">
        <ele>7.994</ele>
        <time>2010-10-09T12:32:27Z</time>
      </trkpt>
      <trkpt lat="43.39723" lon="6.67492">
        <ele>8.497</ele>
        <time>2010-10-09T12:32:32Z</time>
      </trkpt>
      <trkpt lat="43.39727" lon="6.67488">
        <ele>9.251</ele>
        <time>2010-10-09T12:32:38Z</time>
      </trkpt>
      <trkpt lat="43.39734" lon="6.6748">
        <ele>8.546</ele>
        <time>2010-10-09T12:32:42Z</time>
      </trkpt>
      <trkpt lat="43.39739" lon="6.67447">
        <ele>10.231</ele>
        <time>2010-10-09T12:32:48Z</time>
      </trkpt>
      <trkpt lat="43.39741" lon="6.67403">
        <ele>10.195</ele>
        <time>2010-10-09T12:32:56Z</time>
      </trkpt>
      <trkpt lat="43.39744" lon="6.67382">
        <ele>10.168</ele>
        <time>2010-10-09T12:32:59Z</time>
      </trkpt>
      <trkpt lat="43.39748" lon="6.67338">
        <ele>9.887</ele>
        <time>2010-10-09T12:33:06Z</time>
      </trkpt>
      <trkpt lat="43.39741" lon="6.6729">
        <ele>10.308</ele>
        <time>2010-10-09T12:33:15Z</time>
      </trkpt>
      <trkpt lat="43.39726" lon="6.67254">
        <ele>10.921</ele>
        <time>2010-10-09T12:33:25Z</time>
      </trkpt>
      <trkpt lat="43.39718" lon="6.67242">
        <ele>11.194</ele>
        <time>2010-10-09T12:33:32Z</time>
      </trkpt>
      <trkpt lat="43.39715" lon="6.67242">
        <ele>11.085</ele>
        <time>2010-10-09T12:33:39Z</time>
      </trkpt>
      <trkpt lat="43.39716" lon="6.67244">
        <ele>10.518</ele>
        <time>2010-10-09T12:34:10Z</time>
      </trkpt>
      <trkpt lat="43.39718" lon="6.6725">
        <ele>11.593</ele>
        <time>2010-10-09T12:34:18Z</time>
      </trkpt>
      <trkpt lat="43.39722" lon="6.6725">
        <ele>11.669</ele>
        <time>2010-10-09T12:44:31Z</time>
      </trkpt>
      <trkpt lat="43.39721" lon="6.6725">
        <ele>12.023</ele>
        <time>2010-10-09T12:44:39Z</time>
      </trkpt>
      <trkpt lat="43.39721" lon="6.6725">
        <ele>12.005</ele>
        <time>2010-10-09T12:45:01Z</time>
      </trkpt>
      <trkpt lat="43.39709" lon="6.67238">
        <ele>12.635</ele>
        <time>2010-10-09T12:45:09Z</time>
      </trkpt>
      <trkpt lat="43.39693" lon="6.67223">
        <ele>12.877</ele>
        <time>2010-10-09T12:45:15Z</time>
      </trkpt>
      <trkpt lat="43.39676" lon="6.67206">
        <ele>13.1</ele>
        <time>2010-10-09T12:45:21Z</time>
      </trkpt>
      <trkpt lat="43.39671" lon="6.67199">
        <ele>12.657</ele>
        <time>2010-10-09T12:45:23Z</time>
      </trkpt>
      <trkpt lat="43.39651" lon="6.67193">
        <ele>11.749</ele>
        <time>2010-10-09T12:45:28Z</time>
      </trkpt>
      <trkpt lat="43.39626" lon="6.672">
        <ele>11.149</ele>
        <time>2010-10-09T12:45:35Z</time>
      </trkpt>
      <trkpt lat="43.39601" lon="6.67216">
        <ele>11.255</ele>
        <time>2010-10-09T12:45:42Z</time>
      </trkpt>
      <trkpt lat="43.39594" lon="6.6722">
        <ele>11.063</ele>
        <time>2010-10-09T12:45:44Z</time>
      </trkpt>
      <trkpt lat="43.39572" lon="6.6722">
        <ele>11.72</ele>
        <time>2010-10-09T12:45:49Z</time>
      </trkpt>
      <trkpt lat="43.39558" lon="6.67203">
        <ele>12.024</ele>
        <time>2010-10-09T12:45:53Z</time>
      </trkpt>
      <trkpt lat="43.39534" lon="6.67155">
        <ele>11.747</ele>
        <time>2010-10-09T12:46:03Z</time>
      </trkpt>
      <trkpt lat="43.39518" lon="6.6714">
        <ele>11.971</ele>
        <time>2010-10-09T12:46:08Z</time>
      </trkpt>
      <trkpt lat="43.39504" lon="6.67134">
        <ele>12.016</ele>
        <time>2010-10-09T12:46:12Z</time>
      </trkpt>
      <trkpt lat="43.39495" lon="6.67116">
        <ele>11.433</ele>
        <time>2010-10-09T12:46:16Z</time>
      </trkpt>
      <trkpt lat="43.39481" lon="6.67099">
        <ele>12.593</ele>
        <time>2010-10-09T12:46:21Z</time>
      </trkpt>
      <trkpt lat="43.39454" lon="6.67081">
        <ele>13.068</ele>
        <time>2010-10-09T12:46:29Z</time>
      </trkpt>
      <trkpt lat="43.39451" lon="6.67077">
        <ele>13.113</ele>
        <time>2010-10-09T12:46:30Z</time>
      </trkpt>
      <trkpt lat="43.39435" lon="6.67048">
        <ele>13.348</ele>
        <time>2010-10-09T12:46:36Z</time>
      </trkpt>
      <trkpt lat="43.39424" lon="6.67031">
        <ele>13.21</ele>
        <time>2010-10-09T12:46:40Z</time>
      </trkpt>
      <trkpt lat="43.39412" lon="6.67013">
        <ele>13.471</ele>
        <time>2010-10-09T12:46:44Z</time>
      </trkpt>
      <trkpt lat="43.39396" lon="6.66975">
        <ele>13.405</ele>
        <time>2010-10-09T12:46:51Z</time>
      </trkpt>
      <trkpt lat="43.39384" lon="6.66962">
        <ele>13.599</ele>
        <time>2010-10-09T12:46:54Z</time>
      </trkpt>
      <trkpt lat="43.39349" lon="6.66929">
        <ele>13.257</ele>
        <time>2010-10-09T12:47:02Z</time>
      </trkpt>
      <trkpt lat="43.39301" lon="6.66893">
        <ele>14.428</ele>
        <time>2010-10-09T12:47:12Z</time>
      </trkpt>
      <trkpt lat="43.39285" lon="6.66876">
        <ele>14.662</ele>
        <time>2010-10-09T12:47:16Z</time>
      </trkpt>
      <trkpt lat="43.3927" lon="6.66838">
        <ele>14.703</ele>
        <time>2010-10-09T12:47:22Z</time>
      </trkpt>
      <trkpt lat="43.3927" lon="6.66831">
        <ele>14.508</ele>
        <time>2010-10-09T12:47:23Z</time>
      </trkpt>
      <trkpt lat="43.3927" lon="6.66818">
        <ele>14.403</ele>
        <time>2010-10-09T12:47:25Z</time>
      </trkpt>
      <trkpt lat="43.39281" lon="6.66787">
        <ele>15.117</ele>
        <time>2010-10-09T12:47:31Z</time>
      </trkpt>
      <trkpt lat="43.39292" lon="6.66758">
        <ele>17.177</ele>
        <time>2010-10-09T12:47:38Z</time>
      </trkpt>
      <trkpt lat="43.39304" lon="6.66723">
        <ele>19.038</ele>
        <time>2010-10-09T12:47:48Z</time>
      </trkpt>
      <trkpt lat="43.39311" lon="6.66693">
        <ele>21.095</ele>
        <time>2010-10-09T12:47:59Z</time>
      </trkpt>
      <trkpt lat="43.39316" lon="6.66665">
        <ele>23.071</ele>
        <time>2010-10-09T12:48:10Z</time>
      </trkpt>
      <trkpt lat="43.39318" lon="6.6666">
        <ele>23.477</ele>
        <time>2010-10-09T12:48:16Z</time>
      </trkpt>
      <trkpt lat="43.3932" lon="6.66649">
        <ele>24.366</ele>
        <time>2010-10-09T12:48:24Z</time>
      </trkpt>
      <trkpt lat="43.39327" lon="6.66616">
        <ele>27.402</ele>
        <time>2010-10-09T12:48:35Z</time>
      </trkpt>
      <trkpt lat="43.39341" lon="6.66574">
        <ele>26.431</ele>
        <time>2010-10-09T12:48:47Z</time>
      </trkpt>
      <trkpt lat="43.39342" lon="6.66553">
        <ele>27.8</ele>
        <time>2010-10-09T12:48:54Z</time>
      </trkpt>
      <trkpt lat="43.39343" lon="6.66536">
        <ele>28.997</ele>
        <time>2010-10-09T12:49:01Z</time>
      </trkpt>
      <trkpt lat="43.39351" lon="6.6651">
        <ele>29.995</ele>
        <time>2010-10-09T12:49:12Z</time>
      </trkpt>
      <trkpt lat="43.39366" lon="6.66495">
        <ele>31.118</ele>
        <time>2010-10-09T12:49:22Z</time>
      </trkpt>
      <trkpt lat="43.39383" lon="6.66485">
        <ele>33.007</ele>
        <time>2010-10-09T12:49:32Z</time>
      </trkpt>
      <trkpt lat="43.39409" lon="6.66474">
        <ele>34.149</ele>
        <time>2010-10-09T12:49:46Z</time>
      </trkpt>
      <trkpt lat="43.39432" lon="6.66463">
        <ele>35.286</ele>
        <time>2010-10-09T12:49:58Z</time>
      </trkpt>
      <trkpt lat="43.39454" lon="6.66453">
        <ele>38.312</ele>
        <time>2010-10-09T12:50:09Z</time>
      </trkpt>
      <trkpt lat="43.39479" lon="6.66446">
        <ele>39.88</ele>
        <time>2010-10-09T12:50:21Z</time>
      </trkpt>
      <trkpt lat="43.39502" lon="6.6644">
        <ele>42.496</ele>
        <time>2010-10-09T12:50:32Z</time>
      </trkpt>
      <trkpt lat="43.39527" lon="6.66432">
        <ele>44.79</ele>
        <time>2010-10-09T12:50:43Z</time>
      </trkpt>
      <trkpt lat="43.39553" lon="6.66428">
        <ele>47.338</ele>
        <time>2010-10-09T12:50:54Z</time>
      </trkpt>
      <trkpt lat="43.39582" lon="6.66435">
        <ele>48.531</ele>
        <time>2010-10-09T12:51:04Z</time>
      </trkpt>
      <trkpt lat="43.39614" lon="6.66436">
        <ele>49.969</ele>
        <time>2010-10-09T12:51:13Z</time>
      </trkpt>
      <trkpt lat="43.39643" lon="6.66428">
        <ele>51.337</ele>
        <time>2010-10-09T12:51:23Z</time>
      </trkpt>
      <trkpt lat="43.39667" lon="6.66414">
        <ele>54.553</ele>
        <time>2010-10-09T12:51:32Z</time>
      </trkpt>
      <trkpt lat="43.39685" lon="6.66417">
        <ele>57.121</ele>
        <time>2010-10-09T12:51:39Z</time>
      </trkpt>
      <trkpt lat="43.39695" lon="6.66421">
        <ele>58.376</ele>
        <time>2010-10-09T12:51:44Z</time>
      </trkpt>
      <trkpt lat="43.39698" lon="6.66416">
        <ele>58.77</ele>
        <time>2010-10-09T12:51:48Z</time>
      </trkpt>
      <trkpt lat="43.39695" lon="6.66403">
        <ele>59.31</ele>
        <time>2010-10-09T12:51:54Z</time>
      </trkpt>
      <trkpt lat="43.39696" lon="6.66402">
        <ele>59.879</ele>
        <time>2010-10-09T12:51:59Z</time>
      </trkpt>
      <trkpt lat="43.39699" lon="6.66399">
        <ele>59.988</ele>
        <time>2010-10-09T12:52:07Z</time>
      </trkpt>
      <trkpt lat="43.397" lon="6.66399">
        <ele>59.732</ele>
        <time>2010-10-09T12:52:09Z</time>
      </trkpt>
      <trkpt lat="43.39703" lon="6.66397">
        <ele>60.996</ele>
        <time>2010-10-09T12:52:16Z</time>
      </trkpt>
      <trkpt lat="43.39703" lon="6.66397">
        <ele>60.853</ele>
        <time>2010-10-09T12:54:01Z</time>
      </trkpt>
      <trkpt lat="43.39703" lon="6.66397">
        <ele>60.685</ele>
        <time>2010-10-09T12:54:18Z</time>
      </trkpt>
      <trkpt lat="43.39702" lon="6.66396">
        <ele>60.542</ele>
        <time>2010-10-09T12:54:25Z</time>
      </trkpt>
      <trkpt lat="43.39702" lon="6.66397">
        <ele>60.581</ele>
        <time>2010-10-09T12:54:30Z</time>
      </trkpt>
      <trkpt lat="43.39702" lon="6.66398">
        <ele>61.015</ele>
        <time>2010-10-09T12:54:37Z</time>
      </trkpt>
      <trkpt lat="43.39702" lon="6.66398">
        <ele>60.526</ele>
        <time>2010-10-09T12:55:11Z</time>
      </trkpt>
      <trkpt lat="43.39706" lon="6.66392">
        <ele>61.123</ele>
        <time>2010-10-09T12:55:16Z</time>
      </trkpt>
      <trkpt lat="43.39714" lon="6.66387">
        <ele>61.768</ele>
        <time>2010-10-09T12:55:20Z</time>
      </trkpt>
      <trkpt lat="43.39738" lon="6.66394">
        <ele>64.725</ele>
        <time>2010-10-09T12:55:30Z</time>
      </trkpt>
      <trkpt lat="43.39754" lon="6.66403">
        <ele>66.566</ele>
        <time>2010-10-09T12:55:37Z</time>
      </trkpt>
      <trkpt lat="43.3977" lon="6.66406">
        <ele>68.046</ele>
        <time>2010-10-09T12:55:44Z</time>
      </trkpt>
      <trkpt lat="43.39787" lon="6.66398">
        <ele>69.729</ele>
        <time>2010-10-09T12:55:51Z</time>
      </trkpt>
      <trkpt lat="43.39797" lon="6.6637">
        <ele>71.494</ele>
        <time>2010-10-09T12:55:59Z</time>
      </trkpt>
      <trkpt lat="43.39801" lon="6.66335">
        <ele>72.365</ele>
        <time>2010-10-09T12:56:07Z</time>
      </trkpt>
      <trkpt lat="43.39793" lon="6.66309">
        <ele>72.304</ele>
        <time>2010-10-09T12:56:13Z</time>
      </trkpt>
      <trkpt lat="43.39775" lon="6.66287">
        <ele>74.615</ele>
        <time>2010-10-09T12:56:21Z</time>
      </trkpt>
      <trkpt lat="43.39768" lon="6.66276">
        <ele>76.052</ele>
        <time>2010-10-09T12:56:25Z</time>
      </trkpt>
      <trkpt lat="43.39772" lon="6.66263">
        <ele>78.12</ele>
        <time>2010-10-09T12:56:31Z</time>
      </trkpt>
      <trkpt lat="43.39774" lon="6.66263">
        <ele>78.483</ele>
        <time>2010-10-09T12:56:32Z</time>
      </trkpt>
      <trkpt lat="43.39789" lon="6.66265">
        <ele>80.678</ele>
        <time>2010-10-09T12:56:39Z</time>
      </trkpt>
      <trkpt lat="43.39792" lon="6.66251">
        <ele>81.832</ele>
        <time>2010-10-09T12:56:44Z</time>
      </trkpt>
      <trkpt lat="43.3979" lon="6.66248">
        <ele>81.883</ele>
        <time>2010-10-09T12:56:45Z</time>
      </trkpt>
      <trkpt lat="43.39769" lon="6.6621">
        <ele>84.193</ele>
        <time>2010-10-09T12:56:56Z</time>
      </trkpt>
      <trkpt lat="43.39779" lon="6.66204">
        <ele>85.981</ele>
        <time>2010-10-09T12:57:01Z</time>
      </trkpt>
      <trkpt lat="43.39802" lon="6.66208">
        <ele>88.019</ele>
        <time>2010-10-09T12:57:09Z</time>
      </trkpt>
      <trkpt lat="43.39813" lon="6.6619">
        <ele>89.642</ele>
        <time>2010-10-09T12:57:15Z</time>
      </trkpt>
      <trkpt lat="43.39819" lon="6.66182">
        <ele>90.9</ele>
        <time>2010-10-09T12:57:19Z</time>
      </trkpt>
      <trkpt lat="43.39834" lon="6.66153">
        <ele>93.176</ele>
        <time>2010-10-09T12:57:29Z</time>
      </trkpt>
      <trkpt lat="43.39852" lon="6.66126">
        <ele>94.827</ele>
        <time>2010-10-09T12:57:39Z</time>
      </trkpt>
      <trkpt lat="43.39864" lon="6.66111">
        <ele>96.412</ele>
        <time>2010-10-09T12:57:48Z</time>
      </trkpt>
      <trkpt lat="43.3988" lon="6.66084">
        <ele>98.253</ele>
        <time>2010-10-09T12:58:02Z</time>
      </trkpt>
      <trkpt lat="43.39892" lon="6.66065">
        <ele>101.108</ele>
        <time>2010-10-09T12:58:10Z</time>
      </trkpt>
      <trkpt lat="43.399" lon="6.66036">
        <ele>104.554</ele>
        <time>2010-10-09T12:58:19Z</time>
      </trkpt>
      <trkpt lat="43.39909" lon="6.66004">
        <ele>106.157</ele>
        <time>2010-10-09T12:58:28Z</time>
      </trkpt>
      <trkpt lat="43.39916" lon="6.65969">
        <ele>107.785</ele>
        <time>2010-10-09T12:58:37Z</time>
      </trkpt>
      <trkpt lat="43.39916" lon="6.65925">
        <ele>110.448</ele>
        <time>2010-10-09T12:58:48Z</time>
      </trkpt>
      <trkpt lat="43.39914" lon="6.65903">
        <ele>111.896</ele>
        <time>2010-10-09T12:58:55Z</time>
      </trkpt>
      <trkpt lat="43.39911" lon="6.65878">
        <ele>113.493</ele>
        <time>2010-10-09T12:59:04Z</time>
      </trkpt>
      <trkpt lat="43.39912" lon="6.65853">
        <ele>114.645</ele>
        <time>2010-10-09T12:59:12Z</time>
      </trkpt>
      <trkpt lat="43.39919" lon="6.65833">
        <ele>116.965</ele>
        <time>2010-10-09T12:59:19Z</time>
      </trkpt>
      <trkpt lat="43.39931" lon="6.65822">
        <ele>118.468</ele>
        <time>2010-10-09T12:59:25Z</time>
      </trkpt>
      <trkpt lat="43.39952" lon="6.65805">
        <ele>120.839</ele>
        <time>2010-10-09T12:59:34Z</time>
      </trkpt>
      <trkpt lat="43.39978" lon="6.65788">
        <ele>122.595</ele>
        <time>2010-10-09T12:59:45Z</time>
      </trkpt>
      <trkpt lat="43.39994" lon="6.65781">
        <ele>123.853</ele>
        <time>2010-10-09T12:59:54Z</time>
      </trkpt>
      <trkpt lat="43.40006" lon="6.65768">
        <ele>126.112</ele>
        <time>2010-10-09T13:00:04Z</time>
      </trkpt>
      <trkpt lat="43.40017" lon="6.65751">
        <ele>127.647</ele>
        <time>2010-10-09T13:00:13Z</time>
      </trkpt>
      <trkpt lat="43.40025" lon="6.65723">
        <ele>129.915</ele>
        <time>2010-10-09T13:00:22Z</time>
      </trkpt>
      <trkpt lat="43.40032" lon="6.65694">
        <ele>132.109</ele>
        <time>2010-10-09T13:00:31Z</time>
      </trkpt>
      <trkpt lat="43.40035" lon="6.65666">
        <ele>133.662</ele>
        <time>2010-10-09T13:00:40Z</time>
      </trkpt>
      <trkpt lat="43.40033" lon="6.65639">
        <ele>135.431</ele>
        <time>2010-10-09T13:00:48Z</time>
      </trkpt>
      <trkpt lat="43.40028" lon="6.65606">
        <ele>137.618</ele>
        <time>2010-10-09T13:00:58Z</time>
      </trkpt>
      <trkpt lat="43.40023" lon="6.65576">
        <ele>140.025</ele>
        <time>2010-10-09T13:01:07Z</time>
      </trkpt>
      <trkpt lat="43.40015" lon="6.65549">
        <ele>143.213</ele>
        <time>2010-10-09T13:01:16Z</time>
      </trkpt>
      <trkpt lat="43.4" lon="6.65519">
        <ele>145.392</ele>
        <time>2010-10-09T13:01:27Z</time>
      </trkpt>
      <trkpt lat="43.3998" lon="6.655">
        <ele>146.822</ele>
        <time>2010-10-09T13:01:37Z</time>
      </trkpt>
      <trkpt lat="43.39956" lon="6.65482">
        <ele>148.965</ele>
        <time>2010-10-09T13:01:48Z</time>
      </trkpt>
      <trkpt lat="43.39927" lon="6.65475">
        <ele>151.511</ele>
        <time>2010-10-09T13:01:59Z</time>
      </trkpt>
      <trkpt lat="43.39912" lon="6.65461">
        <ele>152.778</ele>
        <time>2010-10-09T13:02:06Z</time>
      </trkpt>
      <trkpt lat="43.39899" lon="6.65446">
        <ele>154.925</ele>
        <time>2010-10-09T13:02:13Z</time>
      </trkpt>
      <trkpt lat="43.39892" lon="6.65421">
        <ele>156.218</ele>
        <time>2010-10-09T13:02:20Z</time>
      </trkpt>
      <trkpt lat="43.39889" lon="6.65389">
        <ele>157.406</ele>
        <time>2010-10-09T13:02:29Z</time>
      </trkpt>
      <trkpt lat="43.39885" lon="6.65381">
        <ele>158.217</ele>
        <time>2010-10-09T13:02:32Z</time>
      </trkpt>
      <trkpt lat="43.3988" lon="6.65349">
        <ele>159.278</ele>
        <time>2010-10-09T13:02:41Z</time>
      </trkpt>
      <trkpt lat="43.39866" lon="6.6534">
        <ele>161.448</ele>
        <time>2010-10-09T13:02:47Z</time>
      </trkpt>
      <trkpt lat="43.39843" lon="6.65333">
        <ele>162.881</ele>
        <time>2010-10-09T13:02:55Z</time>
      </trkpt>
      <trkpt lat="43.39827" lon="6.65304">
        <ele>164.525</ele>
        <time>2010-10-09T13:03:04Z</time>
      </trkpt>
      <trkpt lat="43.39817" lon="6.6529">
        <ele>165.601</ele>
        <time>2010-10-09T13:03:10Z</time>
      </trkpt>
      <trkpt lat="43.39797" lon="6.65292">
        <ele>166.877</ele>
        <time>2010-10-09T13:03:18Z</time>
      </trkpt>
      <trkpt lat="43.39794" lon="6.65294">
        <ele>167.284</ele>
        <time>2010-10-09T13:03:20Z</time>
      </trkpt>
      <trkpt lat="43.3978" lon="6.65317">
        <ele>168.366</ele>
        <time>2010-10-09T13:03:29Z</time>
      </trkpt>
      <trkpt lat="43.39757" lon="6.65329">
        <ele>168.863</ele>
        <time>2010-10-09T13:03:37Z</time>
      </trkpt>
      <trkpt lat="43.39731" lon="6.65347">
        <ele>170.368</ele>
        <time>2010-10-09T13:03:46Z</time>
      </trkpt>
      <trkpt lat="43.39718" lon="6.65367">
        <ele>171.561</ele>
        <time>2010-10-09T13:03:52Z</time>
      </trkpt>
      <trkpt lat="43.39702" lon="6.65393">
        <ele>172.885</ele>
        <time>2010-10-09T13:03:59Z</time>
      </trkpt>
      <trkpt lat="43.39679" lon="6.65406">
        <ele>174.186</ele>
        <time>2010-10-09T13:04:06Z</time>
      </trkpt>
      <trkpt lat="43.3966" lon="6.65401">
        <ele>175.12</ele>
        <time>2010-10-09T13:04:12Z</time>
      </trkpt>
      <trkpt lat="43.3963" lon="6.65378">
        <ele>177.095</ele>
        <time>2010-10-09T13:04:22Z</time>
      </trkpt>
      <trkpt lat="43.39606" lon="6.65347">
        <ele>177.28</ele>
        <time>2010-10-09T13:04:30Z</time>
      </trkpt>
      <trkpt lat="43.39577" lon="6.65314">
        <ele>177.575</ele>
        <time>2010-10-09T13:04:38Z</time>
      </trkpt>
      <trkpt lat="43.39566" lon="6.65303">
        <ele>177.666</ele>
        <time>2010-10-09T13:04:41Z</time>
      </trkpt>
      <trkpt lat="43.39547" lon="6.65296">
        <ele>177.704</ele>
        <time>2010-10-09T13:04:45Z</time>
      </trkpt>
      <trkpt lat="43.39535" lon="6.65288">
        <ele>179.099</ele>
        <time>2010-10-09T13:04:48Z</time>
      </trkpt>
      <trkpt lat="43.39523" lon="6.65277">
        <ele>179.785</ele>
        <time>2010-10-09T13:04:51Z</time>
      </trkpt>
      <trkpt lat="43.39515" lon="6.65271">
        <ele>180.203</ele>
        <time>2010-10-09T13:04:53Z</time>
      </trkpt>
      <trkpt lat="43.39502" lon="6.65264">
        <ele>181.519</ele>
        <time>2010-10-09T13:04:56Z</time>
      </trkpt>
      <trkpt lat="43.39473" lon="6.6524">
        <ele>185.24</ele>
        <time>2010-10-09T13:05:04Z</time>
      </trkpt>
      <trkpt lat="43.39458" lon="6.6523">
        <ele>186.107</ele>
        <time>2010-10-09T13:05:10Z</time>
      </trkpt>
      <trkpt lat="43.39458" lon="6.65214">
        <ele>187.504</ele>
        <time>2010-10-09T13:05:17Z</time>
      </trkpt>
      <trkpt lat="43.39475" lon="6.65212">
        <ele>190.095</ele>
        <time>2010-10-09T13:05:27Z</time>
      </trkpt>
      <trkpt lat="43.39489" lon="6.65212">
        <ele>191.723</ele>
        <time>2010-10-09T13:05:35Z</time>
      </trkpt>
      <trkpt lat="43.39506" lon="6.65211">
        <ele>194.775</ele>
        <time>2010-10-09T13:05:45Z</time>
      </trkpt>
      <trkpt lat="43.39514" lon="6.65213">
        <ele>196.334</ele>
        <time>2010-10-09T13:05:51Z</time>
      </trkpt>
      <trkpt lat="43.39525" lon="6.6521">
        <ele>198.112</ele>
        <time>2010-10-09T13:06:00Z</time>
      </trkpt>
      <trkpt lat="43.39543" lon="6.65209">
        <ele>199.89</ele>
        <time>2010-10-09T13:06:12Z</time>
      </trkpt>
      <trkpt lat="43.39558" lon="6.65212">
        <ele>201.157</ele>
        <time>2010-10-09T13:06:20Z</time>
      </trkpt>
      <trkpt lat="43.39561" lon="6.65211">
        <ele>201.105</ele>
        <time>2010-10-09T13:06:22Z</time>
      </trkpt>
      <trkpt lat="43.39569" lon="6.65211">
        <ele>202.581</ele>
        <time>2010-10-09T13:06:28Z</time>
      </trkpt>
      <trkpt lat="43.3958" lon="6.6521">
        <ele>205.006</ele>
        <time>2010-10-09T13:06:35Z</time>
      </trkpt>
      <trkpt lat="43.39595" lon="6.65212">
        <ele>208.131</ele>
        <time>2010-10-09T13:06:45Z</time>
      </trkpt>
      <trkpt lat="43.3961" lon="6.6521">
        <ele>210.635</ele>
        <time>2010-10-09T13:06:55Z</time>
      </trkpt>
      <trkpt lat="43.39611" lon="6.65209">
        <ele>211.286</ele>
        <time>2010-10-09T13:07:03Z</time>
      </trkpt>
      <trkpt lat="43.39612" lon="6.6521">
        <ele>211.191</ele>
        <time>2010-10-09T13:07:16Z</time>
      </trkpt>
      <trkpt lat="43.39615" lon="6.65209">
        <ele>212.023</ele>
        <time>2010-10-09T13:07:24Z</time>
      </trkpt>
      <trkpt lat="43.39622" lon="6.65207">
        <ele>213.627</ele>
        <time>2010-10-09T13:07:30Z</time>
      </trkpt>
      <trkpt lat="43.39632" lon="6.65203">
        <ele>216.36</ele>
        <time>2010-10-09T13:07:38Z</time>
      </trkpt>
      <trkpt lat="43.39647" lon="6.65194">
        <ele>219.628</ele>
        <time>2010-10-09T13:07:48Z</time>
      </trkpt>
      <trkpt lat="43.39658" lon="6.65181">
        <ele>222.795</ele>
        <time>2010-10-09T13:07:59Z</time>
      </trkpt>
      <trkpt lat="43.39663" lon="6.65165">
        <ele>225.755</ele>
        <time>2010-10-09T13:08:07Z</time>
      </trkpt>
      <trkpt lat="43.39666" lon="6.65157">
        <ele>226.522</ele>
        <time>2010-10-09T13:08:11Z</time>
      </trkpt>
      <trkpt lat="43.39671" lon="6.65153">
        <ele>227.048</ele>
        <time>2010-10-09T13:08:19Z</time>
      </trkpt>
      <trkpt lat="43.39671" lon="6.65152">
        <ele>227.192</ele>
        <time>2010-10-09T13:09:42Z</time>
      </trkpt>
      <trkpt lat="43.39678" lon="6.65132">
        <ele>228.543</ele>
        <time>2010-10-09T13:09:51Z</time>
      </trkpt>
      <trkpt lat="43.39688" lon="6.65111">
        <ele>230.106</ele>
        <time>2010-10-09T13:09:59Z</time>
      </trkpt>
      <trkpt lat="43.3969" lon="6.65097">
        <ele>231.085</ele>
        <time>2010-10-09T13:10:04Z</time>
      </trkpt>
      <trkpt lat="43.39698" lon="6.65074">
        <ele>233.116</ele>
        <time>2010-10-09T13:10:13Z</time>
      </trkpt>
      <trkpt lat="43.39714" lon="6.65045">
        <ele>235.215</ele>
        <time>2010-10-09T13:10:25Z</time>
      </trkpt>
      <trkpt lat="43.39734" lon="6.65034">
        <ele>236.809</ele>
        <time>2010-10-09T13:10:34Z</time>
      </trkpt>
      <trkpt lat="43.39755" lon="6.65025">
        <ele>239.351</ele>
        <time>2010-10-09T13:10:45Z</time>
      </trkpt>
      <trkpt lat="43.39761" lon="6.6502">
        <ele>240.596</ele>
        <time>2010-10-09T13:10:50Z</time>
      </trkpt>
      <trkpt lat="43.39781" lon="6.65006">
        <ele>243.406</ele>
        <time>2010-10-09T13:11:04Z</time>
      </trkpt>
      <trkpt lat="43.3979" lon="6.65003">
        <ele>243.813</ele>
        <time>2010-10-09T13:11:12Z</time>
      </trkpt>
      <trkpt lat="43.39804" lon="6.65002">
        <ele>245.976</ele>
        <time>2010-10-09T13:11:21Z</time>
      </trkpt>
      <trkpt lat="43.3982" lon="6.64997">
        <ele>248.362</ele>
        <time>2010-10-09T13:11:32Z</time>
      </trkpt>
      <trkpt lat="43.39835" lon="6.64993">
        <ele>250.511</ele>
        <time>2010-10-09T13:11:42Z</time>
      </trkpt>
      <trkpt lat="43.39837" lon="6.64992">
        <ele>250.677</ele>
        <time>2010-10-09T13:11:44Z</time>
      </trkpt>
      <trkpt lat="43.39849" lon="6.64983">
        <ele>253.783</ele>
        <time>2010-10-09T13:11:55Z</time>
      </trkpt>
      <trkpt lat="43.39866" lon="6.64972">
        <ele>256.402</ele>
        <time>2010-10-09T13:12:08Z</time>
      </trkpt>
      <trkpt lat="43.39882" lon="6.64963">
        <ele>258.648</ele>
        <time>2010-10-09T13:12:19Z</time>
      </trkpt>
      <trkpt lat="43.39899" lon="6.64959">
        <ele>260.846</ele>
        <time>2010-10-09T13:12:30Z</time>
      </trkpt>
      <trkpt lat="43.39919" lon="6.64955">
        <ele>263.483</ele>
        <time>2010-10-09T13:12:43Z</time>
      </trkpt>
      <trkpt lat="43.39923" lon="6.64952">
        <ele>264.205</ele>
        <time>2010-10-09T13:12:46Z</time>
      </trkpt>
      <trkpt lat="43.39927" lon="6.64945">
        <ele>265.955</ele>
        <time>2010-10-09T13:12:51Z</time>
      </trkpt>
      <trkpt lat="43.39933" lon="6.6494">
        <ele>267.587</ele>
        <time>2010-10-09T13:12:57Z</time>
      </trkpt>
      <trkpt lat="43.39949" lon="6.64931">
        <ele>270.756</ele>
        <time>2010-10-09T13:13:09Z</time>
      </trkpt>
      <trkpt lat="43.39955" lon="6.64932">
        <ele>271.963</ele>
        <time>2010-10-09T13:13:13Z</time>
      </trkpt>
      <trkpt lat="43.39968" lon="6.64932">
        <ele>275.229</ele>
        <time>2010-10-09T13:13:22Z</time>
      </trkpt>
      <trkpt lat="43.3997" lon="6.64932">
        <ele>275.51</ele>
        <time>2010-10-09T13:13:23Z</time>
      </trkpt>
      <trkpt lat="43.39983" lon="6.64933">
        <ele>278.378</ele>
        <time>2010-10-09T13:13:32Z</time>
      </trkpt>
      <trkpt lat="43.3999" lon="6.64935">
        <ele>280.194</ele>
        <time>2010-10-09T13:13:40Z</time>
      </trkpt>
      <trkpt lat="43.39994" lon="6.64937">
        <ele>280.036</ele>
        <time>2010-10-09T13:14:22Z</time>
      </trkpt>
      <trkpt lat="43.39997" lon="6.64937">
        <ele>281.278</ele>
        <time>2010-10-09T13:14:27Z</time>
      </trkpt>
      <trkpt lat="43.40002" lon="6.64938">
        <ele>281.696</ele>
        <time>2010-10-09T13:14:34Z</time>
      </trkpt>
      <trkpt lat="43.40009" lon="6.64936">
        <ele>283.339</ele>
        <time>2010-10-09T13:14:43Z</time>
      </trkpt>
      <trkpt lat="43.40016" lon="6.64935">
        <ele>285.059</ele>
        <time>2010-10-09T13:14:52Z</time>
      </trkpt>
      <trkpt lat="43.40025" lon="6.64928">
        <ele>287.224</ele>
        <time>2010-10-09T13:15:05Z</time>
      </trkpt>
      <trkpt lat="43.40028" lon="6.64929">
        <ele>288.256</ele>
        <time>2010-10-09T13:15:16Z</time>
      </trkpt>
      <trkpt lat="43.4003" lon="6.6493">
        <ele>288.449</ele>
        <time>2010-10-09T13:15:31Z</time>
      </trkpt>
      <trkpt lat="43.40031" lon="6.64928">
        <ele>288.872</ele>
        <time>2010-10-09T13:15:38Z</time>
      </trkpt>
      <trkpt lat="43.40031" lon="6.64928">
        <ele>288.711</ele>
        <time>2010-10-09T13:15:41Z</time>
      </trkpt>
      <trkpt lat="43.40039" lon="6.64918">
        <ele>291.275</ele>
        <time>2010-10-09T13:15:50Z</time>
      </trkpt>
      <trkpt lat="43.4005" lon="6.64905">
        <ele>294.394</ele>
        <time>2010-10-09T13:15:59Z</time>
      </trkpt>
      <trkpt lat="43.40062" lon="6.64893">
        <ele>297.644</ele>
        <time>2010-10-09T13:16:09Z</time>
      </trkpt>
      <trkpt lat="43.40075" lon="6.64882">
        <ele>301.141</ele>
        <time>2010-10-09T13:16:19Z</time>
      </trkpt>
      <trkpt lat="43.40077" lon="6.6488">
        <ele>301.4</ele>
        <time>2010-10-09T13:16:20Z</time>
      </trkpt>
      <trkpt lat="43.40086" lon="6.64875">
        <ele>301.82</ele>
        <time>2010-10-09T13:16:27Z</time>
      </trkpt>
      <trkpt lat="43.40105" lon="6.64863">
        <ele>302.895</ele>
        <time>2010-10-09T13:16:41Z</time>
      </trkpt>
      <trkpt lat="43.40104" lon="6.64864">
        <ele>302.911</ele>
        <time>2010-10-09T13:16:48Z</time>
      </trkpt>
      <trkpt lat="43.40105" lon="6.64865">
        <ele>302.835</ele>
        <time>2010-10-09T13:16:57Z</time>
      </trkpt>
      <trkpt lat="43.40107" lon="6.64862">
        <ele>302.952</ele>
        <time>2010-10-09T13:17:24Z</time>
      </trkpt>
      <trkpt lat="43.40106" lon="6.64863">
        <ele>302.828</ele>
        <time>2010-10-09T13:17:46Z</time>
      </trkpt>
      <trkpt lat="43.40108" lon="6.6486">
        <ele>302.951</ele>
        <time>2010-10-09T13:19:02Z</time>
      </trkpt>
      <trkpt lat="43.4011" lon="6.64857">
        <ele>302.977</ele>
        <time>2010-10-09T13:19:09Z</time>
      </trkpt>
      <trkpt lat="43.40112" lon="6.64855">
        <ele>303.236</ele>
        <time>2010-10-09T13:19:25Z</time>
      </trkpt>
      <trkpt lat="43.40115" lon="6.64851">
        <ele>303.116</ele>
        <time>2010-10-09T13:19:34Z</time>
      </trkpt>
      <trkpt lat="43.40114" lon="6.64852">
        <ele>303.66</ele>
        <time>2010-10-09T13:20:13Z</time>
      </trkpt>
      <trkpt lat="43.40114" lon="6.64853">
        <ele>302.953</ele>
        <time>2010-10-09T13:21:10Z</time>
      </trkpt>
      <trkpt lat="43.40113" lon="6.64854">
        <ele>302.774</ele>
        <time>2010-10-09T13:21:11Z</time>
      </trkpt>
      <trkpt lat="43.40101" lon="6.64865">
        <ele>302.684</ele>
        <time>2010-10-09T13:21:23Z</time>
      </trkpt>
      <trkpt lat="43.40098" lon="6.64867">
        <ele>302.536</ele>
        <time>2010-10-09T13:21:31Z</time>
      </trkpt>
      <trkpt lat="43.40093" lon="6.6487">
        <ele>302.263</ele>
        <time>2010-10-09T13:21:35Z</time>
      </trkpt>
      <trkpt lat="43.40091" lon="6.64873">
        <ele>301.886</ele>
        <time>2010-10-09T13:21:43Z</time>
      </trkpt>
      <trkpt lat="43.40092" lon="6.64872">
        <ele>302.098</ele>
        <time>2010-10-09T13:21:45Z</time>
      </trkpt>
      <trkpt lat="43.40096" lon="6.64869">
        <ele>302.818</ele>
        <time>2010-10-09T13:21:49Z</time>
      </trkpt>
      <trkpt lat="43.4011" lon="6.64858">
        <ele>303.221</ele>
        <time>2010-10-09T13:22:01Z</time>
      </trkpt>
      <trkpt lat="43.40109" lon="6.64859">
        <ele>303.004</ele>
        <time>2010-10-09T13:22:21Z</time>
      </trkpt>
      <trkpt lat="43.40109" lon="6.64859">
        <ele>303.61</ele>
        <time>2010-10-09T13:22:45Z</time>
      </trkpt>
      <trkpt lat="43.40109" lon="6.64859">
        <ele>303.276</ele>
        <time>2010-10-09T13:23:15Z</time>
      </trkpt>
      <trkpt lat="43.40109" lon="6.64859">
        <ele>303.69</ele>
        <time>2010-10-09T13:26:14Z</time>
      </trkpt>
      <trkpt lat="43.40109" lon="6.64859">
        <ele>303.906</ele>
        <time>2010-10-09T13:28:09Z</time>
      </trkpt>
      <trkpt lat="43.40109" lon="6.6486">
        <ele>304.334</ele>
        <time>2010-10-09T13:29:30Z</time>
      </trkpt>
      <trkpt lat="43.4011" lon="6.64859">
        <ele>304.041</ele>
        <time>2010-10-09T13:29:40Z</time>
      </trkpt>
      <trkpt lat="43.40123" lon="6.64843">
        <ele>304.617</ele>
        <time>2010-10-09T13:29:48Z</time>
      </trkpt>
      <trkpt lat="43.40134" lon="6.6482">
        <ele>304.034</ele>
        <time>2010-10-09T13:29:54Z</time>
      </trkpt>
      <trkpt lat="43.40157" lon="6.64785">
        <ele>302.35</ele>
        <time>2010-10-09T13:30:00Z</time>
      </trkpt>
      <trkpt lat="43.40163" lon="6.64778">
        <ele>302.057</ele>
        <time>2010-10-09T13:30:01Z</time>
      </trkpt>
      <trkpt lat="43.40175" lon="6.64767">
        <ele>301.174</ele>
        <time>2010-10-09T13:30:03Z</time>
      </trkpt>
      <trkpt lat="43.40217" lon="6.64755">
        <ele>298.314</ele>
        <time>2010-10-09T13:30:08Z</time>
      </trkpt>
      <trkpt lat="43.40266" lon="6.64748">
        <ele>295.6</ele>
        <time>2010-10-09T13:30:14Z</time>
      </trkpt>
      <trkpt lat="43.40297" lon="6.64741">
        <ele>296.086</ele>
        <time>2010-10-09T13:30:19Z</time>
      </trkpt>
      <trkpt lat="43.40307" lon="6.64738">
        <ele>296.577</ele>
        <time>2010-10-09T13:30:21Z</time>
      </trkpt>
      <trkpt lat="43.40318" lon="6.64737">
        <ele>296.571</ele>
        <time>2010-10-09T13:30:23Z</time>
      </trkpt>
      <trkpt lat="43.40337" lon="6.6474">
        <ele>295.394</ele>
        <time>2010-10-09T13:30:26Z</time>
      </trkpt>
      <trkpt lat="43.40352" lon="6.64744">
        <ele>294.704</ele>
        <time>2010-10-09T13:30:28Z</time>
      </trkpt>
      <trkpt lat="43.4036" lon="6.64746">
        <ele>294.091</ele>
        <time>2010-10-09T13:30:29Z</time>
      </trkpt>
      <trkpt lat="43.40376" lon="6.64753">
        <ele>293.351</ele>
        <time>2010-10-09T13:30:31Z</time>
      </trkpt>
      <trkpt lat="43.40418" lon="6.6477">
        <ele>293.832</ele>
        <time>2010-10-09T13:30:37Z</time>
      </trkpt>
      <trkpt lat="43.40483" lon="6.64783">
        <ele>290.515</ele>
        <time>2010-10-09T13:30:46Z</time>
      </trkpt>
      <trkpt lat="43.4052" lon="6.64786">
        <ele>288.241</ele>
        <time>2010-10-09T13:30:52Z</time>
      </trkpt>
      <trkpt lat="43.40562" lon="6.64794">
        <ele>287.168</ele>
        <time>2010-10-09T13:30:58Z</time>
      </trkpt>
      <trkpt lat="43.40619" lon="6.64806">
        <ele>288.871</ele>
        <time>2010-10-09T13:31:05Z</time>
      </trkpt>
      <trkpt lat="43.40636" lon="6.64809">
        <ele>289.34</ele>
        <time>2010-10-09T13:31:07Z</time>
      </trkpt>
      <trkpt lat="43.40708" lon="6.64831">
        <ele>292.3</ele>
        <time>2010-10-09T13:31:16Z</time>
      </trkpt>
      <trkpt lat="43.40721" lon="6.64835">
        <ele>293.234</ele>
        <time>2010-10-09T13:31:18Z</time>
      </trkpt>
      <trkpt lat="43.40743" lon="6.64853">
        <ele>292.419</ele>
        <time>2010-10-09T13:31:22Z</time>
      </trkpt>
      <trkpt lat="43.40757" lon="6.64874">
        <ele>294.146</ele>
        <time>2010-10-09T13:31:26Z</time>
      </trkpt>
      <trkpt lat="43.40765" lon="6.64888">
        <ele>294.795</ele>
        <time>2010-10-09T13:31:31Z</time>
      </trkpt>
      <trkpt lat="43.40769" lon="6.64898">
        <ele>295.144</ele>
        <time>2010-10-09T13:31:44Z</time>
      </trkpt>
      <trkpt lat="43.40778" lon="6.64922">
        <ele>297.855</ele>
        <time>2010-10-09T13:31:54Z</time>
      </trkpt>
      <trkpt lat="43.40781" lon="6.64938">
        <ele>299.585</ele>
        <time>2010-10-09T13:32:01Z</time>
      </trkpt>
      <trkpt lat="43.40784" lon="6.64957">
        <ele>300.533</ele>
        <time>2010-10-09T13:32:08Z</time>
      </trkpt>
      <trkpt lat="43.40787" lon="6.64985">
        <ele>302.965</ele>
        <time>2010-10-09T13:32:17Z</time>
      </trkpt>
      <trkpt lat="43.4079" lon="6.65032">
        <ele>303.712</ele>
        <time>2010-10-09T13:32:27Z</time>
      </trkpt>
      <trkpt lat="43.40795" lon="6.65089">
        <ele>303.121</ele>
        <time>2010-10-09T13:32:38Z</time>
      </trkpt>
      <trkpt lat="43.40797" lon="6.65138">
        <ele>300.754</ele>
        <time>2010-10-09T13:32:45Z</time>
      </trkpt>
      <trkpt lat="43.40797" lon="6.65153">
        <ele>298.67</ele>
        <time>2010-10-09T13:32:47Z</time>
      </trkpt>
      <trkpt lat="43.4081" lon="6.65182">
        <ele>297.339</ele>
        <time>2010-10-09T13:32:52Z</time>
      </trkpt>
      <trkpt lat="43.40812" lon="6.65184">
        <ele>297.487</ele>
        <time>2010-10-09T13:32:53Z</time>
      </trkpt>
      <trkpt lat="43.40821" lon="6.65198">
        <ele>297.87</ele>
        <time>2010-10-09T13:32:59Z</time>
      </trkpt>
      <trkpt lat="43.40825" lon="6.65201">
        <ele>297.548</ele>
        <time>2010-10-09T13:33:05Z</time>
      </trkpt>
      <trkpt lat="43.40829" lon="6.65193">
        <ele>297.905</ele>
        <time>2010-10-09T13:33:46Z</time>
      </trkpt>
      <trkpt lat="43.4083" lon="6.65192">
        <ele>298.31</ele>
        <time>2010-10-09T13:33:53Z</time>
      </trkpt>
      <trkpt lat="43.4083" lon="6.65184">
        <ele>299.018</ele>
        <time>2010-10-09T13:35:06Z</time>
      </trkpt>
      <trkpt lat="43.40823" lon="6.6517">
        <ele>301.591</ele>
        <time>2010-10-09T13:35:14Z</time>
      </trkpt>
      <trkpt lat="43.40823" lon="6.65166">
        <ele>302.435</ele>
        <time>2010-10-09T13:35:17Z</time>
      </trkpt>
      <trkpt lat="43.40821" lon="6.65148">
        <ele>304.778</ele>
        <time>2010-10-09T13:35:26Z</time>
      </trkpt>
      <trkpt lat="43.40821" lon="6.65145">
        <ele>305.428</ele>
        <time>2010-10-09T13:35:28Z</time>
      </trkpt>
      <trkpt lat="43.40829" lon="6.65128">
        <ele>309.117</ele>
        <time>2010-10-09T13:35:38Z</time>
      </trkpt>
      <trkpt lat="43.40839" lon="6.65109">
        <ele>312.326</ele>
        <time>2010-10-09T13:35:49Z</time>
      </trkpt>
      <trkpt lat="43.40843" lon="6.6509">
        <ele>315.346</ele>
        <time>2010-10-09T13:35:59Z</time>
      </trkpt>
      <trkpt lat="43.40848" lon="6.65073">
        <ele>318.221</ele>
        <time>2010-10-09T13:36:09Z</time>
      </trkpt>
      <trkpt lat="43.40849" lon="6.6507">
        <ele>318.974</ele>
        <time>2010-10-09T13:36:11Z</time>
      </trkpt>
      <trkpt lat="43.4085" lon="6.65051">
        <ele>320.83</ele>
        <time>2010-10-09T13:36:22Z</time>
      </trkpt>
      <trkpt lat="43.40848" lon="6.65034">
        <ele>322.022</ele>
        <time>2010-10-09T13:36:32Z</time>
      </trkpt>
      <trkpt lat="43.40846" lon="6.65023">
        <ele>321.605</ele>
        <time>2010-10-09T13:36:40Z</time>
      </trkpt>
      <trkpt lat="43.40843" lon="6.65001">
        <ele>319.906</ele>
        <time>2010-10-09T13:36:45Z</time>
      </trkpt>
      <trkpt lat="43.40844" lon="6.64975">
        <ele>317.948</ele>
        <time>2010-10-09T13:36:48Z</time>
      </trkpt>
      <trkpt lat="43.40849" lon="6.64955">
        <ele>316.176</ele>
        <time>2010-10-09T13:36:51Z</time>
      </trkpt>
      <trkpt lat="43.40851" lon="6.64949">
        <ele>315.228</ele>
        <time>2010-10-09T13:36:52Z</time>
      </trkpt>
      <trkpt lat="43.40842" lon="6.6493">
        <ele>313.414</ele>
        <time>2010-10-09T13:36:56Z</time>
      </trkpt>
      <trkpt lat="43.40832" lon="6.64924">
        <ele>313.32</ele>
        <time>2010-10-09T13:36:58Z</time>
      </trkpt>
      <trkpt lat="43.40818" lon="6.64915">
        <ele>312.074</ele>
        <time>2010-10-09T13:37:01Z</time>
      </trkpt>
      <trkpt lat="43.40805" lon="6.64899">
        <ele>309.621</ele>
        <time>2010-10-09T13:37:04Z</time>
      </trkpt>
      <trkpt lat="43.40801" lon="6.64868">
        <ele>308.417</ele>
        <time>2010-10-09T13:37:08Z</time>
      </trkpt>
      <trkpt lat="43.40802" lon="6.64862">
        <ele>308.756</ele>
        <time>2010-10-09T13:37:09Z</time>
      </trkpt>
      <trkpt lat="43.40804" lon="6.64821">
        <ele>308.492</ele>
        <time>2010-10-09T13:37:16Z</time>
      </trkpt>
      <trkpt lat="43.40804" lon="6.64805">
        <ele>307.82</ele>
        <time>2010-10-09T13:37:18Z</time>
      </trkpt>
      <trkpt lat="43.40812" lon="6.64778">
        <ele>308.072</ele>
        <time>2010-10-09T13:37:22Z</time>
      </trkpt>
      <trkpt lat="43.40821" lon="6.64751">
        <ele>306.898</ele>
        <time>2010-10-09T13:37:26Z</time>
      </trkpt>
      <trkpt lat="43.40834" lon="6.64729">
        <ele>305.452</ele>
        <time>2010-10-09T13:37:29Z</time>
      </trkpt>
      <trkpt lat="43.40847" lon="6.64694">
        <ele>300.632</ele>
        <time>2010-10-09T13:37:33Z</time>
      </trkpt>
      <trkpt lat="43.40851" lon="6.6466">
        <ele>299.018</ele>
        <time>2010-10-09T13:37:36Z</time>
      </trkpt>
      <trkpt lat="43.40855" lon="6.64624">
        <ele>294.933</ele>
        <time>2010-10-09T13:37:40Z</time>
      </trkpt>
      <trkpt lat="43.40862" lon="6.64597">
        <ele>289.976</ele>
        <time>2010-10-09T13:37:43Z</time>
      </trkpt>
      <trkpt lat="43.40866" lon="6.64558">
        <ele>284.252</ele>
        <time>2010-10-09T13:37:48Z</time>
      </trkpt>
      <trkpt lat="43.40862" lon="6.64547">
        <ele>283.344</ele>
        <time>2010-10-09T13:37:50Z</time>
      </trkpt>
      <trkpt lat="43.40846" lon="6.64541">
        <ele>281.6</ele>
        <time>2010-10-09T13:37:53Z</time>
      </trkpt>
      <trkpt lat="43.40823" lon="6.64537">
        <ele>279.171</ele>
        <time>2010-10-09T13:37:56Z</time>
      </trkpt>
      <trkpt lat="43.40798" lon="6.64535">
        <ele>275.38</ele>
        <time>2010-10-09T13:37:59Z</time>
      </trkpt>
      <trkpt lat="43.40775" lon="6.64536">
        <ele>271.44</ele>
        <time>2010-10-09T13:38:03Z</time>
      </trkpt>
      <trkpt lat="43.40766" lon="6.64535">
        <ele>269.938</ele>
        <time>2010-10-09T13:38:05Z</time>
      </trkpt>
      <trkpt lat="43.40745" lon="6.64542">
        <ele>269.227</ele>
        <time>2010-10-09T13:38:10Z</time>
      </trkpt>
      <trkpt lat="43.40726" lon="6.6455">
        <ele>270.809</ele>
        <time>2010-10-09T13:38:17Z</time>
      </trkpt>
      <trkpt lat="43.40706" lon="6.64553">
        <ele>272.654</ele>
        <time>2010-10-09T13:38:25Z</time>
      </trkpt>
      <trkpt lat="43.40691" lon="6.64553">
        <ele>272.297</ele>
        <time>2010-10-09T13:38:31Z</time>
      </trkpt>
      <trkpt lat="43.40666" lon="6.64554">
        <ele>269.853</ele>
        <time>2010-10-09T13:38:36Z</time>
      </trkpt>
      <trkpt lat="43.40637" lon="6.64561">
        <ele>266.55</ele>
        <time>2010-10-09T13:38:40Z</time>
      </trkpt>
      <trkpt lat="43.40614" lon="6.64569">
        <ele>262.379</ele>
        <time>2010-10-09T13:38:43Z</time>
      </trkpt>
      <trkpt lat="43.40608" lon="6.64572">
        <ele>261.747</ele>
        <time>2010-10-09T13:38:44Z</time>
      </trkpt>
      <trkpt lat="43.40586" lon="6.64569">
        <ele>259.047</ele>
        <time>2010-10-09T13:38:48Z</time>
      </trkpt>
      <trkpt lat="43.40583" lon="6.64563">
        <ele>258.965</ele>
        <time>2010-10-09T13:38:49Z</time>
      </trkpt>
      <trkpt lat="43.40565" lon="6.64539">
        <ele>256.686</ele>
        <time>2010-10-09T13:38:54Z</time>
      </trkpt>
      <trkpt lat="43.40541" lon="6.64515">
        <ele>254.375</ele>
        <time>2010-10-09T13:38:59Z</time>
      </trkpt>
      <trkpt lat="43.40521" lon="6.64487">
        <ele>250.865</ele>
        <time>2010-10-09T13:39:03Z</time>
      </trkpt>
      <trkpt lat="43.40498" lon="6.6446">
        <ele>247.293</ele>
        <time>2010-10-09T13:39:07Z</time>
      </trkpt>
      <trkpt lat="43.4048" lon="6.64437">
        <ele>243.685</ele>
        <time>2010-10-09T13:39:10Z</time>
      </trkpt>
      <trkpt lat="43.40473" lon="6.6443">
        <ele>242.868</ele>
        <time>2010-10-09T13:39:11Z</time>
      </trkpt>
      <trkpt lat="43.40434" lon="6.64409">
        <ele>238.759</ele>
        <time>2010-10-09T13:39:16Z</time>
      </trkpt>
      <trkpt lat="43.40427" lon="6.64409">
        <ele>238.148</ele>
        <time>2010-10-09T13:39:17Z</time>
      </trkpt>
      <trkpt lat="43.40413" lon="6.64409">
        <ele>237.904</ele>
        <time>2010-10-09T13:39:19Z</time>
      </trkpt>
      <trkpt lat="43.4039" lon="6.64385">
        <ele>236.579</ele>
        <time>2010-10-09T13:39:23Z</time>
      </trkpt>
      <trkpt lat="43.40366" lon="6.64361">
        <ele>233.109</ele>
        <time>2010-10-09T13:39:27Z</time>
      </trkpt>
      <trkpt lat="43.4034" lon="6.6434">
        <ele>228.455</ele>
        <time>2010-10-09T13:39:31Z</time>
      </trkpt>
      <trkpt lat="43.40316" lon="6.6432">
        <ele>224.317</ele>
        <time>2010-10-09T13:39:34Z</time>
      </trkpt>
      <trkpt lat="43.40299" lon="6.64308">
        <ele>220.128</ele>
        <time>2010-10-09T13:39:36Z</time>
      </trkpt>
      <trkpt lat="43.40273" lon="6.64289">
        <ele>215.781</ele>
        <time>2010-10-09T13:39:39Z</time>
      </trkpt>
      <trkpt lat="43.40258" lon="6.64278">
        <ele>211.59</ele>
        <time>2010-10-09T13:39:41Z</time>
      </trkpt>
      <trkpt lat="43.40252" lon="6.64275">
        <ele>209.712</ele>
        <time>2010-10-09T13:39:42Z</time>
      </trkpt>
      <trkpt lat="43.40224" lon="6.64263">
        <ele>205.87</ele>
        <time>2010-10-09T13:39:46Z</time>
      </trkpt>
      <trkpt lat="43.40216" lon="6.64261">
        <ele>205.526</ele>
        <time>2010-10-09T13:39:47Z</time>
      </trkpt>
      <trkpt lat="43.40192" lon="6.64259">
        <ele>201.705</ele>
        <time>2010-10-09T13:39:50Z</time>
      </trkpt>
      <trkpt lat="43.40155" lon="6.64242">
        <ele>196.847</ele>
        <time>2010-10-09T13:39:54Z</time>
      </trkpt>
      <trkpt lat="43.40136" lon="6.64234">
        <ele>195.485</ele>
        <time>2010-10-09T13:39:56Z</time>
      </trkpt>
      <trkpt lat="43.40117" lon="6.64227">
        <ele>195.101</ele>
        <time>2010-10-09T13:39:58Z</time>
      </trkpt>
      <trkpt lat="43.40087" lon="6.64228">
        <ele>194.625</ele>
        <time>2010-10-09T13:40:02Z</time>
      </trkpt>
      <trkpt lat="43.40055" lon="6.64212">
        <ele>193.336</ele>
        <time>2010-10-09T13:40:07Z</time>
      </trkpt>
      <trkpt lat="43.40043" lon="6.6418">
        <ele>191.464</ele>
        <time>2010-10-09T13:40:12Z</time>
      </trkpt>
      <trkpt lat="43.40041" lon="6.64174">
        <ele>190.748</ele>
        <time>2010-10-09T13:40:14Z</time>
      </trkpt>
      <trkpt lat="43.40034" lon="6.64165">
        <ele>189.248</ele>
        <time>2010-10-09T13:40:20Z</time>
      </trkpt>
      <trkpt lat="43.40032" lon="6.64164">
        <ele>190.167</ele>
        <time>2010-10-09T13:40:48Z</time>
      </trkpt>
      <trkpt lat="43.40031" lon="6.64162">
        <ele>190.078</ele>
        <time>2010-10-09T13:40:55Z</time>
      </trkpt>
      <trkpt lat="43.40026" lon="6.64159">
        <ele>191.038</ele>
        <time>2010-10-09T13:48:04Z</time>
      </trkpt>
      <trkpt lat="43.40014" lon="6.64152">
        <ele>190.594</ele>
        <time>2010-10-09T13:48:07Z</time>
      </trkpt>
      <trkpt lat="43.39998" lon="6.64143">
        <ele>189.186</ele>
        <time>2010-10-09T13:48:10Z</time>
      </trkpt>
      <trkpt lat="43.39955" lon="6.64115">
        <ele>186.133</ele>
        <time>2010-10-09T13:48:17Z</time>
      </trkpt>
      <trkpt lat="43.39937" lon="6.64094">
        <ele>184.092</ele>
        <time>2010-10-09T13:48:20Z</time>
      </trkpt>
      <trkpt lat="43.39911" lon="6.64079">
        <ele>183.494</ele>
        <time>2010-10-09T13:48:24Z</time>
      </trkpt>
      <trkpt lat="43.3989" lon="6.64053">
        <ele>182.831</ele>
        <time>2010-10-09T13:48:28Z</time>
      </trkpt>
      <trkpt lat="43.39871" lon="6.64045">
        <ele>180.676</ele>
        <time>2010-10-09T13:48:32Z</time>
      </trkpt>
      <trkpt lat="43.39868" lon="6.64048">
        <ele>181.001</ele>
        <time>2010-10-09T13:48:33Z</time>
      </trkpt>
      <trkpt lat="43.39863" lon="6.64058">
        <ele>181.238</ele>
        <time>2010-10-09T13:48:35Z</time>
      </trkpt>
      <trkpt lat="43.39841" lon="6.64073">
        <ele>181.947</ele>
        <time>2010-10-09T13:48:40Z</time>
      </trkpt>
      <trkpt lat="43.39805" lon="6.64074">
        <ele>182.593</ele>
        <time>2010-10-09T13:48:49Z</time>
      </trkpt>
      <trkpt lat="43.39786" lon="6.6407">
        <ele>182.251</ele>
        <time>2010-10-09T13:48:55Z</time>
      </trkpt>
      <trkpt lat="43.39775" lon="6.64068">
        <ele>181.145</ele>
        <time>2010-10-09T13:48:58Z</time>
      </trkpt>
      <trkpt lat="43.39772" lon="6.64077">
        <ele>178.665</ele>
        <time>2010-10-09T13:49:02Z</time>
      </trkpt>
      <trkpt lat="43.39774" lon="6.6408">
        <ele>178.25</ele>
        <time>2010-10-09T13:49:03Z</time>
      </trkpt>
      <trkpt lat="43.39785" lon="6.64091">
        <ele>176.409</ele>
        <time>2010-10-09T13:49:06Z</time>
      </trkpt>
      <trkpt lat="43.39792" lon="6.64097">
        <ele>175.245</ele>
        <time>2010-10-09T13:49:08Z</time>
      </trkpt>
      <trkpt lat="43.39802" lon="6.64097">
        <ele>174.647</ele>
        <time>2010-10-09T13:49:10Z</time>
      </trkpt>
      <trkpt lat="43.39821" lon="6.64114">
        <ele>172.689</ele>
        <time>2010-10-09T13:49:14Z</time>
      </trkpt>
      <trkpt lat="43.39825" lon="6.64138">
        <ele>169.13</ele>
        <time>2010-10-09T13:49:18Z</time>
      </trkpt>
      <trkpt lat="43.39813" lon="6.6415">
        <ele>166.961</ele>
        <time>2010-10-09T13:49:21Z</time>
      </trkpt>
      <trkpt lat="43.39806" lon="6.6415">
        <ele>166.03</ele>
        <time>2010-10-09T13:49:22Z</time>
      </trkpt>
      <trkpt lat="43.39766" lon="6.64147">
        <ele>163.759</ele>
        <time>2010-10-09T13:49:27Z</time>
      </trkpt>
      <trkpt lat="43.39736" lon="6.64139">
        <ele>161.85</ele>
        <time>2010-10-09T13:49:31Z</time>
      </trkpt>
      <trkpt lat="43.39691" lon="6.64135">
        <ele>162.044</ele>
        <time>2010-10-09T13:49:38Z</time>
      </trkpt>
      <trkpt lat="43.39681" lon="6.64131">
        <ele>161.712</ele>
        <time>2010-10-09T13:49:40Z</time>
      </trkpt>
      <trkpt lat="43.39667" lon="6.64123">
        <ele>161.517</ele>
        <time>2010-10-09T13:49:43Z</time>
      </trkpt>
      <trkpt lat="43.39658" lon="6.6412">
        <ele>160.159</ele>
        <time>2010-10-09T13:49:45Z</time>
      </trkpt>
      <trkpt lat="43.39651" lon="6.64125">
        <ele>159.569</ele>
        <time>2010-10-09T13:49:47Z</time>
      </trkpt>
      <trkpt lat="43.39632" lon="6.6414">
        <ele>158.925</ele>
        <time>2010-10-09T13:49:51Z</time>
      </trkpt>
      <trkpt lat="43.39613" lon="6.64145">
        <ele>158.258</ele>
        <time>2010-10-09T13:49:54Z</time>
      </trkpt>
      <trkpt lat="43.39578" lon="6.64161">
        <ele>155.997</ele>
        <time>2010-10-09T13:50:00Z</time>
      </trkpt>
      <trkpt lat="43.39559" lon="6.64173">
        <ele>155.248</ele>
        <time>2010-10-09T13:50:03Z</time>
      </trkpt>
      <trkpt lat="43.39541" lon="6.6419">
        <ele>151.433</ele>
        <time>2010-10-09T13:50:06Z</time>
      </trkpt>
      <trkpt lat="43.39522" lon="6.64196">
        <ele>149.877</ele>
        <time>2010-10-09T13:50:10Z</time>
      </trkpt>
      <trkpt lat="43.39518" lon="6.64185">
        <ele>149.921</ele>
        <time>2010-10-09T13:50:12Z</time>
      </trkpt>
      <trkpt lat="43.39513" lon="6.64165">
        <ele>148.665</ele>
        <time>2010-10-09T13:50:15Z</time>
      </trkpt>
      <trkpt lat="43.39502" lon="6.64145">
        <ele>147.15</ele>
        <time>2010-10-09T13:50:18Z</time>
      </trkpt>
      <trkpt lat="43.39478" lon="6.64144">
        <ele>145.609</ele>
        <time>2010-10-09T13:50:23Z</time>
      </trkpt>
      <trkpt lat="43.39469" lon="6.64162">
        <ele>148.443</ele>
        <time>2010-10-09T13:50:28Z</time>
      </trkpt>
      <trkpt lat="43.39466" lon="6.6419">
        <ele>149.011</ele>
        <time>2010-10-09T13:50:33Z</time>
      </trkpt>
      <trkpt lat="43.39449" lon="6.64214">
        <ele>149.706</ele>
        <time>2010-10-09T13:50:38Z</time>
      </trkpt>
      <trkpt lat="43.39445" lon="6.64216">
        <ele>149.769</ele>
        <time>2010-10-09T13:50:39Z</time>
      </trkpt>
      <trkpt lat="43.39402" lon="6.64237">
        <ele>146.899</ele>
        <time>2010-10-09T13:50:48Z</time>
      </trkpt>
      <trkpt lat="43.39397" lon="6.6424">
        <ele>145.871</ele>
        <time>2010-10-09T13:50:49Z</time>
      </trkpt>
      <trkpt lat="43.39364" lon="6.64257">
        <ele>141.059</ele>
        <time>2010-10-09T13:50:54Z</time>
      </trkpt>
      <trkpt lat="43.39358" lon="6.6426">
        <ele>140.342</ele>
        <time>2010-10-09T13:50:55Z</time>
      </trkpt>
      <trkpt lat="43.39342" lon="6.64284">
        <ele>138.051</ele>
        <time>2010-10-09T13:50:59Z</time>
      </trkpt>
      <trkpt lat="43.39319" lon="6.64322">
        <ele>135.737</ele>
        <time>2010-10-09T13:51:04Z</time>
      </trkpt>
      <trkpt lat="43.39311" lon="6.64326">
        <ele>134.943</ele>
        <time>2010-10-09T13:51:05Z</time>
      </trkpt>
      <trkpt lat="43.39291" lon="6.64334">
        <ele>133.51</ele>
        <time>2010-10-09T13:51:08Z</time>
      </trkpt>
      <trkpt lat="43.39274" lon="6.64352">
        <ele>132.159</ele>
        <time>2010-10-09T13:51:11Z</time>
      </trkpt>
      <trkpt lat="43.39269" lon="6.64371">
        <ele>131.622</ele>
        <time>2010-10-09T13:51:13Z</time>
      </trkpt>
      <trkpt lat="43.3926" lon="6.64396">
        <ele>131.162</ele>
        <time>2010-10-09T13:51:16Z</time>
      </trkpt>
      <trkpt lat="43.39235" lon="6.644">
        <ele>130.966</ele>
        <time>2010-10-09T13:51:20Z</time>
      </trkpt>
      <trkpt lat="43.392" lon="6.64389">
        <ele>128.572</ele>
        <time>2010-10-09T13:51:25Z</time>
      </trkpt>
      <trkpt lat="43.39167" lon="6.644">
        <ele>129.938</ele>
        <time>2010-10-09T13:51:30Z</time>
      </trkpt>
      <trkpt lat="43.39115" lon="6.64428">
        <ele>132.479</ele>
        <time>2010-10-09T13:51:38Z</time>
      </trkpt>
      <trkpt lat="43.39078" lon="6.64447">
        <ele>134.496</ele>
        <time>2010-10-09T13:51:44Z</time>
      </trkpt>
      <trkpt lat="43.3903" lon="6.64487">
        <ele>135.957</ele>
        <time>2010-10-09T13:51:53Z</time>
      </trkpt>
      <trkpt lat="43.38994" lon="6.64515">
        <ele>136.464</ele>
        <time>2010-10-09T13:52:01Z</time>
      </trkpt>
      <trkpt lat="43.38978" lon="6.64523">
        <ele>135.814</ele>
        <time>2010-10-09T13:52:04Z</time>
      </trkpt>
      <trkpt lat="43.3896" lon="6.64552">
        <ele>135.65</ele>
        <time>2010-10-09T13:52:09Z</time>
      </trkpt>
      <trkpt lat="43.38958" lon="6.64559">
        <ele>135.996</ele>
        <time>2010-10-09T13:52:10Z</time>
      </trkpt>
      <trkpt lat="43.38956" lon="6.64595">
        <ele>136.506</ele>
        <time>2010-10-09T13:52:17Z</time>
      </trkpt>
      <trkpt lat="43.38954" lon="6.64614">
        <ele>136.892</ele>
        <time>2010-10-09T13:52:21Z</time>
      </trkpt>
      <trkpt lat="43.38944" lon="6.64641">
        <ele>135.02</ele>
        <time>2010-10-09T13:52:25Z</time>
      </trkpt>
      <trkpt lat="43.38932" lon="6.6465">
        <ele>134.406</ele>
        <time>2010-10-09T13:52:27Z</time>
      </trkpt>
      <trkpt lat="43.38881" lon="6.64679">
        <ele>132.985</ele>
        <time>2010-10-09T13:52:36Z</time>
      </trkpt>
      <trkpt lat="43.38877" lon="6.64683">
        <ele>132.79</ele>
        <time>2010-10-09T13:52:37Z</time>
      </trkpt>
      <trkpt lat="43.38865" lon="6.64696">
        <ele>132.781</ele>
        <time>2010-10-09T13:52:40Z</time>
      </trkpt>
      <trkpt lat="43.38845" lon="6.64703">
        <ele>134.025</ele>
        <time>2010-10-09T13:52:44Z</time>
      </trkpt>
      <trkpt lat="43.38797" lon="6.64702">
        <ele>134.983</ele>
        <time>2010-10-09T13:52:53Z</time>
      </trkpt>
      <trkpt lat="43.38767" lon="6.6472">
        <ele>136.24</ele>
        <time>2010-10-09T13:52:59Z</time>
      </trkpt>
      <trkpt lat="43.38763" lon="6.64733">
        <ele>137.385</ele>
        <time>2010-10-09T13:53:01Z</time>
      </trkpt>
      <trkpt lat="43.38761" lon="6.64749">
        <ele>138.945</ele>
        <time>2010-10-09T13:53:04Z</time>
      </trkpt>
      <trkpt lat="43.38761" lon="6.64766">
        <ele>139.896</ele>
        <time>2010-10-09T13:53:08Z</time>
      </trkpt>
      <trkpt lat="43.3876" lon="6.64778">
        <ele>139.714</ele>
        <time>2010-10-09T13:53:10Z</time>
      </trkpt>
      <trkpt lat="43.38757" lon="6.648">
        <ele>139.336</ele>
        <time>2010-10-09T13:53:13Z</time>
      </trkpt>
      <trkpt lat="43.38741" lon="6.64833">
        <ele>138.352</ele>
        <time>2010-10-09T13:53:18Z</time>
      </trkpt>
      <trkpt lat="43.38715" lon="6.64846">
        <ele>136.549</ele>
        <time>2010-10-09T13:53:22Z</time>
      </trkpt>
      <trkpt lat="43.387" lon="6.6485">
        <ele>135.354</ele>
        <time>2010-10-09T13:53:24Z</time>
      </trkpt>
      <trkpt lat="43.38666" lon="6.64855">
        <ele>131.574</ele>
        <time>2010-10-09T13:53:28Z</time>
      </trkpt>
      <trkpt lat="43.38622" lon="6.64879">
        <ele>128.509</ele>
        <time>2010-10-09T13:53:34Z</time>
      </trkpt>
      <trkpt lat="43.38609" lon="6.64888">
        <ele>127.908</ele>
        <time>2010-10-09T13:53:36Z</time>
      </trkpt>
      <trkpt lat="43.38585" lon="6.64909">
        <ele>123.452</ele>
        <time>2010-10-09T13:53:40Z</time>
      </trkpt>
      <trkpt lat="43.3858" lon="6.64938">
        <ele>121.292</ele>
        <time>2010-10-09T13:53:44Z</time>
      </trkpt>
      <trkpt lat="43.38581" lon="6.64967">
        <ele>119.127</ele>
        <time>2010-10-09T13:53:47Z</time>
      </trkpt>
      <trkpt lat="43.38583" lon="6.64997">
        <ele>115.309</ele>
        <time>2010-10-09T13:53:50Z</time>
      </trkpt>
      <trkpt lat="43.38583" lon="6.65015">
        <ele>111.487</ele>
        <time>2010-10-09T13:53:52Z</time>
      </trkpt>
      <trkpt lat="43.38582" lon="6.65028">
        <ele>109.461</ele>
        <time>2010-10-09T13:53:56Z</time>
      </trkpt>
      <trkpt lat="43.38583" lon="6.65028">
        <ele>109.786</ele>
        <time>2010-10-09T13:54:41Z</time>
      </trkpt>
      <trkpt lat="43.38583" lon="6.65028">
        <ele>109.852</ele>
        <time>2010-10-09T13:55:15Z</time>
      </trkpt>
      <trkpt lat="43.38585" lon="6.6504">
        <ele>109.313</ele>
        <time>2010-10-09T13:55:19Z</time>
      </trkpt>
      <trkpt lat="43.38579" lon="6.65078">
        <ele>106.611</ele>
        <time>2010-10-09T13:55:24Z</time>
      </trkpt>
      <trkpt lat="43.38568" lon="6.65089">
        <ele>106.489</ele>
        <time>2010-10-09T13:55:26Z</time>
      </trkpt>
      <trkpt lat="43.38553" lon="6.65099">
        <ele>104.276</ele>
        <time>2010-10-09T13:55:29Z</time>
      </trkpt>
      <trkpt lat="43.38541" lon="6.6512">
        <ele>102.192</ele>
        <time>2010-10-09T13:55:33Z</time>
      </trkpt>
      <trkpt lat="43.38524" lon="6.65154">
        <ele>100.549</ele>
        <time>2010-10-09T13:55:37Z</time>
      </trkpt>
      <trkpt lat="43.38501" lon="6.6518">
        <ele>98.56</ele>
        <time>2010-10-09T13:55:41Z</time>
      </trkpt>
      <trkpt lat="43.38489" lon="6.65208">
        <ele>96.467</ele>
        <time>2010-10-09T13:55:45Z</time>
      </trkpt>
      <trkpt lat="43.38488" lon="6.6525">
        <ele>94.057</ele>
        <time>2010-10-09T13:55:50Z</time>
      </trkpt>
      <trkpt lat="43.38488" lon="6.65259">
        <ele>92.888</ele>
        <time>2010-10-09T13:55:51Z</time>
      </trkpt>
      <trkpt lat="43.38481" lon="6.65294">
        <ele>89.88</ele>
        <time>2010-10-09T13:55:55Z</time>
      </trkpt>
      <trkpt lat="43.38481" lon="6.65324">
        <ele>85.28</ele>
        <time>2010-10-09T13:55:58Z</time>
      </trkpt>
      <trkpt lat="43.38481" lon="6.65335">
        <ele>83.875</ele>
        <time>2010-10-09T13:55:59Z</time>
      </trkpt>
      <trkpt lat="43.38491" lon="6.65368">
        <ele>77.907</ele>
        <time>2010-10-09T13:56:03Z</time>
      </trkpt>
      <trkpt lat="43.38498" lon="6.65373">
        <ele>76.735</ele>
        <time>2010-10-09T13:56:04Z</time>
      </trkpt>
      <trkpt lat="43.38509" lon="6.65387">
        <ele>75.657</ele>
        <time>2010-10-09T13:56:06Z</time>
      </trkpt>
      <trkpt lat="43.38512" lon="6.65401">
        <ele>72.335</ele>
        <time>2010-10-09T13:56:10Z</time>
      </trkpt>
      <trkpt lat="43.3851" lon="6.65399">
        <ele>72.276</ele>
        <time>2010-10-09T13:56:11Z</time>
      </trkpt>
      <trkpt lat="43.38497" lon="6.65385">
        <ele>72.699</ele>
        <time>2010-10-09T13:56:16Z</time>
      </trkpt>
      <trkpt lat="43.38488" lon="6.65379">
        <ele>72.083</ele>
        <time>2010-10-09T13:56:18Z</time>
      </trkpt>
      <trkpt lat="43.38476" lon="6.6537">
        <ele>71.985</ele>
        <time>2010-10-09T13:56:21Z</time>
      </trkpt>
      <trkpt lat="43.38458" lon="6.6533">
        <ele>70.224</ele>
        <time>2010-10-09T13:56:27Z</time>
      </trkpt>
      <trkpt lat="43.38445" lon="6.65277">
        <ele>69.782</ele>
        <time>2010-10-09T13:56:32Z</time>
      </trkpt>
      <trkpt lat="43.38429" lon="6.65228">
        <ele>70.736</ele>
        <time>2010-10-09T13:56:37Z</time>
      </trkpt>
      <trkpt lat="43.38428" lon="6.65198">
        <ele>70.338</ele>
        <time>2010-10-09T13:56:40Z</time>
      </trkpt>
      <trkpt lat="43.38421" lon="6.65155">
        <ele>69.694</ele>
        <time>2010-10-09T13:56:44Z</time>
      </trkpt>
      <trkpt lat="43.38419" lon="6.65098">
        <ele>66.526</ele>
        <time>2010-10-09T13:56:49Z</time>
      </trkpt>
      <trkpt lat="43.38418" lon="6.65086">
        <ele>66.1</ele>
        <time>2010-10-09T13:56:50Z</time>
      </trkpt>
      <trkpt lat="43.38402" lon="6.65044">
        <ele>63.834</ele>
        <time>2010-10-09T13:56:54Z</time>
      </trkpt>
      <trkpt lat="43.38394" lon="6.65018">
        <ele>63.047</ele>
        <time>2010-10-09T13:56:57Z</time>
      </trkpt>
      <trkpt lat="43.3837" lon="6.64983">
        <ele>63.885</ele>
        <time>2010-10-09T13:57:02Z</time>
      </trkpt>
      <trkpt lat="43.38357" lon="6.64947">
        <ele>62.093</ele>
        <time>2010-10-09T13:57:06Z</time>
      </trkpt>
      <trkpt lat="43.38354" lon="6.64925">
        <ele>60.209</ele>
        <time>2010-10-09T13:57:08Z</time>
      </trkpt>
      <trkpt lat="43.38342" lon="6.64912">
        <ele>59.036</ele>
        <time>2010-10-09T13:57:11Z</time>
      </trkpt>
      <trkpt lat="43.38336" lon="6.64911">
        <ele>59.083</ele>
        <time>2010-10-09T13:57:12Z</time>
      </trkpt>
      <trkpt lat="43.38319" lon="6.64891">
        <ele>58.375</ele>
        <time>2010-10-09T13:57:16Z</time>
      </trkpt>
      <trkpt lat="43.38313" lon="6.64866">
        <ele>59.959</ele>
        <time>2010-10-09T13:57:19Z</time>
      </trkpt>
      <trkpt lat="43.38311" lon="6.64842">
        <ele>59.647</ele>
        <time>2010-10-09T13:57:22Z</time>
      </trkpt>
      <trkpt lat="43.38308" lon="6.64828">
        <ele>57.576</ele>
        <time>2010-10-09T13:57:24Z</time>
      </trkpt>
      <trkpt lat="43.38309" lon="6.64818">
        <ele>57.718</ele>
        <time>2010-10-09T13:57:26Z</time>
      </trkpt>
      <trkpt lat="43.38303" lon="6.6481">
        <ele>57.566</ele>
        <time>2010-10-09T13:57:30Z</time>
      </trkpt>
      <trkpt lat="43.38298" lon="6.64809">
        <ele>57.823</ele>
        <time>2010-10-09T13:57:32Z</time>
      </trkpt>
      <trkpt lat="43.38285" lon="6.64802">
        <ele>58.794</ele>
        <time>2010-10-09T13:57:42Z</time>
      </trkpt>
      <trkpt lat="43.38282" lon="6.64802">
        <ele>59.843</ele>
        <time>2010-10-09T13:57:48Z</time>
      </trkpt>
      <trkpt lat="43.3828" lon="6.64801">
        <ele>62.189</ele>
        <time>2010-10-09T13:57:58Z</time>
      </trkpt>
      <trkpt lat="43.38277" lon="6.64798">
        <ele>61.57</ele>
        <time>2010-10-09T13:58:07Z</time>
      </trkpt>
      <trkpt lat="43.38274" lon="6.64794">
        <ele>61.568</ele>
        <time>2010-10-09T13:58:47Z</time>
      </trkpt>
      <trkpt lat="43.38269" lon="6.64787">
        <ele>62.231</ele>
        <time>2010-10-09T13:59:05Z</time>
      </trkpt>
      <trkpt lat="43.38247" lon="6.64774">
        <ele>62.234</ele>
        <time>2010-10-09T13:59:13Z</time>
      </trkpt>
      <trkpt lat="43.38226" lon="6.64768">
        <ele>62.524</ele>
        <time>2010-10-09T13:59:20Z</time>
      </trkpt>
      <trkpt lat="43.3821" lon="6.64768">
        <ele>64.093</ele>
        <time>2010-10-09T13:59:27Z</time>
      </trkpt>
      <trkpt lat="43.38195" lon="6.64765">
        <ele>66.078</ele>
        <time>2010-10-09T13:59:34Z</time>
      </trkpt>
      <trkpt lat="43.38177" lon="6.64766">
        <ele>68.425</ele>
        <time>2010-10-09T13:59:45Z</time>
      </trkpt>
      <trkpt lat="43.38172" lon="6.64764">
        <ele>69.997</ele>
        <time>2010-10-09T13:59:59Z</time>
      </trkpt>
      <trkpt lat="43.38168" lon="6.64762">
        <ele>71.225</ele>
        <time>2010-10-09T14:00:07Z</time>
      </trkpt>
      <trkpt lat="43.38161" lon="6.6476">
        <ele>73.138</ele>
        <time>2010-10-09T14:00:17Z</time>
      </trkpt>
      <trkpt lat="43.38155" lon="6.64759">
        <ele>73.816</ele>
        <time>2010-10-09T14:00:25Z</time>
      </trkpt>
      <trkpt lat="43.38153" lon="6.64757">
        <ele>73.794</ele>
        <time>2010-10-09T14:00:34Z</time>
      </trkpt>
      <trkpt lat="43.38153" lon="6.64757">
        <ele>73.909</ele>
        <time>2010-10-09T14:00:38Z</time>
      </trkpt>
      <trkpt lat="43.38144" lon="6.64752">
        <ele>74.528</ele>
        <time>2010-10-09T14:00:44Z</time>
      </trkpt>
      <trkpt lat="43.38132" lon="6.64752">
        <ele>74.841</ele>
        <time>2010-10-09T14:00:54Z</time>
      </trkpt>
      <trkpt lat="43.3813" lon="6.64751">
        <ele>75.05</ele>
        <time>2010-10-09T14:01:02Z</time>
      </trkpt>
      <trkpt lat="43.38121" lon="6.64749">
        <ele>76.633</ele>
        <time>2010-10-09T14:01:11Z</time>
      </trkpt>
      <trkpt lat="43.38117" lon="6.6475">
        <ele>77.091</ele>
        <time>2010-10-09T14:01:23Z</time>
      </trkpt>
      <trkpt lat="43.38108" lon="6.64752">
        <ele>78.231</ele>
        <time>2010-10-09T14:01:30Z</time>
      </trkpt>
      <trkpt lat="43.38094" lon="6.64749">
        <ele>79.419</ele>
        <time>2010-10-09T14:01:37Z</time>
      </trkpt>
      <trkpt lat="43.38078" lon="6.64699">
        <ele>78.924</ele>
        <time>2010-10-09T14:01:50Z</time>
      </trkpt>
      <trkpt lat="43.38082" lon="6.64678">
        <ele>77.832</ele>
        <time>2010-10-09T14:01:54Z</time>
      </trkpt>
      <trkpt lat="43.38084" lon="6.64662">
        <ele>76.977</ele>
        <time>2010-10-09T14:01:57Z</time>
      </trkpt>
      <trkpt lat="43.38097" lon="6.64613">
        <ele>77.251</ele>
        <time>2010-10-09T14:02:05Z</time>
      </trkpt>
      <trkpt lat="43.38094" lon="6.64584">
        <ele>76.96</ele>
        <time>2010-10-09T14:02:10Z</time>
      </trkpt>
      <trkpt lat="43.38095" lon="6.64562">
        <ele>77.271</ele>
        <time>2010-10-09T14:02:16Z</time>
      </trkpt>
      <trkpt lat="43.381" lon="6.64538">
        <ele>78.154</ele>
        <time>2010-10-09T14:02:23Z</time>
      </trkpt>
      <trkpt lat="43.38101" lon="6.6451">
        <ele>79.084</ele>
        <time>2010-10-09T14:02:31Z</time>
      </trkpt>
      <trkpt lat="43.38097" lon="6.64493">
        <ele>79.608</ele>
        <time>2010-10-09T14:02:36Z</time>
      </trkpt>
      <trkpt lat="43.38073" lon="6.64481">
        <ele>80.123</ele>
        <time>2010-10-09T14:02:45Z</time>
      </trkpt>
      <trkpt lat="43.38048" lon="6.64478">
        <ele>80.503</ele>
        <time>2010-10-09T14:02:53Z</time>
      </trkpt>
      <trkpt lat="43.38019" lon="6.64487">
        <ele>80.784</ele>
        <time>2010-10-09T14:03:01Z</time>
      </trkpt>
      <trkpt lat="43.37998" lon="6.64491">
        <ele>82.271</ele>
        <time>2010-10-09T14:03:08Z</time>
      </trkpt>
      <trkpt lat="43.37974" lon="6.64488">
        <ele>83.064</ele>
        <time>2010-10-09T14:03:16Z</time>
      </trkpt>
      <trkpt lat="43.37949" lon="6.64483">
        <ele>83.76</ele>
        <time>2010-10-09T14:03:23Z</time>
      </trkpt>
      <trkpt lat="43.37915" lon="6.64479">
        <ele>85.269</ele>
        <time>2010-10-09T14:03:33Z</time>
      </trkpt>
      <trkpt lat="43.37877" lon="6.64478">
        <ele>84.522</ele>
        <time>2010-10-09T14:03:43Z</time>
      </trkpt>
      <trkpt lat="43.37866" lon="6.64479">
        <ele>83.435</ele>
        <time>2010-10-09T14:03:45Z</time>
      </trkpt>
      <trkpt lat="43.37843" lon="6.6448">
        <ele>84.408</ele>
        <time>2010-10-09T14:03:50Z</time>
      </trkpt>
      <trkpt lat="43.37839" lon="6.64481">
        <ele>84.466</ele>
        <time>2010-10-09T14:03:51Z</time>
      </trkpt>
      <trkpt lat="43.37811" lon="6.64499">
        <ele>85.442</ele>
        <time>2010-10-09T14:03:59Z</time>
      </trkpt>
      <trkpt lat="43.37779" lon="6.64514">
        <ele>86.148</ele>
        <time>2010-10-09T14:04:08Z</time>
      </trkpt>
      <trkpt lat="43.37763" lon="6.64527">
        <ele>86.544</ele>
        <time>2010-10-09T14:04:14Z</time>
      </trkpt>
      <trkpt lat="43.37754" lon="6.64542">
        <ele>87.65</ele>
        <time>2010-10-09T14:04:21Z</time>
      </trkpt>
      <trkpt lat="43.37745" lon="6.64557">
        <ele>89.85</ele>
        <time>2010-10-09T14:04:29Z</time>
      </trkpt>
      <trkpt lat="43.37736" lon="6.64573">
        <ele>91.165</ele>
        <time>2010-10-09T14:04:37Z</time>
      </trkpt>
      <trkpt lat="43.37717" lon="6.64587">
        <ele>91.925</ele>
        <time>2010-10-09T14:04:47Z</time>
      </trkpt>
      <trkpt lat="43.37691" lon="6.64596">
        <ele>93.24</ele>
        <time>2010-10-09T14:04:57Z</time>
      </trkpt>
      <trkpt lat="43.37669" lon="6.64596">
        <ele>95.412</ele>
        <time>2010-10-09T14:05:06Z</time>
      </trkpt>
      <trkpt lat="43.37648" lon="6.64581">
        <ele>96.032</ele>
        <time>2010-10-09T14:05:14Z</time>
      </trkpt>
      <trkpt lat="43.37645" lon="6.64579">
        <ele>95.756</ele>
        <time>2010-10-09T14:05:15Z</time>
      </trkpt>
      <trkpt lat="43.37612" lon="6.64576">
        <ele>94.27</ele>
        <time>2010-10-09T14:05:23Z</time>
      </trkpt>
      <trkpt lat="43.37579" lon="6.64591">
        <ele>93.253</ele>
        <time>2010-10-09T14:05:31Z</time>
      </trkpt>
      <trkpt lat="43.37564" lon="6.64604">
        <ele>92.795</ele>
        <time>2010-10-09T14:05:37Z</time>
      </trkpt>
      <trkpt lat="43.37562" lon="6.64604">
        <ele>92.578</ele>
        <time>2010-10-09T14:05:38Z</time>
      </trkpt>
      <trkpt lat="43.37558" lon="6.64607">
        <ele>92.681</ele>
        <time>2010-10-09T14:05:44Z</time>
      </trkpt>
      <trkpt lat="43.37543" lon="6.64618">
        <ele>92.215</ele>
        <time>2010-10-09T14:05:50Z</time>
      </trkpt>
      <trkpt lat="43.37505" lon="6.64648">
        <ele>93.205</ele>
        <time>2010-10-09T14:06:02Z</time>
      </trkpt>
      <trkpt lat="43.37479" lon="6.6467">
        <ele>95.197</ele>
        <time>2010-10-09T14:06:11Z</time>
      </trkpt>
      <trkpt lat="43.37453" lon="6.64689">
        <ele>95.082</ele>
        <time>2010-10-09T14:06:20Z</time>
      </trkpt>
      <trkpt lat="43.37431" lon="6.64706">
        <ele>97.267</ele>
        <time>2010-10-09T14:06:28Z</time>
      </trkpt>
      <trkpt lat="43.37413" lon="6.64721">
        <ele>97.552</ele>
        <time>2010-10-09T14:06:34Z</time>
      </trkpt>
      <trkpt lat="43.37381" lon="6.64747">
        <ele>97.289</ele>
        <time>2010-10-09T14:06:43Z</time>
      </trkpt>
      <trkpt lat="43.37374" lon="6.64754">
        <ele>96.904</ele>
        <time>2010-10-09T14:06:45Z</time>
      </trkpt>
      <trkpt lat="43.37354" lon="6.64765">
        <ele>97.753</ele>
        <time>2010-10-09T14:06:50Z</time>
      </trkpt>
      <trkpt lat="43.3732" lon="6.64767">
        <ele>99.397</ele>
        <time>2010-10-09T14:06:57Z</time>
      </trkpt>
      <trkpt lat="43.37306" lon="6.64771">
        <ele>99.314</ele>
        <time>2010-10-09T14:07:00Z</time>
      </trkpt>
      <trkpt lat="43.3728" lon="6.6477">
        <ele>98.764</ele>
        <time>2010-10-09T14:07:05Z</time>
      </trkpt>
      <trkpt lat="43.37256" lon="6.64743">
        <ele>100.383</ele>
        <time>2010-10-09T14:07:12Z</time>
      </trkpt>
      <trkpt lat="43.37233" lon="6.64703">
        <ele>100.546</ele>
        <time>2010-10-09T14:07:21Z</time>
      </trkpt>
      <trkpt lat="43.37212" lon="6.64693">
        <ele>100.686</ele>
        <time>2010-10-09T14:07:27Z</time>
      </trkpt>
      <trkpt lat="43.37208" lon="6.64695">
        <ele>100.97</ele>
        <time>2010-10-09T14:07:28Z</time>
      </trkpt>
      <trkpt lat="43.37178" lon="6.64704">
        <ele>102.123</ele>
        <time>2010-10-09T14:07:36Z</time>
      </trkpt>
      <trkpt lat="43.37167" lon="6.64714">
        <ele>103.391</ele>
        <time>2010-10-09T14:07:40Z</time>
      </trkpt>
      <trkpt lat="43.37136" lon="6.64725">
        <ele>104.06</ele>
        <time>2010-10-09T14:07:48Z</time>
      </trkpt>
      <trkpt lat="43.37127" lon="6.64727">
        <ele>103.617</ele>
        <time>2010-10-09T14:07:50Z</time>
      </trkpt>
      <trkpt lat="43.3709" lon="6.64749">
        <ele>104.693</ele>
        <time>2010-10-09T14:07:59Z</time>
      </trkpt>
      <trkpt lat="43.37051" lon="6.6477">
        <ele>104.693</ele>
        <time>2010-10-09T14:08:08Z</time>
      </trkpt>
      <trkpt lat="43.37032" lon="6.64774">
        <ele>105.023</ele>
        <time>2010-10-09T14:08:12Z</time>
      </trkpt>
      <trkpt lat="43.37013" lon="6.64772">
        <ele>105.508</ele>
        <time>2010-10-09T14:08:16Z</time>
      </trkpt>
      <trkpt lat="43.36991" lon="6.64764">
        <ele>106.075</ele>
        <time>2010-10-09T14:08:21Z</time>
      </trkpt>
      <trkpt lat="43.36964" lon="6.64756">
        <ele>104.946</ele>
        <time>2010-10-09T14:08:27Z</time>
      </trkpt>
      <trkpt lat="43.36937" lon="6.64761">
        <ele>106.713</ele>
        <time>2010-10-09T14:08:35Z</time>
      </trkpt>
      <trkpt lat="43.36914" lon="6.64773">
        <ele>107.422</ele>
        <time>2010-10-09T14:08:42Z</time>
      </trkpt>
      <trkpt lat="43.36893" lon="6.64784">
        <ele>109.578</ele>
        <time>2010-10-09T14:08:49Z</time>
      </trkpt>
      <trkpt lat="43.36878" lon="6.64804">
        <ele>109.769</ele>
        <time>2010-10-09T14:08:55Z</time>
      </trkpt>
      <trkpt lat="43.36874" lon="6.64812">
        <ele>109.676</ele>
        <time>2010-10-09T14:08:57Z</time>
      </trkpt>
      <trkpt lat="43.36872" lon="6.64824">
        <ele>110.261</ele>
        <time>2010-10-09T14:09:03Z</time>
      </trkpt>
      <trkpt lat="43.36871" lon="6.64826">
        <ele>110.035</ele>
        <time>2010-10-09T14:09:14Z</time>
      </trkpt>
      <trkpt lat="43.36871" lon="6.6483">
        <ele>110.623</ele>
        <time>2010-10-09T14:09:21Z</time>
      </trkpt>
      <trkpt lat="43.36867" lon="6.64846">
        <ele>111.477</ele>
        <time>2010-10-09T14:09:27Z</time>
      </trkpt>
      <trkpt lat="43.36864" lon="6.64852">
        <ele>111.986</ele>
        <time>2010-10-09T14:09:29Z</time>
      </trkpt>
      <trkpt lat="43.36848" lon="6.6486">
        <ele>112.704</ele>
        <time>2010-10-09T14:09:34Z</time>
      </trkpt>
      <trkpt lat="43.36812" lon="6.64872">
        <ele>113.239</ele>
        <time>2010-10-09T14:09:43Z</time>
      </trkpt>
      <trkpt lat="43.36787" lon="6.64876">
        <ele>114.118</ele>
        <time>2010-10-09T14:09:49Z</time>
      </trkpt>
      <trkpt lat="43.36774" lon="6.64878">
        <ele>114.924</ele>
        <time>2010-10-09T14:09:52Z</time>
      </trkpt>
      <trkpt lat="43.36739" lon="6.64878">
        <ele>115.614</ele>
        <time>2010-10-09T14:10:00Z</time>
      </trkpt>
      <trkpt lat="43.36722" lon="6.64881">
        <ele>115.684</ele>
        <time>2010-10-09T14:10:04Z</time>
      </trkpt>
      <trkpt lat="43.36694" lon="6.64892">
        <ele>117.252</ele>
        <time>2010-10-09T14:10:12Z</time>
      </trkpt>
      <trkpt lat="43.36688" lon="6.64896">
        <ele>117.619</ele>
        <time>2010-10-09T14:10:14Z</time>
      </trkpt>
      <trkpt lat="43.36653" lon="6.64915">
        <ele>119.064</ele>
        <time>2010-10-09T14:10:23Z</time>
      </trkpt>
      <trkpt lat="43.36617" lon="6.64933">
        <ele>119.979</ele>
        <time>2010-10-09T14:10:32Z</time>
      </trkpt>
      <trkpt lat="43.36594" lon="6.64949">
        <ele>120.286</ele>
        <time>2010-10-09T14:10:39Z</time>
      </trkpt>
      <trkpt lat="43.36575" lon="6.64965">
        <ele>121.255</ele>
        <time>2010-10-09T14:10:45Z</time>
      </trkpt>
      <trkpt lat="43.36564" lon="6.64986">
        <ele>123.514</ele>
        <time>2010-10-09T14:10:52Z</time>
      </trkpt>
      <trkpt lat="43.36563" lon="6.65017">
        <ele>123.995</ele>
        <time>2010-10-09T14:10:58Z</time>
      </trkpt>
      <trkpt lat="43.36563" lon="6.65023">
        <ele>123.683</ele>
        <time>2010-10-09T14:10:59Z</time>
      </trkpt>
      <trkpt lat="43.36566" lon="6.6507">
        <ele>123.72</ele>
        <time>2010-10-09T14:11:09Z</time>
      </trkpt>
      <trkpt lat="43.36568" lon="6.65076">
        <ele>123.608</ele>
        <time>2010-10-09T14:11:15Z</time>
      </trkpt>
      <trkpt lat="43.36568" lon="6.65078">
        <ele>123.445</ele>
        <time>2010-10-09T14:11:25Z</time>
      </trkpt>
      <trkpt lat="43.36568" lon="6.65085">
        <ele>123.567</ele>
        <time>2010-10-09T14:12:09Z</time>
      </trkpt>
      <trkpt lat="43.36572" lon="6.65102">
        <ele>124.052</ele>
        <time>2010-10-09T14:12:16Z</time>
      </trkpt>
      <trkpt lat="43.36579" lon="6.6513">
        <ele>125.632</ele>
        <time>2010-10-09T14:12:24Z</time>
      </trkpt>
      <trkpt lat="43.36583" lon="6.6516">
        <ele>126.596</ele>
        <time>2010-10-09T14:12:31Z</time>
      </trkpt>
      <trkpt lat="43.36584" lon="6.65177">
        <ele>128.006</ele>
        <time>2010-10-09T14:12:35Z</time>
      </trkpt>
      <trkpt lat="43.36585" lon="6.65217">
        <ele>127.857</ele>
        <time>2010-10-09T14:12:43Z</time>
      </trkpt>
      <trkpt lat="43.36582" lon="6.65251">
        <ele>128.776</ele>
        <time>2010-10-09T14:12:50Z</time>
      </trkpt>
      <trkpt lat="43.36579" lon="6.65277">
        <ele>129.749</ele>
        <time>2010-10-09T14:12:56Z</time>
      </trkpt>
      <trkpt lat="43.36583" lon="6.65305">
        <ele>130.81</ele>
        <time>2010-10-09T14:13:03Z</time>
      </trkpt>
      <trkpt lat="43.36593" lon="6.65331">
        <ele>131.213</ele>
        <time>2010-10-09T14:13:11Z</time>
      </trkpt>
      <trkpt lat="43.36593" lon="6.65381">
        <ele>131.737</ele>
        <time>2010-10-09T14:13:22Z</time>
      </trkpt>
      <trkpt lat="43.36596" lon="6.65409">
        <ele>132.942</ele>
        <time>2010-10-09T14:13:28Z</time>
      </trkpt>
      <trkpt lat="43.36597" lon="6.65425">
        <ele>132.799</ele>
        <time>2010-10-09T14:13:31Z</time>
      </trkpt>
      <trkpt lat="43.36598" lon="6.65463">
        <ele>132.614</ele>
        <time>2010-10-09T14:13:38Z</time>
      </trkpt>
      <trkpt lat="43.36604" lon="6.65478">
        <ele>133.844</ele>
        <time>2010-10-09T14:13:44Z</time>
      </trkpt>
      <trkpt lat="43.36611" lon="6.65506">
        <ele>137.026</ele>
        <time>2010-10-09T14:13:52Z</time>
      </trkpt>
      <trkpt lat="43.36614" lon="6.65519">
        <ele>138.516</ele>
        <time>2010-10-09T14:13:55Z</time>
      </trkpt>
      <trkpt lat="43.3661" lon="6.65551">
        <ele>139.245</ele>
        <time>2010-10-09T14:14:02Z</time>
      </trkpt>
      <trkpt lat="43.36609" lon="6.65583">
        <ele>138.882</ele>
        <time>2010-10-09T14:14:09Z</time>
      </trkpt>
      <trkpt lat="43.36613" lon="6.65603">
        <ele>140.199</ele>
        <time>2010-10-09T14:14:15Z</time>
      </trkpt>
      <trkpt lat="43.36617" lon="6.6562">
        <ele>143.529</ele>
        <time>2010-10-09T14:14:21Z</time>
      </trkpt>
      <trkpt lat="43.3663" lon="6.65653">
        <ele>144.327</ele>
        <time>2010-10-09T14:14:30Z</time>
      </trkpt>
      <trkpt lat="43.3665" lon="6.65687">
        <ele>145.384</ele>
        <time>2010-10-09T14:14:39Z</time>
      </trkpt>
      <trkpt lat="43.36663" lon="6.65718">
        <ele>146.218</ele>
        <time>2010-10-09T14:14:48Z</time>
      </trkpt>
      <trkpt lat="43.36677" lon="6.65743">
        <ele>148.185</ele>
        <time>2010-10-09T14:14:56Z</time>
      </trkpt>
      <trkpt lat="43.3668" lon="6.65769">
        <ele>150.414</ele>
        <time>2010-10-09T14:15:03Z</time>
      </trkpt>
      <trkpt lat="43.3667" lon="6.65793">
        <ele>151.413</ele>
        <time>2010-10-09T14:15:10Z</time>
      </trkpt>
      <trkpt lat="43.36657" lon="6.65816">
        <ele>153.073</ele>
        <time>2010-10-09T14:15:18Z</time>
      </trkpt>
      <trkpt lat="43.36651" lon="6.65841">
        <ele>154.059</ele>
        <time>2010-10-09T14:15:25Z</time>
      </trkpt>
      <trkpt lat="43.3665" lon="6.65865">
        <ele>154.736</ele>
        <time>2010-10-09T14:15:32Z</time>
      </trkpt>
      <trkpt lat="43.36657" lon="6.65873">
        <ele>155.297</ele>
        <time>2010-10-09T14:15:38Z</time>
      </trkpt>
      <trkpt lat="43.36667" lon="6.65871">
        <ele>156.111</ele>
        <time>2010-10-09T14:15:45Z</time>
      </trkpt>
      <trkpt lat="43.36684" lon="6.65862">
        <ele>157.823</ele>
        <time>2010-10-09T14:15:55Z</time>
      </trkpt>
      <trkpt lat="43.36698" lon="6.65858">
        <ele>159.247</ele>
        <time>2010-10-09T14:16:02Z</time>
      </trkpt>
      <trkpt lat="43.36703" lon="6.65859">
        <ele>160.133</ele>
        <time>2010-10-09T14:16:04Z</time>
      </trkpt>
      <trkpt lat="43.36714" lon="6.65876">
        <ele>162.019</ele>
        <time>2010-10-09T14:16:12Z</time>
      </trkpt>
      <trkpt lat="43.36719" lon="6.65888">
        <ele>163.308</ele>
        <time>2010-10-09T14:16:19Z</time>
      </trkpt>
      <trkpt lat="43.36726" lon="6.6591">
        <ele>165.668</ele>
        <time>2010-10-09T14:16:30Z</time>
      </trkpt>
      <trkpt lat="43.36733" lon="6.65924">
        <ele>166.039</ele>
        <time>2010-10-09T14:16:39Z</time>
      </trkpt>
      <trkpt lat="43.36733" lon="6.65926">
        <ele>166.544</ele>
        <time>2010-10-09T14:16:40Z</time>
      </trkpt>
      <trkpt lat="43.36736" lon="6.65948">
        <ele>168.778</ele>
        <time>2010-10-09T14:16:51Z</time>
      </trkpt>
      <trkpt lat="43.36738" lon="6.65961">
        <ele>170.012</ele>
        <time>2010-10-09T14:16:57Z</time>
      </trkpt>
      <trkpt lat="43.36743" lon="6.65977">
        <ele>171.971</ele>
        <time>2010-10-09T14:17:04Z</time>
      </trkpt>
      <trkpt lat="43.36747" lon="6.66">
        <ele>172.718</ele>
        <time>2010-10-09T14:17:11Z</time>
      </trkpt>
      <trkpt lat="43.36751" lon="6.6602">
        <ele>172.748</ele>
        <time>2010-10-09T14:17:18Z</time>
      </trkpt>
      <trkpt lat="43.36756" lon="6.66027">
        <ele>173.74</ele>
        <time>2010-10-09T14:17:22Z</time>
      </trkpt>
      <trkpt lat="43.36757" lon="6.6606">
        <ele>176.486</ele>
        <time>2010-10-09T14:17:32Z</time>
      </trkpt>
      <trkpt lat="43.36755" lon="6.66093">
        <ele>178.535</ele>
        <time>2010-10-09T14:17:44Z</time>
      </trkpt>
      <trkpt lat="43.36756" lon="6.66117">
        <ele>180.204</ele>
        <time>2010-10-09T14:17:55Z</time>
      </trkpt>
      <trkpt lat="43.36759" lon="6.66124">
        <ele>180.66</ele>
        <time>2010-10-09T14:17:59Z</time>
      </trkpt>
      <trkpt lat="43.36764" lon="6.66129">
        <ele>181.656</ele>
        <time>2010-10-09T14:18:04Z</time>
      </trkpt>
      <trkpt lat="43.36767" lon="6.66123">
        <ele>181.744</ele>
        <time>2010-10-09T14:18:15Z</time>
      </trkpt>
      <trkpt lat="43.36768" lon="6.66123">
        <ele>181.63</ele>
        <time>2010-10-09T14:19:12Z</time>
      </trkpt>
      <trkpt lat="43.36772" lon="6.66125">
        <ele>182.255</ele>
        <time>2010-10-09T14:19:19Z</time>
      </trkpt>
      <trkpt lat="43.3677" lon="6.66123">
        <ele>181.649</ele>
        <time>2010-10-09T14:20:07Z</time>
      </trkpt>
      <trkpt lat="43.36768" lon="6.66121">
        <ele>181.563</ele>
        <time>2010-10-09T14:20:15Z</time>
      </trkpt>
      <trkpt lat="43.36768" lon="6.6612">
        <ele>180.954</ele>
        <time>2010-10-09T14:22:45Z</time>
      </trkpt>
      <trkpt lat="43.36768" lon="6.66123">
        <ele>181.103</ele>
        <time>2010-10-09T14:22:47Z</time>
      </trkpt>
      <trkpt lat="43.36762" lon="6.66138">
        <ele>182.219</ele>
        <time>2010-10-09T14:22:58Z</time>
      </trkpt>
      <trkpt lat="43.36756" lon="6.66142">
        <ele>181.576</ele>
        <time>2010-10-09T14:23:07Z</time>
      </trkpt>
      <trkpt lat="43.36756" lon="6.66141">
        <ele>180.458</ele>
        <time>2010-10-09T14:27:23Z</time>
      </trkpt>
      <trkpt lat="43.36749" lon="6.66147">
        <ele>180.7</ele>
        <time>2010-10-09T14:27:29Z</time>
      </trkpt>
      <trkpt lat="43.36746" lon="6.66152">
        <ele>181.137</ele>
        <time>2010-10-09T14:27:31Z</time>
      </trkpt>
      <trkpt lat="43.36735" lon="6.66171">
        <ele>181.966</ele>
        <time>2010-10-09T14:27:38Z</time>
      </trkpt>
      <trkpt lat="43.3673" lon="6.66188">
        <ele>182.697</ele>
        <time>2010-10-09T14:27:45Z</time>
      </trkpt>
      <trkpt lat="43.36721" lon="6.66208">
        <ele>183.686</ele>
        <time>2010-10-09T14:27:55Z</time>
      </trkpt>
      <trkpt lat="43.36714" lon="6.66223">
        <ele>184.466</ele>
        <time>2010-10-09T14:28:04Z</time>
      </trkpt>
      <trkpt lat="43.3671" lon="6.66235">
        <ele>184.38</ele>
        <time>2010-10-09T14:28:13Z</time>
      </trkpt>
      <trkpt lat="43.36708" lon="6.66239">
        <ele>184.773</ele>
        <time>2010-10-09T14:28:16Z</time>
      </trkpt>
      <trkpt lat="43.36698" lon="6.66246">
        <ele>185.531</ele>
        <time>2010-10-09T14:28:26Z</time>
      </trkpt>
      <trkpt lat="43.36694" lon="6.66246">
        <ele>185.743</ele>
        <time>2010-10-09T14:28:30Z</time>
      </trkpt>
      <trkpt lat="43.36688" lon="6.66246">
        <ele>185.912</ele>
        <time>2010-10-09T14:28:36Z</time>
      </trkpt>
      <trkpt lat="43.36685" lon="6.66248">
        <ele>186.206</ele>
        <time>2010-10-09T14:28:53Z</time>
      </trkpt>
      <trkpt lat="43.36684" lon="6.66248">
        <ele>186.233</ele>
        <time>2010-10-09T14:28:59Z</time>
      </trkpt>
      <trkpt lat="43.36685" lon="6.66246">
        <ele>186.301</ele>
        <time>2010-10-09T14:29:01Z</time>
      </trkpt>
      <trkpt lat="43.3669" lon="6.66235">
        <ele>186.549</ele>
        <time>2010-10-09T14:29:13Z</time>
      </trkpt>
      <trkpt lat="43.36691" lon="6.66235">
        <ele>185.743</ele>
        <time>2010-10-09T14:29:32Z</time>
      </trkpt>
      <trkpt lat="43.36689" lon="6.66236">
        <ele>185.719</ele>
        <time>2010-10-09T14:35:17Z</time>
      </trkpt>
      <trkpt lat="43.36689" lon="6.66238">
        <ele>185.457</ele>
        <time>2010-10-09T14:35:20Z</time>
      </trkpt>
      <trkpt lat="43.36689" lon="6.66244">
        <ele>185.166</ele>
        <time>2010-10-09T14:35:26Z</time>
      </trkpt>
      <trkpt lat="43.36696" lon="6.66252">
        <ele>184.767</ele>
        <time>2010-10-09T14:35:32Z</time>
      </trkpt>
      <trkpt lat="43.36695" lon="6.66262">
        <ele>184.237</ele>
        <time>2010-10-09T14:35:35Z</time>
      </trkpt>
      <trkpt lat="43.36693" lon="6.66278">
        <ele>183.019</ele>
        <time>2010-10-09T14:35:39Z</time>
      </trkpt>
      <trkpt lat="43.36683" lon="6.66287">
        <ele>180.625</ele>
        <time>2010-10-09T14:35:44Z</time>
      </trkpt>
      <trkpt lat="43.36675" lon="6.66291">
        <ele>179.233</ele>
        <time>2010-10-09T14:35:47Z</time>
      </trkpt>
      <trkpt lat="43.3667" lon="6.66321">
        <ele>176.361</ele>
        <time>2010-10-09T14:35:52Z</time>
      </trkpt>
      <trkpt lat="43.36671" lon="6.66332">
        <ele>175.845</ele>
        <time>2010-10-09T14:35:54Z</time>
      </trkpt>
      <trkpt lat="43.36668" lon="6.66367">
        <ele>173.866</ele>
        <time>2010-10-09T14:36:00Z</time>
      </trkpt>
      <trkpt lat="43.36671" lon="6.66379">
        <ele>173.511</ele>
        <time>2010-10-09T14:36:02Z</time>
      </trkpt>
      <trkpt lat="43.36674" lon="6.66412">
        <ele>172.078</ele>
        <time>2010-10-09T14:36:08Z</time>
      </trkpt>
      <trkpt lat="43.36676" lon="6.66419">
        <ele>171.285</ele>
        <time>2010-10-09T14:36:10Z</time>
      </trkpt>
      <trkpt lat="43.36681" lon="6.66431">
        <ele>169.1</ele>
        <time>2010-10-09T14:36:14Z</time>
      </trkpt>
      <trkpt lat="43.36683" lon="6.66443">
        <ele>166.571</ele>
        <time>2010-10-09T14:36:18Z</time>
      </trkpt>
      <trkpt lat="43.36684" lon="6.66467">
        <ele>162.615</ele>
        <time>2010-10-09T14:36:25Z</time>
      </trkpt>
      <trkpt lat="43.36685" lon="6.66469">
        <ele>161.936</ele>
        <time>2010-10-09T14:36:26Z</time>
      </trkpt>
      <trkpt lat="43.36689" lon="6.66485">
        <ele>158.977</ele>
        <time>2010-10-09T14:36:32Z</time>
      </trkpt>
      <trkpt lat="43.36693" lon="6.66497">
        <ele>156.44</ele>
        <time>2010-10-09T14:36:35Z</time>
      </trkpt>
      <trkpt lat="43.36693" lon="6.66508">
        <ele>154.392</ele>
        <time>2010-10-09T14:36:38Z</time>
      </trkpt>
      <trkpt lat="43.36695" lon="6.66514">
        <ele>152.767</ele>
        <time>2010-10-09T14:36:40Z</time>
      </trkpt>
      <trkpt lat="43.367" lon="6.66538">
        <ele>149.205</ele>
        <time>2010-10-09T14:36:46Z</time>
      </trkpt>
      <trkpt lat="43.36701" lon="6.66542">
        <ele>148.476</ele>
        <time>2010-10-09T14:36:47Z</time>
      </trkpt>
      <trkpt lat="43.36701" lon="6.66554">
        <ele>147.591</ele>
        <time>2010-10-09T14:36:49Z</time>
      </trkpt>
      <trkpt lat="43.36708" lon="6.66575">
        <ele>145.442</ele>
        <time>2010-10-09T14:36:53Z</time>
      </trkpt>
      <trkpt lat="43.36709" lon="6.6658">
        <ele>145.296</ele>
        <time>2010-10-09T14:36:54Z</time>
      </trkpt>
      <trkpt lat="43.3671" lon="6.66585">
        <ele>144.659</ele>
        <time>2010-10-09T14:36:55Z</time>
      </trkpt>
      <trkpt lat="43.36723" lon="6.66607">
        <ele>142.621</ele>
        <time>2010-10-09T14:37:00Z</time>
      </trkpt>
      <trkpt lat="43.36726" lon="6.66613">
        <ele>141.849</ele>
        <time>2010-10-09T14:37:01Z</time>
      </trkpt>
      <trkpt lat="43.36728" lon="6.66639">
        <ele>137.207</ele>
        <time>2010-10-09T14:37:05Z</time>
      </trkpt>
      <trkpt lat="43.3673" lon="6.66654">
        <ele>134.147</ele>
        <time>2010-10-09T14:37:07Z</time>
      </trkpt>
      <trkpt lat="43.36731" lon="6.66662">
        <ele>132.862</ele>
        <time>2010-10-09T14:37:08Z</time>
      </trkpt>
      <trkpt lat="43.36734" lon="6.66696">
        <ele>127.356</ele>
        <time>2010-10-09T14:37:12Z</time>
      </trkpt>
      <trkpt lat="43.36731" lon="6.66727">
        <ele>125.049</ele>
        <time>2010-10-09T14:37:16Z</time>
      </trkpt>
      <trkpt lat="43.36734" lon="6.66751">
        <ele>123.581</ele>
        <time>2010-10-09T14:37:19Z</time>
      </trkpt>
      <trkpt lat="43.36734" lon="6.66775">
        <ele>122.221</ele>
        <time>2010-10-09T14:37:22Z</time>
      </trkpt>
      <trkpt lat="43.36735" lon="6.66805">
        <ele>121.023</ele>
        <time>2010-10-09T14:37:26Z</time>
      </trkpt>
      <trkpt lat="43.36737" lon="6.66813">
        <ele>120.723</ele>
        <time>2010-10-09T14:37:27Z</time>
      </trkpt>
      <trkpt lat="43.36733" lon="6.6684">
        <ele>118.163</ele>
        <time>2010-10-09T14:37:30Z</time>
      </trkpt>
      <trkpt lat="43.36729" lon="6.66853">
        <ele>117.433</ele>
        <time>2010-10-09T14:37:32Z</time>
      </trkpt>
      <trkpt lat="43.36721" lon="6.66866">
        <ele>116.192</ele>
        <time>2010-10-09T14:37:34Z</time>
      </trkpt>
      <trkpt lat="43.36701" lon="6.66867">
        <ele>114.044</ele>
        <time>2010-10-09T14:37:38Z</time>
      </trkpt>
      <trkpt lat="43.36698" lon="6.66867">
        <ele>113.454</ele>
        <time>2010-10-09T14:37:39Z</time>
      </trkpt>
      <trkpt lat="43.36697" lon="6.66881">
        <ele>111.915</ele>
        <time>2010-10-09T14:37:43Z</time>
      </trkpt>
      <trkpt lat="43.36698" lon="6.66888">
        <ele>113.24</ele>
        <time>2010-10-09T14:37:46Z</time>
      </trkpt>
      <trkpt lat="43.36702" lon="6.66913">
        <ele>115.02</ele>
        <time>2010-10-09T14:37:54Z</time>
      </trkpt>
      <trkpt lat="43.36705" lon="6.66927">
        <ele>116.921</ele>
        <time>2010-10-09T14:37:57Z</time>
      </trkpt>
      <trkpt lat="43.36705" lon="6.66936">
        <ele>117.612</ele>
        <time>2010-10-09T14:37:59Z</time>
      </trkpt>
      <trkpt lat="43.36709" lon="6.66984">
        <ele>120.414</ele>
        <time>2010-10-09T14:38:10Z</time>
      </trkpt>
      <trkpt lat="43.36708" lon="6.66988">
        <ele>120.364</ele>
        <time>2010-10-09T14:38:11Z</time>
      </trkpt>
      <trkpt lat="43.36701" lon="6.67018">
        <ele>120.934</ele>
        <time>2010-10-09T14:38:18Z</time>
      </trkpt>
      <trkpt lat="43.36693" lon="6.67052">
        <ele>119.091</ele>
        <time>2010-10-09T14:38:25Z</time>
      </trkpt>
      <trkpt lat="43.36688" lon="6.67068">
        <ele>118.752</ele>
        <time>2010-10-09T14:38:28Z</time>
      </trkpt>
      <trkpt lat="43.36683" lon="6.6709">
        <ele>118.725</ele>
        <time>2010-10-09T14:38:32Z</time>
      </trkpt>
      <trkpt lat="43.36689" lon="6.67115">
        <ele>115.491</ele>
        <time>2010-10-09T14:38:36Z</time>
      </trkpt>
      <trkpt lat="43.36691" lon="6.67141">
        <ele>113.21</ele>
        <time>2010-10-09T14:38:39Z</time>
      </trkpt>
      <trkpt lat="43.36691" lon="6.67181">
        <ele>109.719</ele>
        <time>2010-10-09T14:38:43Z</time>
      </trkpt>
      <trkpt lat="43.36688" lon="6.67208">
        <ele>109.339</ele>
        <time>2010-10-09T14:38:47Z</time>
      </trkpt>
      <trkpt lat="43.36676" lon="6.6722">
        <ele>108.633</ele>
        <time>2010-10-09T14:38:51Z</time>
      </trkpt>
      <trkpt lat="43.36669" lon="6.67221">
        <ele>108.342</ele>
        <time>2010-10-09T14:38:53Z</time>
      </trkpt>
      <trkpt lat="43.36661" lon="6.67241">
        <ele>106.061</ele>
        <time>2010-10-09T14:38:57Z</time>
      </trkpt>
      <trkpt lat="43.36659" lon="6.6727">
        <ele>105.773</ele>
        <time>2010-10-09T14:39:01Z</time>
      </trkpt>
      <trkpt lat="43.36651" lon="6.67292">
        <ele>104.462</ele>
        <time>2010-10-09T14:39:05Z</time>
      </trkpt>
      <trkpt lat="43.36652" lon="6.67306">
        <ele>104.008</ele>
        <time>2010-10-09T14:39:10Z</time>
      </trkpt>
      <trkpt lat="43.36655" lon="6.67309">
        <ele>104.257</ele>
        <time>2010-10-09T14:39:11Z</time>
      </trkpt>
      <trkpt lat="43.36673" lon="6.67323">
        <ele>105.24</ele>
        <time>2010-10-09T14:39:16Z</time>
      </trkpt>
      <trkpt lat="43.36696" lon="6.67346">
        <ele>108.368</ele>
        <time>2010-10-09T14:39:22Z</time>
      </trkpt>
      <trkpt lat="43.36704" lon="6.67377">
        <ele>109.973</ele>
        <time>2010-10-09T14:39:27Z</time>
      </trkpt>
      <trkpt lat="43.36705" lon="6.67403">
        <ele>110.862</ele>
        <time>2010-10-09T14:39:31Z</time>
      </trkpt>
      <trkpt lat="43.36706" lon="6.67415">
        <ele>111.518</ele>
        <time>2010-10-09T14:39:33Z</time>
      </trkpt>
      <trkpt lat="43.36709" lon="6.67426">
        <ele>110.852</ele>
        <time>2010-10-09T14:39:35Z</time>
      </trkpt>
      <trkpt lat="43.36721" lon="6.67464">
        <ele>110.163</ele>
        <time>2010-10-09T14:39:41Z</time>
      </trkpt>
      <trkpt lat="43.36733" lon="6.67494">
        <ele>110.075</ele>
        <time>2010-10-09T14:39:46Z</time>
      </trkpt>
      <trkpt lat="43.3675" lon="6.67535">
        <ele>110.545</ele>
        <time>2010-10-09T14:39:54Z</time>
      </trkpt>
      <trkpt lat="43.36761" lon="6.67571">
        <ele>110.849</ele>
        <time>2010-10-09T14:40:02Z</time>
      </trkpt>
      <trkpt lat="43.36764" lon="6.6758">
        <ele>111.046</ele>
        <time>2010-10-09T14:40:04Z</time>
      </trkpt>
      <trkpt lat="43.36761" lon="6.67615">
        <ele>113.658</ele>
        <time>2010-10-09T14:40:12Z</time>
      </trkpt>
      <trkpt lat="43.3676" lon="6.67628">
        <ele>115.069</ele>
        <time>2010-10-09T14:40:16Z</time>
      </trkpt>
      <trkpt lat="43.36754" lon="6.67644">
        <ele>116.69</ele>
        <time>2010-10-09T14:40:21Z</time>
      </trkpt>
      <trkpt lat="43.36751" lon="6.67665">
        <ele>119.094</ele>
        <time>2010-10-09T14:40:27Z</time>
      </trkpt>
      <trkpt lat="43.36752" lon="6.67674">
        <ele>120.424</ele>
        <time>2010-10-09T14:40:30Z</time>
      </trkpt>
      <trkpt lat="43.36747" lon="6.67688">
        <ele>121.434</ele>
        <time>2010-10-09T14:40:37Z</time>
      </trkpt>
      <trkpt lat="43.36745" lon="6.67692">
        <ele>122.212</ele>
        <time>2010-10-09T14:40:45Z</time>
      </trkpt>
      <trkpt lat="43.36744" lon="6.67694">
        <ele>121.573</ele>
        <time>2010-10-09T14:40:53Z</time>
      </trkpt>
      <trkpt lat="43.36745" lon="6.67694">
        <ele>122.13</ele>
        <time>2010-10-09T14:42:21Z</time>
      </trkpt>
      <trkpt lat="43.36745" lon="6.67696">
        <ele>121.494</ele>
        <time>2010-10-09T14:43:26Z</time>
      </trkpt>
      <trkpt lat="43.36747" lon="6.67706">
        <ele>122.03</ele>
        <time>2010-10-09T14:43:31Z</time>
      </trkpt>
      <trkpt lat="43.36751" lon="6.67716">
        <ele>123.07</ele>
        <time>2010-10-09T14:43:36Z</time>
      </trkpt>
      <trkpt lat="43.36754" lon="6.67741">
        <ele>125.484</ele>
        <time>2010-10-09T14:43:45Z</time>
      </trkpt>
      <trkpt lat="43.36758" lon="6.6776">
        <ele>126.977</ele>
        <time>2010-10-09T14:43:52Z</time>
      </trkpt>
      <trkpt lat="43.36761" lon="6.67775">
        <ele>129.478</ele>
        <time>2010-10-09T14:43:58Z</time>
      </trkpt>
      <trkpt lat="43.36763" lon="6.67789">
        <ele>130.535</ele>
        <time>2010-10-09T14:44:03Z</time>
      </trkpt>
      <trkpt lat="43.36765" lon="6.67802">
        <ele>132.662</ele>
        <time>2010-10-09T14:44:09Z</time>
      </trkpt>
      <trkpt lat="43.36765" lon="6.6781">
        <ele>134.189</ele>
        <time>2010-10-09T14:44:13Z</time>
      </trkpt>
      <trkpt lat="43.36771" lon="6.67824">
        <ele>135.83</ele>
        <time>2010-10-09T14:44:19Z</time>
      </trkpt>
      <trkpt lat="43.36771" lon="6.67838">
        <ele>137.675</ele>
        <time>2010-10-09T14:44:25Z</time>
      </trkpt>
      <trkpt lat="43.3677" lon="6.67844">
        <ele>138.795</ele>
        <time>2010-10-09T14:44:28Z</time>
      </trkpt>
      <trkpt lat="43.36768" lon="6.67851">
        <ele>140.157</ele>
        <time>2010-10-09T14:44:32Z</time>
      </trkpt>
      <trkpt lat="43.36768" lon="6.67869">
        <ele>143.155</ele>
        <time>2010-10-09T14:44:41Z</time>
      </trkpt>
      <trkpt lat="43.36767" lon="6.67877">
        <ele>144.661</ele>
        <time>2010-10-09T14:44:45Z</time>
      </trkpt>
      <trkpt lat="43.36769" lon="6.67895">
        <ele>147.597</ele>
        <time>2010-10-09T14:44:54Z</time>
      </trkpt>
      <trkpt lat="43.3677" lon="6.67902">
        <ele>148.742</ele>
        <time>2010-10-09T14:44:58Z</time>
      </trkpt>
      <trkpt lat="43.36772" lon="6.67912">
        <ele>150.618</ele>
        <time>2010-10-09T14:45:03Z</time>
      </trkpt>
      <trkpt lat="43.36772" lon="6.67924">
        <ele>152.459</ele>
        <time>2010-10-09T14:45:09Z</time>
      </trkpt>
      <trkpt lat="43.36771" lon="6.67942">
        <ele>153.684</ele>
        <time>2010-10-09T14:45:20Z</time>
      </trkpt>
      <trkpt lat="43.36769" lon="6.6795">
        <ele>154.509</ele>
        <time>2010-10-09T14:45:28Z</time>
      </trkpt>
      <trkpt lat="43.36767" lon="6.6795">
        <ele>154.344</ele>
        <time>2010-10-09T14:45:32Z</time>
      </trkpt>
      <trkpt lat="43.36765" lon="6.67954">
        <ele>154.319</ele>
        <time>2010-10-09T14:45:38Z</time>
      </trkpt>
      <trkpt lat="43.36765" lon="6.67954">
        <ele>154.276</ele>
        <time>2010-10-09T14:45:50Z</time>
      </trkpt>
      <trkpt lat="43.36765" lon="6.67954">
        <ele>154.536</ele>
        <time>2010-10-09T14:48:13Z</time>
      </trkpt>
      <trkpt lat="43.36759" lon="6.67976">
        <ele>153.829</ele>
        <time>2010-10-09T14:48:20Z</time>
      </trkpt>
      <trkpt lat="43.36757" lon="6.67981">
        <ele>153.98</ele>
        <time>2010-10-09T14:48:21Z</time>
      </trkpt>
      <trkpt lat="43.36741" lon="6.67998">
        <ele>152.755</ele>
        <time>2010-10-09T14:48:26Z</time>
      </trkpt>
      <trkpt lat="43.36736" lon="6.67999">
        <ele>152.509</ele>
        <time>2010-10-09T14:48:27Z</time>
      </trkpt>
      <trkpt lat="43.36704" lon="6.68014">
        <ele>153.439</ele>
        <time>2010-10-09T14:48:36Z</time>
      </trkpt>
      <trkpt lat="43.36699" lon="6.68041">
        <ele>153.948</ele>
        <time>2010-10-09T14:48:42Z</time>
      </trkpt>
      <trkpt lat="43.36706" lon="6.68075">
        <ele>155.226</ele>
        <time>2010-10-09T14:48:50Z</time>
      </trkpt>
      <trkpt lat="43.36723" lon="6.68115">
        <ele>156.051</ele>
        <time>2010-10-09T14:49:00Z</time>
      </trkpt>
      <trkpt lat="43.36722" lon="6.68144">
        <ele>156.402</ele>
        <time>2010-10-09T14:49:06Z</time>
      </trkpt>
      <trkpt lat="43.36717" lon="6.68161">
        <ele>156.229</ele>
        <time>2010-10-09T14:49:09Z</time>
      </trkpt>
      <trkpt lat="43.36694" lon="6.682">
        <ele>155.104</ele>
        <time>2010-10-09T14:49:18Z</time>
      </trkpt>
      <trkpt lat="43.36671" lon="6.68224">
        <ele>155.086</ele>
        <time>2010-10-09T14:49:26Z</time>
      </trkpt>
      <trkpt lat="43.36648" lon="6.68241">
        <ele>154.293</ele>
        <time>2010-10-09T14:49:33Z</time>
      </trkpt>
      <trkpt lat="43.36627" lon="6.68237">
        <ele>153.665</ele>
        <time>2010-10-09T14:49:38Z</time>
      </trkpt>
      <trkpt lat="43.36593" lon="6.68215">
        <ele>154.302</ele>
        <time>2010-10-09T14:49:45Z</time>
      </trkpt>
      <trkpt lat="43.36575" lon="6.68203">
        <ele>154.601</ele>
        <time>2010-10-09T14:49:48Z</time>
      </trkpt>
      <trkpt lat="43.36557" lon="6.68188">
        <ele>154.68</ele>
        <time>2010-10-09T14:49:51Z</time>
      </trkpt>
      <trkpt lat="43.36533" lon="6.68147">
        <ele>155.121</ele>
        <time>2010-10-09T14:49:57Z</time>
      </trkpt>
      <trkpt lat="43.36503" lon="6.68133">
        <ele>154.918</ele>
        <time>2010-10-09T14:50:02Z</time>
      </trkpt>
      <trkpt lat="43.36465" lon="6.6812">
        <ele>154.052</ele>
        <time>2010-10-09T14:50:08Z</time>
      </trkpt>
      <trkpt lat="43.36442" lon="6.68133">
        <ele>154.106</ele>
        <time>2010-10-09T14:50:12Z</time>
      </trkpt>
      <trkpt lat="43.36439" lon="6.68153">
        <ele>154.431</ele>
        <time>2010-10-09T14:50:14Z</time>
      </trkpt>
      <trkpt lat="43.36439" lon="6.68185">
        <ele>155.46</ele>
        <time>2010-10-09T14:50:17Z</time>
      </trkpt>
      <trkpt lat="43.36447" lon="6.68259">
        <ele>155.737</ele>
        <time>2010-10-09T14:50:24Z</time>
      </trkpt>
      <trkpt lat="43.36439" lon="6.68308">
        <ele>154.951</ele>
        <time>2010-10-09T14:50:29Z</time>
      </trkpt>
      <trkpt lat="43.36417" lon="6.68334">
        <ele>153.535</ele>
        <time>2010-10-09T14:50:33Z</time>
      </trkpt>
      <trkpt lat="43.36377" lon="6.68353">
        <ele>153.506</ele>
        <time>2010-10-09T14:50:39Z</time>
      </trkpt>
      <trkpt lat="43.36353" lon="6.68378">
        <ele>152.402</ele>
        <time>2010-10-09T14:50:44Z</time>
      </trkpt>
      <trkpt lat="43.36342" lon="6.68405">
        <ele>154.43</ele>
        <time>2010-10-09T14:50:52Z</time>
      </trkpt>
      <trkpt lat="43.3634" lon="6.68414">
        <ele>153.737</ele>
        <time>2010-10-09T14:50:59Z</time>
      </trkpt>
      <trkpt lat="43.36339" lon="6.6842">
        <ele>154.202</ele>
        <time>2010-10-09T14:51:03Z</time>
      </trkpt>
      <trkpt lat="43.36337" lon="6.68429">
        <ele>153.319</ele>
        <time>2010-10-09T14:51:05Z</time>
      </trkpt>
      <trkpt lat="43.36341" lon="6.68443">
        <ele>154.733</ele>
        <time>2010-10-09T14:51:08Z</time>
      </trkpt>
      <trkpt lat="43.36344" lon="6.68451">
        <ele>156.055</ele>
        <time>2010-10-09T14:51:10Z</time>
      </trkpt>
      <trkpt lat="43.36375" lon="6.68486">
        <ele>158.074</ele>
        <time>2010-10-09T14:51:20Z</time>
      </trkpt>
      <trkpt lat="43.36386" lon="6.68507">
        <ele>158.875</ele>
        <time>2010-10-09T14:51:27Z</time>
      </trkpt>
      <trkpt lat="43.36407" lon="6.68534">
        <ele>159.854</ele>
        <time>2010-10-09T14:51:38Z</time>
      </trkpt>
      <trkpt lat="43.36425" lon="6.68543">
        <ele>160.405</ele>
        <time>2010-10-09T14:51:45Z</time>
      </trkpt>
      <trkpt lat="43.36438" lon="6.68553">
        <ele>161.782</ele>
        <time>2010-10-09T14:51:52Z</time>
      </trkpt>
      <trkpt lat="43.36455" lon="6.68575">
        <ele>162.609</ele>
        <time>2010-10-09T14:52:01Z</time>
      </trkpt>
      <trkpt lat="43.36469" lon="6.68603">
        <ele>162.281</ele>
        <time>2010-10-09T14:52:08Z</time>
      </trkpt>
      <trkpt lat="43.36485" lon="6.68637">
        <ele>160.157</ele>
        <time>2010-10-09T14:52:15Z</time>
      </trkpt>
      <trkpt lat="43.36495" lon="6.68659">
        <ele>159.991</ele>
        <time>2010-10-09T14:52:19Z</time>
      </trkpt>
      <trkpt lat="43.3651" lon="6.6869">
        <ele>158.388</ele>
        <time>2010-10-09T14:52:24Z</time>
      </trkpt>
      <trkpt lat="43.36518" lon="6.68717">
        <ele>157.065</ele>
        <time>2010-10-09T14:52:28Z</time>
      </trkpt>
      <trkpt lat="43.36518" lon="6.68751">
        <ele>155.803</ele>
        <time>2010-10-09T14:52:33Z</time>
      </trkpt>
      <trkpt lat="43.36515" lon="6.68769">
        <ele>155.311</ele>
        <time>2010-10-09T14:52:36Z</time>
      </trkpt>
      <trkpt lat="43.365" lon="6.68803">
        <ele>154.214</ele>
        <time>2010-10-09T14:52:44Z</time>
      </trkpt>
      <trkpt lat="43.36485" lon="6.68806">
        <ele>154.425</ele>
        <time>2010-10-09T14:52:49Z</time>
      </trkpt>
      <trkpt lat="43.36473" lon="6.68807">
        <ele>152.416</ele>
        <time>2010-10-09T14:52:53Z</time>
      </trkpt>
      <trkpt lat="43.36462" lon="6.68818">
        <ele>148.412</ele>
        <time>2010-10-09T14:52:57Z</time>
      </trkpt>
      <trkpt lat="43.3645" lon="6.68832">
        <ele>146.841</ele>
        <time>2010-10-09T14:53:00Z</time>
      </trkpt>
      <trkpt lat="43.36445" lon="6.68834">
        <ele>145.829</ele>
        <time>2010-10-09T14:53:01Z</time>
      </trkpt>
      <trkpt lat="43.36434" lon="6.68836">
        <ele>145.713</ele>
        <time>2010-10-09T14:53:06Z</time>
      </trkpt>
      <trkpt lat="43.36428" lon="6.68835">
        <ele>145.862</ele>
        <time>2010-10-09T14:53:13Z</time>
      </trkpt>
      <trkpt lat="43.36422" lon="6.68835">
        <ele>145.193</ele>
        <time>2010-10-09T14:53:33Z</time>
      </trkpt>
      <trkpt lat="43.36405" lon="6.68834">
        <ele>144.408</ele>
        <time>2010-10-09T14:53:40Z</time>
      </trkpt>
      <trkpt lat="43.36389" lon="6.68842">
        <ele>147.357</ele>
        <time>2010-10-09T14:53:48Z</time>
      </trkpt>
      <trkpt lat="43.36372" lon="6.68856">
        <ele>149.351</ele>
        <time>2010-10-09T14:53:54Z</time>
      </trkpt>
      <trkpt lat="43.36362" lon="6.68884">
        <ele>149.643</ele>
        <time>2010-10-09T14:54:00Z</time>
      </trkpt>
      <trkpt lat="43.36347" lon="6.68913">
        <ele>150.545</ele>
        <time>2010-10-09T14:54:07Z</time>
      </trkpt>
      <trkpt lat="43.36332" lon="6.68937">
        <ele>151.541</ele>
        <time>2010-10-09T14:54:15Z</time>
      </trkpt>
      <trkpt lat="43.36316" lon="6.68948">
        <ele>150.18</ele>
        <time>2010-10-09T14:54:23Z</time>
      </trkpt>
      <trkpt lat="43.363" lon="6.68962">
        <ele>148.251</ele>
        <time>2010-10-09T14:54:28Z</time>
      </trkpt>
      <trkpt lat="43.36296" lon="6.68978">
        <ele>149.333</ele>
        <time>2010-10-09T14:54:34Z</time>
      </trkpt>
      <trkpt lat="43.36296" lon="6.6899">
        <ele>151.72</ele>
        <time>2010-10-09T14:54:39Z</time>
      </trkpt>
      <trkpt lat="43.36291" lon="6.69004">
        <ele>154.581</ele>
        <time>2010-10-09T14:54:47Z</time>
      </trkpt>
      <trkpt lat="43.36288" lon="6.69005">
        <ele>154.793</ele>
        <time>2010-10-09T14:54:53Z</time>
      </trkpt>
      <trkpt lat="43.36284" lon="6.69012">
        <ele>157.152</ele>
        <time>2010-10-09T14:55:04Z</time>
      </trkpt>
      <trkpt lat="43.36284" lon="6.69017">
        <ele>158.171</ele>
        <time>2010-10-09T14:55:16Z</time>
      </trkpt>
      <trkpt lat="43.36284" lon="6.69018">
        <ele>158.29</ele>
        <time>2010-10-09T14:55:20Z</time>
      </trkpt>
      <trkpt lat="43.36279" lon="6.69033">
        <ele>160.94</ele>
        <time>2010-10-09T14:55:28Z</time>
      </trkpt>
      <trkpt lat="43.36277" lon="6.69043">
        <ele>162.912</ele>
        <time>2010-10-09T14:55:37Z</time>
      </trkpt>
      <trkpt lat="43.36274" lon="6.69044">
        <ele>163.747</ele>
        <time>2010-10-09T14:55:44Z</time>
      </trkpt>
      <trkpt lat="43.36272" lon="6.6904">
        <ele>164.026</ele>
        <time>2010-10-09T14:55:54Z</time>
      </trkpt>
      <trkpt lat="43.3627" lon="6.69036">
        <ele>165.675</ele>
        <time>2010-10-09T14:56:01Z</time>
      </trkpt>
      <trkpt lat="43.36268" lon="6.69033">
        <ele>166.542</ele>
        <time>2010-10-09T14:56:06Z</time>
      </trkpt>
      <trkpt lat="43.36262" lon="6.69029">
        <ele>168.851</ele>
        <time>2010-10-09T14:56:17Z</time>
      </trkpt>
      <trkpt lat="43.36262" lon="6.6903">
        <ele>168.748</ele>
        <time>2010-10-09T14:56:18Z</time>
      </trkpt>
      <trkpt lat="43.3626" lon="6.69039">
        <ele>169.912</ele>
        <time>2010-10-09T14:56:25Z</time>
      </trkpt>
      <trkpt lat="43.36262" lon="6.69041">
        <ele>171.077</ele>
        <time>2010-10-09T14:56:32Z</time>
      </trkpt>
      <trkpt lat="43.36262" lon="6.69041">
        <ele>171.442</ele>
        <time>2010-10-09T14:56:33Z</time>
      </trkpt>
      <trkpt lat="43.36259" lon="6.69057">
        <ele>172.379</ele>
        <time>2010-10-09T14:56:43Z</time>
      </trkpt>
      <trkpt lat="43.36255" lon="6.69069">
        <ele>174.179</ele>
        <time>2010-10-09T14:56:51Z</time>
      </trkpt>
      <trkpt lat="43.36254" lon="6.69071">
        <ele>174.834</ele>
        <time>2010-10-09T14:56:53Z</time>
      </trkpt>
      <trkpt lat="43.36252" lon="6.69077">
        <ele>176.081</ele>
        <time>2010-10-09T14:56:56Z</time>
      </trkpt>
      <trkpt lat="43.36243" lon="6.69104">
        <ele>178.166</ele>
        <time>2010-10-09T14:57:07Z</time>
      </trkpt>
      <trkpt lat="43.36237" lon="6.69132">
        <ele>179.811</ele>
        <time>2010-10-09T14:57:17Z</time>
      </trkpt>
      <trkpt lat="43.36236" lon="6.6914">
        <ele>180.614</ele>
        <time>2010-10-09T14:57:20Z</time>
      </trkpt>
      <trkpt lat="43.36244" lon="6.69176">
        <ele>182.179</ele>
        <time>2010-10-09T14:57:32Z</time>
      </trkpt>
      <trkpt lat="43.3625" lon="6.69198">
        <ele>182.783</ele>
        <time>2010-10-09T14:57:41Z</time>
      </trkpt>
      <trkpt lat="43.36251" lon="6.69221">
        <ele>184.007</ele>
        <time>2010-10-09T14:57:50Z</time>
      </trkpt>
      <trkpt lat="43.36251" lon="6.6924">
        <ele>185.227</ele>
        <time>2010-10-09T14:57:57Z</time>
      </trkpt>
      <trkpt lat="43.3625" lon="6.69258">
        <ele>186.15</ele>
        <time>2010-10-09T14:58:04Z</time>
      </trkpt>
      <trkpt lat="43.36262" lon="6.69278">
        <ele>187.47</ele>
        <time>2010-10-09T14:58:14Z</time>
      </trkpt>
      <trkpt lat="43.3627" lon="6.69288">
        <ele>188.011</ele>
        <time>2010-10-09T14:58:20Z</time>
      </trkpt>
      <trkpt lat="43.36275" lon="6.69292">
        <ele>188.233</ele>
        <time>2010-10-09T14:58:25Z</time>
      </trkpt>
      <trkpt lat="43.36291" lon="6.69311">
        <ele>189.663</ele>
        <time>2010-10-09T14:58:34Z</time>
      </trkpt>
      <trkpt lat="43.36301" lon="6.69329">
        <ele>191.054</ele>
        <time>2010-10-09T14:58:40Z</time>
      </trkpt>
      <trkpt lat="43.36312" lon="6.69354">
        <ele>192.517</ele>
        <time>2010-10-09T14:58:48Z</time>
      </trkpt>
      <trkpt lat="43.36324" lon="6.69382">
        <ele>195.218</ele>
        <time>2010-10-09T14:58:56Z</time>
      </trkpt>
      <trkpt lat="43.3633" lon="6.69418">
        <ele>198.058</ele>
        <time>2010-10-09T14:59:05Z</time>
      </trkpt>
      <trkpt lat="43.36326" lon="6.69451">
        <ele>200.63</ele>
        <time>2010-10-09T14:59:14Z</time>
      </trkpt>
      <trkpt lat="43.36321" lon="6.69469">
        <ele>202.545</ele>
        <time>2010-10-09T14:59:22Z</time>
      </trkpt>
      <trkpt lat="43.3632" lon="6.69471">
        <ele>202.909</ele>
        <time>2010-10-09T14:59:23Z</time>
      </trkpt>
      <trkpt lat="43.36318" lon="6.69472">
        <ele>203.466</ele>
        <time>2010-10-09T14:59:25Z</time>
      </trkpt>
      <trkpt lat="43.36312" lon="6.6947">
        <ele>204.606</ele>
        <time>2010-10-09T14:59:30Z</time>
      </trkpt>
      <trkpt lat="43.36299" lon="6.69454">
        <ele>206.901</ele>
        <time>2010-10-09T14:59:41Z</time>
      </trkpt>
      <trkpt lat="43.36291" lon="6.6944">
        <ele>208.265</ele>
        <time>2010-10-09T14:59:47Z</time>
      </trkpt>
      <trkpt lat="43.36274" lon="6.6942">
        <ele>211.385</ele>
        <time>2010-10-09T14:59:59Z</time>
      </trkpt>
      <trkpt lat="43.36262" lon="6.69401">
        <ele>213.653</ele>
        <time>2010-10-09T15:00:10Z</time>
      </trkpt>
      <trkpt lat="43.36261" lon="6.694">
        <ele>213.926</ele>
        <time>2010-10-09T15:00:11Z</time>
      </trkpt>
      <trkpt lat="43.36256" lon="6.69391">
        <ele>214.943</ele>
        <time>2010-10-09T15:00:16Z</time>
      </trkpt>
      <trkpt lat="43.36244" lon="6.69381">
        <ele>215.745</ele>
        <time>2010-10-09T15:00:26Z</time>
      </trkpt>
      <trkpt lat="43.36232" lon="6.69375">
        <ele>216.683</ele>
        <time>2010-10-09T15:00:35Z</time>
      </trkpt>
      <trkpt lat="43.36218" lon="6.69366">
        <ele>218.427</ele>
        <time>2010-10-09T15:00:46Z</time>
      </trkpt>
      <trkpt lat="43.36204" lon="6.69352">
        <ele>220.296</ele>
        <time>2010-10-09T15:00:58Z</time>
      </trkpt>
      <trkpt lat="43.3619" lon="6.69331">
        <ele>222.349</ele>
        <time>2010-10-09T15:01:12Z</time>
      </trkpt>
      <trkpt lat="43.36182" lon="6.6932">
        <ele>222.779</ele>
        <time>2010-10-09T15:01:19Z</time>
      </trkpt>
      <trkpt lat="43.36178" lon="6.69317">
        <ele>222.478</ele>
        <time>2010-10-09T15:01:24Z</time>
      </trkpt>
      <trkpt lat="43.36177" lon="6.69316">
        <ele>223.939</ele>
        <time>2010-10-09T15:01:26Z</time>
      </trkpt>
      <trkpt lat="43.36173" lon="6.69314">
        <ele>222.932</ele>
        <time>2010-10-09T15:01:30Z</time>
      </trkpt>
      <trkpt lat="43.36164" lon="6.69309">
        <ele>224.334</ele>
        <time>2010-10-09T15:01:38Z</time>
      </trkpt>
      <trkpt lat="43.36152" lon="6.693">
        <ele>226.765</ele>
        <time>2010-10-09T15:01:49Z</time>
      </trkpt>
      <trkpt lat="43.36143" lon="6.69286">
        <ele>230.13</ele>
        <time>2010-10-09T15:02:00Z</time>
      </trkpt>
      <trkpt lat="43.36132" lon="6.69273">
        <ele>233.304</ele>
        <time>2010-10-09T15:02:10Z</time>
      </trkpt>
      <trkpt lat="43.36132" lon="6.69271">
        <ele>233.806</ele>
        <time>2010-10-09T15:02:17Z</time>
      </trkpt>
      <trkpt lat="43.36128" lon="6.69268">
        <ele>234.752</ele>
        <time>2010-10-09T15:02:30Z</time>
      </trkpt>
      <trkpt lat="43.36126" lon="6.69266">
        <ele>236.04</ele>
        <time>2010-10-09T15:02:38Z</time>
      </trkpt>
      <trkpt lat="43.36126" lon="6.69266">
        <ele>236.105</ele>
        <time>2010-10-09T15:02:48Z</time>
      </trkpt>
      <trkpt lat="43.36119" lon="6.69262">
        <ele>237.618</ele>
        <time>2010-10-09T15:02:58Z</time>
      </trkpt>
      <trkpt lat="43.36108" lon="6.69257">
        <ele>240.209</ele>
        <time>2010-10-09T15:03:06Z</time>
      </trkpt>
      <trkpt lat="43.36101" lon="6.69252">
        <ele>242.834</ele>
        <time>2010-10-09T15:03:11Z</time>
      </trkpt>
      <trkpt lat="43.36095" lon="6.69245">
        <ele>242.952</ele>
        <time>2010-10-09T15:03:16Z</time>
      </trkpt>
      <trkpt lat="43.36086" lon="6.69246">
        <ele>242.637</ele>
        <time>2010-10-09T15:03:25Z</time>
      </trkpt>
      <trkpt lat="43.36087" lon="6.69247">
        <ele>241.934</ele>
        <time>2010-10-09T15:07:33Z</time>
      </trkpt>
      <trkpt lat="43.36086" lon="6.69247">
        <ele>242.193</ele>
        <time>2010-10-09T15:11:44Z</time>
      </trkpt>
      <trkpt lat="43.36084" lon="6.6925">
        <ele>242.42</ele>
        <time>2010-10-09T15:11:46Z</time>
      </trkpt>
      <trkpt lat="43.36071" lon="6.69251">
        <ele>241.015</ele>
        <time>2010-10-09T15:11:50Z</time>
      </trkpt>
      <trkpt lat="43.36061" lon="6.69262">
        <ele>240.515</ele>
        <time>2010-10-09T15:11:53Z</time>
      </trkpt>
      <trkpt lat="43.36044" lon="6.69279">
        <ele>239.25</ele>
        <time>2010-10-09T15:11:57Z</time>
      </trkpt>
      <trkpt lat="43.36019" lon="6.69292">
        <ele>237.052</ele>
        <time>2010-10-09T15:12:01Z</time>
      </trkpt>
      <trkpt lat="43.35996" lon="6.69294">
        <ele>236.165</ele>
        <time>2010-10-09T15:12:04Z</time>
      </trkpt>
      <trkpt lat="43.35974" lon="6.69299">
        <ele>232.57</ele>
        <time>2010-10-09T15:12:07Z</time>
      </trkpt>
      <trkpt lat="43.35944" lon="6.69303">
        <ele>228.562</ele>
        <time>2010-10-09T15:12:11Z</time>
      </trkpt>
      <trkpt lat="43.35926" lon="6.69312">
        <ele>226.53</ele>
        <time>2010-10-09T15:12:13Z</time>
      </trkpt>
      <trkpt lat="43.35904" lon="6.69318">
        <ele>223.275</ele>
        <time>2010-10-09T15:12:16Z</time>
      </trkpt>
      <trkpt lat="43.35863" lon="6.69347">
        <ele>220.191</ele>
        <time>2010-10-09T15:12:22Z</time>
      </trkpt>
      <trkpt lat="43.35856" lon="6.69352">
        <ele>219.726</ele>
        <time>2010-10-09T15:12:23Z</time>
      </trkpt>
      <trkpt lat="43.35829" lon="6.69393">
        <ele>217.136</ele>
        <time>2010-10-09T15:12:28Z</time>
      </trkpt>
      <trkpt lat="43.35826" lon="6.69403">
        <ele>216.674</ele>
        <time>2010-10-09T15:12:29Z</time>
      </trkpt>
      <trkpt lat="43.35814" lon="6.69442">
        <ele>211.537</ele>
        <time>2010-10-09T15:12:33Z</time>
      </trkpt>
      <trkpt lat="43.35803" lon="6.69468">
        <ele>208.567</ele>
        <time>2010-10-09T15:12:38Z</time>
      </trkpt>
      <trkpt lat="43.35801" lon="6.69471">
        <ele>208.266</ele>
        <time>2010-10-09T15:12:39Z</time>
      </trkpt>
      <trkpt lat="43.35797" lon="6.69491">
        <ele>205.703</ele>
        <time>2010-10-09T15:12:44Z</time>
      </trkpt>
      <trkpt lat="43.35796" lon="6.69498">
        <ele>204.987</ele>
        <time>2010-10-09T15:12:46Z</time>
      </trkpt>
      <trkpt lat="43.35796" lon="6.69515">
        <ele>202.449</ele>
        <time>2010-10-09T15:12:51Z</time>
      </trkpt>
      <trkpt lat="43.35794" lon="6.69533">
        <ele>198.839</ele>
        <time>2010-10-09T15:12:54Z</time>
      </trkpt>
      <trkpt lat="43.35794" lon="6.69539">
        <ele>197.783</ele>
        <time>2010-10-09T15:12:55Z</time>
      </trkpt>
      <trkpt lat="43.35793" lon="6.69561">
        <ele>193.923</ele>
        <time>2010-10-09T15:12:59Z</time>
      </trkpt>
      <trkpt lat="43.35785" lon="6.69579">
        <ele>194.003</ele>
        <time>2010-10-09T15:13:03Z</time>
      </trkpt>
      <trkpt lat="43.35784" lon="6.69594">
        <ele>192.704</ele>
        <time>2010-10-09T15:13:06Z</time>
      </trkpt>
      <trkpt lat="43.35768" lon="6.69625">
        <ele>190.912</ele>
        <time>2010-10-09T15:13:11Z</time>
      </trkpt>
      <trkpt lat="43.3576" lon="6.69664">
        <ele>190.345</ele>
        <time>2010-10-09T15:13:17Z</time>
      </trkpt>
      <trkpt lat="43.35758" lon="6.69678">
        <ele>190.357</ele>
        <time>2010-10-09T15:13:19Z</time>
      </trkpt>
      <trkpt lat="43.35757" lon="6.69698">
        <ele>190.446</ele>
        <time>2010-10-09T15:13:22Z</time>
      </trkpt>
      <trkpt lat="43.3575" lon="6.69722">
        <ele>188.763</ele>
        <time>2010-10-09T15:13:26Z</time>
      </trkpt>
      <trkpt lat="43.35733" lon="6.69722">
        <ele>188.072</ele>
        <time>2010-10-09T15:13:30Z</time>
      </trkpt>
      <trkpt lat="43.35725" lon="6.69718">
        <ele>187.905</ele>
        <time>2010-10-09T15:13:32Z</time>
      </trkpt>
      <trkpt lat="43.35702" lon="6.69728">
        <ele>188.309</ele>
        <time>2010-10-09T15:13:38Z</time>
      </trkpt>
      <trkpt lat="43.35684" lon="6.6975">
        <ele>189.28</ele>
        <time>2010-10-09T15:13:46Z</time>
      </trkpt>
      <trkpt lat="43.35667" lon="6.69778">
        <ele>189.476</ele>
        <time>2010-10-09T15:13:54Z</time>
      </trkpt>
      <trkpt lat="43.35652" lon="6.69811">
        <ele>188.753</ele>
        <time>2010-10-09T15:14:02Z</time>
      </trkpt>
      <trkpt lat="43.35635" lon="6.69856">
        <ele>186.391</ele>
        <time>2010-10-09T15:14:09Z</time>
      </trkpt>
      <trkpt lat="43.35631" lon="6.69864">
        <ele>186.068</ele>
        <time>2010-10-09T15:14:10Z</time>
      </trkpt>
      <trkpt lat="43.35611" lon="6.69902">
        <ele>183.672</ele>
        <time>2010-10-09T15:14:15Z</time>
      </trkpt>
      <trkpt lat="43.35597" lon="6.69931">
        <ele>183.529</ele>
        <time>2010-10-09T15:14:19Z</time>
      </trkpt>
      <trkpt lat="43.35585" lon="6.69991">
        <ele>180.902</ele>
        <time>2010-10-09T15:14:26Z</time>
      </trkpt>
      <trkpt lat="43.35571" lon="6.70038">
        <ele>181.315</ele>
        <time>2010-10-09T15:14:32Z</time>
      </trkpt>
      <trkpt lat="43.35569" lon="6.70044">
        <ele>181.17</ele>
        <time>2010-10-09T15:14:33Z</time>
      </trkpt>
      <trkpt lat="43.35558" lon="6.70065">
        <ele>182.571</ele>
        <time>2010-10-09T15:14:39Z</time>
      </trkpt>
      <trkpt lat="43.35553" lon="6.70088">
        <ele>185.13</ele>
        <time>2010-10-09T15:14:45Z</time>
      </trkpt>
      <trkpt lat="43.35548" lon="6.70108">
        <ele>187.865</ele>
        <time>2010-10-09T15:14:50Z</time>
      </trkpt>
      <trkpt lat="43.35546" lon="6.7012">
        <ele>189.265</ele>
        <time>2010-10-09T15:14:53Z</time>
      </trkpt>
      <trkpt lat="43.35549" lon="6.70141">
        <ele>192.072</ele>
        <time>2010-10-09T15:14:58Z</time>
      </trkpt>
      <trkpt lat="43.35563" lon="6.70166">
        <ele>193.154</ele>
        <time>2010-10-09T15:15:04Z</time>
      </trkpt>
      <trkpt lat="43.35566" lon="6.70201">
        <ele>193.989</ele>
        <time>2010-10-09T15:15:10Z</time>
      </trkpt>
      <trkpt lat="43.35562" lon="6.70216">
        <ele>194.988</ele>
        <time>2010-10-09T15:15:13Z</time>
      </trkpt>
      <trkpt lat="43.35556" lon="6.70238">
        <ele>194.928</ele>
        <time>2010-10-09T15:15:17Z</time>
      </trkpt>
      <trkpt lat="43.35559" lon="6.70272">
        <ele>193.504</ele>
        <time>2010-10-09T15:15:22Z</time>
      </trkpt>
      <trkpt lat="43.3558" lon="6.70334">
        <ele>188.338</ele>
        <time>2010-10-09T15:15:29Z</time>
      </trkpt>
      <trkpt lat="43.35596" lon="6.70379">
        <ele>184.785</ele>
        <time>2010-10-09T15:15:33Z</time>
      </trkpt>
      <trkpt lat="43.35614" lon="6.70426">
        <ele>181.403</ele>
        <time>2010-10-09T15:15:37Z</time>
      </trkpt>
      <trkpt lat="43.35632" lon="6.70474">
        <ele>178.419</ele>
        <time>2010-10-09T15:15:41Z</time>
      </trkpt>
      <trkpt lat="43.35652" lon="6.70533">
        <ele>175.381</ele>
        <time>2010-10-09T15:15:46Z</time>
      </trkpt>
      <trkpt lat="43.35677" lon="6.70599">
        <ele>173.058</ele>
        <time>2010-10-09T15:15:52Z</time>
      </trkpt>
      <trkpt lat="43.35707" lon="6.70632">
        <ele>169.43</ele>
        <time>2010-10-09T15:15:57Z</time>
      </trkpt>
      <trkpt lat="43.35719" lon="6.70639">
        <ele>167.293</ele>
        <time>2010-10-09T15:15:59Z</time>
      </trkpt>
      <trkpt lat="43.35731" lon="6.7064">
        <ele>165.755</ele>
        <time>2010-10-09T15:16:01Z</time>
      </trkpt>
      <trkpt lat="43.3575" lon="6.70643">
        <ele>162.428</ele>
        <time>2010-10-09T15:16:04Z</time>
      </trkpt>
      <trkpt lat="43.35767" lon="6.7064">
        <ele>158.647</ele>
        <time>2010-10-09T15:16:07Z</time>
      </trkpt>
      <trkpt lat="43.35773" lon="6.70638">
        <ele>157.713</ele>
        <time>2010-10-09T15:16:08Z</time>
      </trkpt>
      <trkpt lat="43.35801" lon="6.70605">
        <ele>150.958</ele>
        <time>2010-10-09T15:16:13Z</time>
      </trkpt>
      <trkpt lat="43.35804" lon="6.70597">
        <ele>150.357</ele>
        <time>2010-10-09T15:16:14Z</time>
      </trkpt>
      <trkpt lat="43.35819" lon="6.7056">
        <ele>145.484</ele>
        <time>2010-10-09T15:16:18Z</time>
      </trkpt>
      <trkpt lat="43.35827" lon="6.70538">
        <ele>142.315</ele>
        <time>2010-10-09T15:16:21Z</time>
      </trkpt>
      <trkpt lat="43.35835" lon="6.70539">
        <ele>139.976</ele>
        <time>2010-10-09T15:16:24Z</time>
      </trkpt>
      <trkpt lat="43.35838" lon="6.70544">
        <ele>138.99</ele>
        <time>2010-10-09T15:16:25Z</time>
      </trkpt>
      <trkpt lat="43.35848" lon="6.70556">
        <ele>136.596</ele>
        <time>2010-10-09T15:16:27Z</time>
      </trkpt>
      <trkpt lat="43.35874" lon="6.70567">
        <ele>132.537</ele>
        <time>2010-10-09T15:16:31Z</time>
      </trkpt>
      <trkpt lat="43.35903" lon="6.70585">
        <ele>128.53</ele>
        <time>2010-10-09T15:16:36Z</time>
      </trkpt>
      <trkpt lat="43.35909" lon="6.7059">
        <ele>127.578</ele>
        <time>2010-10-09T15:16:37Z</time>
      </trkpt>
      <trkpt lat="43.35931" lon="6.70589">
        <ele>124.213</ele>
        <time>2010-10-09T15:16:41Z</time>
      </trkpt>
      <trkpt lat="43.35953" lon="6.7058">
        <ele>120.444</ele>
        <time>2010-10-09T15:16:45Z</time>
      </trkpt>
      <trkpt lat="43.35967" lon="6.706">
        <ele>118.164</ele>
        <time>2010-10-09T15:16:48Z</time>
      </trkpt>
      <trkpt lat="43.35975" lon="6.70616">
        <ele>116.382</ele>
        <time>2010-10-09T15:16:51Z</time>
      </trkpt>
      <trkpt lat="43.36012" lon="6.70632">
        <ele>112.167</ele>
        <time>2010-10-09T15:16:56Z</time>
      </trkpt>
      <trkpt lat="43.36036" lon="6.70629">
        <ele>109.491</ele>
        <time>2010-10-09T15:16:59Z</time>
      </trkpt>
      <trkpt lat="43.36079" lon="6.70647">
        <ele>105.305</ele>
        <time>2010-10-09T15:17:04Z</time>
      </trkpt>
      <trkpt lat="43.36096" lon="6.70656">
        <ele>101.554</ele>
        <time>2010-10-09T15:17:06Z</time>
      </trkpt>
      <trkpt lat="43.36112" lon="6.70664">
        <ele>99.209</ele>
        <time>2010-10-09T15:17:08Z</time>
      </trkpt>
      <trkpt lat="43.36134" lon="6.70679">
        <ele>94.543</ele>
        <time>2010-10-09T15:17:11Z</time>
      </trkpt>
      <trkpt lat="43.36141" lon="6.70683">
        <ele>93.29</ele>
        <time>2010-10-09T15:17:12Z</time>
      </trkpt>
      <trkpt lat="43.36169" lon="6.70712">
        <ele>86.591</ele>
        <time>2010-10-09T15:17:17Z</time>
      </trkpt>
      <trkpt lat="43.36185" lon="6.70748">
        <ele>82.638</ele>
        <time>2010-10-09T15:17:22Z</time>
      </trkpt>
      <trkpt lat="43.36199" lon="6.70773">
        <ele>79.56</ele>
        <time>2010-10-09T15:17:26Z</time>
      </trkpt>
      <trkpt lat="43.36216" lon="6.70802">
        <ele>76.346</ele>
        <time>2010-10-09T15:17:31Z</time>
      </trkpt>
      <trkpt lat="43.36219" lon="6.70807">
        <ele>75.958</ele>
        <time>2010-10-09T15:17:32Z</time>
      </trkpt>
      <trkpt lat="43.36227" lon="6.70818">
        <ele>75.043</ele>
        <time>2010-10-09T15:17:34Z</time>
      </trkpt>
      <trkpt lat="43.36232" lon="6.70823">
        <ele>74.464</ele>
        <time>2010-10-09T15:17:35Z</time>
      </trkpt>
      <trkpt lat="43.36242" lon="6.70832">
        <ele>73.496</ele>
        <time>2010-10-09T15:17:37Z</time>
      </trkpt>
      <trkpt lat="43.36252" lon="6.70843">
        <ele>72.291</ele>
        <time>2010-10-09T15:17:39Z</time>
      </trkpt>
      <trkpt lat="43.36265" lon="6.70863">
        <ele>71.418</ele>
        <time>2010-10-09T15:17:42Z</time>
      </trkpt>
      <trkpt lat="43.36282" lon="6.70887">
        <ele>70.699</ele>
        <time>2010-10-09T15:17:46Z</time>
      </trkpt>
      <trkpt lat="43.36291" lon="6.70906">
        <ele>69.244</ele>
        <time>2010-10-09T15:17:50Z</time>
      </trkpt>
      <trkpt lat="43.36304" lon="6.7092">
        <ele>66.9</ele>
        <time>2010-10-09T15:17:57Z</time>
      </trkpt>
      <trkpt lat="43.36315" lon="6.7091">
        <ele>64.151</ele>
        <time>2010-10-09T15:18:01Z</time>
      </trkpt>
      <trkpt lat="43.36321" lon="6.70903">
        <ele>62.63</ele>
        <time>2010-10-09T15:18:04Z</time>
      </trkpt>
      <trkpt lat="43.36326" lon="6.70895">
        <ele>61.044</ele>
        <time>2010-10-09T15:18:11Z</time>
      </trkpt>
      <trkpt lat="43.36331" lon="6.7089">
        <ele>59.816</ele>
        <time>2010-10-09T15:18:14Z</time>
      </trkpt>
      <trkpt lat="43.36337" lon="6.70882">
        <ele>58.741</ele>
        <time>2010-10-09T15:18:16Z</time>
      </trkpt>
      <trkpt lat="43.36337" lon="6.70853">
        <ele>57.354</ele>
        <time>2010-10-09T15:18:20Z</time>
      </trkpt>
      <trkpt lat="43.36334" lon="6.7083">
        <ele>55.556</ele>
        <time>2010-10-09T15:18:23Z</time>
      </trkpt>
      <trkpt lat="43.36343" lon="6.70816">
        <ele>51.765</ele>
        <time>2010-10-09T15:18:28Z</time>
      </trkpt>
      <trkpt lat="43.36356" lon="6.70828">
        <ele>49.798</ele>
        <time>2010-10-09T15:18:32Z</time>
      </trkpt>
      <trkpt lat="43.36359" lon="6.70832">
        <ele>49.565</ele>
        <time>2010-10-09T15:18:33Z</time>
      </trkpt>
      <trkpt lat="43.3638" lon="6.70856">
        <ele>46.875</ele>
        <time>2010-10-09T15:18:38Z</time>
      </trkpt>
      <trkpt lat="43.3641" lon="6.70867">
        <ele>44.182</ele>
        <time>2010-10-09T15:18:43Z</time>
      </trkpt>
      <trkpt lat="43.36423" lon="6.70871">
        <ele>43.24</ele>
        <time>2010-10-09T15:18:45Z</time>
      </trkpt>
      <trkpt lat="43.36438" lon="6.70871">
        <ele>38.27</ele>
        <time>2010-10-09T15:18:49Z</time>
      </trkpt>
      <trkpt lat="43.36443" lon="6.70858">
        <ele>36.259</ele>
        <time>2010-10-09T15:18:52Z</time>
      </trkpt>
      <trkpt lat="43.36442" lon="6.70842">
        <ele>35.933</ele>
        <time>2010-10-09T15:18:54Z</time>
      </trkpt>
      <trkpt lat="43.36442" lon="6.70802">
        <ele>33.67</ele>
        <time>2010-10-09T15:18:58Z</time>
      </trkpt>
      <trkpt lat="43.36443" lon="6.70782">
        <ele>32.353</ele>
        <time>2010-10-09T15:19:00Z</time>
      </trkpt>
      <trkpt lat="43.36446" lon="6.70764">
        <ele>30.414</ele>
        <time>2010-10-09T15:19:02Z</time>
      </trkpt>
      <trkpt lat="43.36452" lon="6.70742">
        <ele>28.449</ele>
        <time>2010-10-09T15:19:05Z</time>
      </trkpt>
      <trkpt lat="43.36469" lon="6.70734">
        <ele>27.007</ele>
        <time>2010-10-09T15:19:08Z</time>
      </trkpt>
      <trkpt lat="43.3648" lon="6.70737">
        <ele>25.992</ele>
        <time>2010-10-09T15:19:10Z</time>
      </trkpt>
      <trkpt lat="43.36495" lon="6.70758">
        <ele>24.189</ele>
        <time>2010-10-09T15:19:14Z</time>
      </trkpt>
      <trkpt lat="43.36497" lon="6.70766">
        <ele>23.972</ele>
        <time>2010-10-09T15:19:15Z</time>
      </trkpt>
      <trkpt lat="43.365" lon="6.70781">
        <ele>23.66</ele>
        <time>2010-10-09T15:19:17Z</time>
      </trkpt>
      <trkpt lat="43.36515" lon="6.70793">
        <ele>18.965</ele>
        <time>2010-10-09T15:19:21Z</time>
      </trkpt>
      <trkpt lat="43.36525" lon="6.70785">
        <ele>16.073</ele>
        <time>2010-10-09T15:19:23Z</time>
      </trkpt>
      <trkpt lat="43.3655" lon="6.70776">
        <ele>11.384</ele>
        <time>2010-10-09T15:19:27Z</time>
      </trkpt>
      <trkpt lat="43.36558" lon="6.70764">
        <ele>9.984</ele>
        <time>2010-10-09T15:19:30Z</time>
      </trkpt>
      <trkpt lat="43.36562" lon="6.70748">
        <ele>10.31</ele>
        <time>2010-10-09T15:19:32Z</time>
      </trkpt>
      <trkpt lat="43.36584" lon="6.70736">
        <ele>11.909</ele>
        <time>2010-10-09T15:19:36Z</time>
      </trkpt>
      <trkpt lat="43.36601" lon="6.70754">
        <ele>12.659</ele>
        <time>2010-10-09T15:19:39Z</time>
      </trkpt>
      <trkpt lat="43.36616" lon="6.70777">
        <ele>12.749</ele>
        <time>2010-10-09T15:19:42Z</time>
      </trkpt>
      <trkpt lat="43.3664" lon="6.70798">
        <ele>13.233</ele>
        <time>2010-10-09T15:19:46Z</time>
      </trkpt>
      <trkpt lat="43.36678" lon="6.70798">
        <ele>14.937</ele>
        <time>2010-10-09T15:19:52Z</time>
      </trkpt>
      <trkpt lat="43.3669" lon="6.70789">
        <ele>14.89</ele>
        <time>2010-10-09T15:19:55Z</time>
      </trkpt>
      <trkpt lat="43.36705" lon="6.7077">
        <ele>15.203</ele>
        <time>2010-10-09T15:19:59Z</time>
      </trkpt>
      <trkpt lat="43.36718" lon="6.70738">
        <ele>16.074</ele>
        <time>2010-10-09T15:20:04Z</time>
      </trkpt>
      <trkpt lat="43.36727" lon="6.70662">
        <ele>16.275</ele>
        <time>2010-10-09T15:20:14Z</time>
      </trkpt>
      <trkpt lat="43.36728" lon="6.70654">
        <ele>16.053</ele>
        <time>2010-10-09T15:20:15Z</time>
      </trkpt>
      <trkpt lat="43.36741" lon="6.70627">
        <ele>13.285</ele>
        <time>2010-10-09T15:20:19Z</time>
      </trkpt>
      <trkpt lat="43.36758" lon="6.70631">
        <ele>11.319</ele>
        <time>2010-10-09T15:20:22Z</time>
      </trkpt>
      <trkpt lat="43.36762" lon="6.70638">
        <ele>11.243</ele>
        <time>2010-10-09T15:20:23Z</time>
      </trkpt>
      <trkpt lat="43.36781" lon="6.70641">
        <ele>9.308</ele>
        <time>2010-10-09T15:20:28Z</time>
      </trkpt>
      <trkpt lat="43.36792" lon="6.70611">
        <ele>8.934</ele>
        <time>2010-10-09T15:20:32Z</time>
      </trkpt>
      <trkpt lat="43.3679" lon="6.70558">
        <ele>9.202</ele>
        <time>2010-10-09T15:20:39Z</time>
      </trkpt>
      <trkpt lat="43.3679" lon="6.70518">
        <ele>9.201</ele>
        <time>2010-10-09T15:20:44Z</time>
      </trkpt>
      <trkpt lat="43.36794" lon="6.70448">
        <ele>9.596</ele>
        <time>2010-10-09T15:20:51Z</time>
      </trkpt>
      <trkpt lat="43.36805" lon="6.70427">
        <ele>10.052</ele>
        <time>2010-10-09T15:20:55Z</time>
      </trkpt>
      <trkpt lat="43.36815" lon="6.70428">
        <ele>10.035</ele>
        <time>2010-10-09T15:20:57Z</time>
      </trkpt>
      <trkpt lat="43.36839" lon="6.70445">
        <ele>13.668</ele>
        <time>2010-10-09T15:21:04Z</time>
      </trkpt>
      <trkpt lat="43.3686" lon="6.7047">
        <ele>16.374</ele>
        <time>2010-10-09T15:21:12Z</time>
      </trkpt>
      <trkpt lat="43.36875" lon="6.70503">
        <ele>17.517</ele>
        <time>2010-10-09T15:21:19Z</time>
      </trkpt>
      <trkpt lat="43.36881" lon="6.70526">
        <ele>19.976</ele>
        <time>2010-10-09T15:21:26Z</time>
      </trkpt>
      <trkpt lat="43.36882" lon="6.70534">
        <ele>21.298</ele>
        <time>2010-10-09T15:21:29Z</time>
      </trkpt>
      <trkpt lat="43.36883" lon="6.70545">
        <ele>22.949</ele>
        <time>2010-10-09T15:21:33Z</time>
      </trkpt>
      <trkpt lat="43.36891" lon="6.70551">
        <ele>24.198</ele>
        <time>2010-10-09T15:21:40Z</time>
      </trkpt>
      <trkpt lat="43.36892" lon="6.70551">
        <ele>24.603</ele>
        <time>2010-10-09T15:21:41Z</time>
      </trkpt>
      <trkpt lat="43.36898" lon="6.70549">
        <ele>26.577</ele>
        <time>2010-10-09T15:21:45Z</time>
      </trkpt>
      <trkpt lat="43.36902" lon="6.70547">
        <ele>27.847</ele>
        <time>2010-10-09T15:21:48Z</time>
      </trkpt>
      <trkpt lat="43.36914" lon="6.70542">
        <ele>30.969</ele>
        <time>2010-10-09T15:21:56Z</time>
      </trkpt>
      <trkpt lat="43.36923" lon="6.70538">
        <ele>33.526</ele>
        <time>2010-10-09T15:22:03Z</time>
      </trkpt>
      <trkpt lat="43.36936" lon="6.70528">
        <ele>36.789</ele>
        <time>2010-10-09T15:22:15Z</time>
      </trkpt>
      <trkpt lat="43.36949" lon="6.70521">
        <ele>39.279</ele>
        <time>2010-10-09T15:22:25Z</time>
      </trkpt>
      <trkpt lat="43.36959" lon="6.70516">
        <ele>40.87</ele>
        <time>2010-10-09T15:22:32Z</time>
      </trkpt>
      <trkpt lat="43.36985" lon="6.70504">
        <ele>44.207</ele>
        <time>2010-10-09T15:22:47Z</time>
      </trkpt>
      <trkpt lat="43.36999" lon="6.70491">
        <ele>45.853</ele>
        <time>2010-10-09T15:22:56Z</time>
      </trkpt>
      <trkpt lat="43.37011" lon="6.70475">
        <ele>47.075</ele>
        <time>2010-10-09T15:23:05Z</time>
      </trkpt>
      <trkpt lat="43.37024" lon="6.70456">
        <ele>49.086</ele>
        <time>2010-10-09T15:23:14Z</time>
      </trkpt>
      <trkpt lat="43.37044" lon="6.70425">
        <ele>50.957</ele>
        <time>2010-10-09T15:23:25Z</time>
      </trkpt>
      <trkpt lat="43.37056" lon="6.70407">
        <ele>52.049</ele>
        <time>2010-10-09T15:23:32Z</time>
      </trkpt>
      <trkpt lat="43.37077" lon="6.7037">
        <ele>54.474</ele>
        <time>2010-10-09T15:23:44Z</time>
      </trkpt>
      <trkpt lat="43.37092" lon="6.7035">
        <ele>54.581</ele>
        <time>2010-10-09T15:23:50Z</time>
      </trkpt>
      <trkpt lat="43.37109" lon="6.703">
        <ele>53.915</ele>
        <time>2010-10-09T15:23:59Z</time>
      </trkpt>
      <trkpt lat="43.37122" lon="6.70258">
        <ele>54.851</ele>
        <time>2010-10-09T15:24:06Z</time>
      </trkpt>
      <trkpt lat="43.37133" lon="6.70221">
        <ele>58.029</ele>
        <time>2010-10-09T15:24:15Z</time>
      </trkpt>
      <trkpt lat="43.3715" lon="6.70195">
        <ele>59.388</ele>
        <time>2010-10-09T15:24:23Z</time>
      </trkpt>
      <trkpt lat="43.37178" lon="6.70181">
        <ele>61.447</ele>
        <time>2010-10-09T15:24:32Z</time>
      </trkpt>
      <trkpt lat="43.37203" lon="6.70171">
        <ele>63.637</ele>
        <time>2010-10-09T15:24:41Z</time>
      </trkpt>
      <trkpt lat="43.3722" lon="6.70167">
        <ele>65.488</ele>
        <time>2010-10-09T15:24:50Z</time>
      </trkpt>
      <trkpt lat="43.37237" lon="6.70161">
        <ele>68.304</ele>
        <time>2010-10-09T15:25:01Z</time>
      </trkpt>
      <trkpt lat="43.37255" lon="6.70158">
        <ele>71.242</ele>
        <time>2010-10-09T15:25:12Z</time>
      </trkpt>
      <trkpt lat="43.37273" lon="6.70156">
        <ele>72.48</ele>
        <time>2010-10-09T15:25:22Z</time>
      </trkpt>
      <trkpt lat="43.37289" lon="6.70151">
        <ele>73.574</ele>
        <time>2010-10-09T15:25:32Z</time>
      </trkpt>
      <trkpt lat="43.37299" lon="6.70143">
        <ele>75.001</ele>
        <time>2010-10-09T15:25:40Z</time>
      </trkpt>
      <trkpt lat="43.37307" lon="6.70129">
        <ele>77.218</ele>
        <time>2010-10-09T15:25:50Z</time>
      </trkpt>
      <trkpt lat="43.37316" lon="6.7011">
        <ele>80.388</ele>
        <time>2010-10-09T15:26:02Z</time>
      </trkpt>
      <trkpt lat="43.37323" lon="6.70096">
        <ele>82.782</ele>
        <time>2010-10-09T15:26:12Z</time>
      </trkpt>
      <trkpt lat="43.37327" lon="6.70089">
        <ele>84.685</ele>
        <time>2010-10-09T15:26:17Z</time>
      </trkpt>
      <trkpt lat="43.37329" lon="6.70084">
        <ele>85.352</ele>
        <time>2010-10-09T15:26:20Z</time>
      </trkpt>
      <trkpt lat="43.37332" lon="6.7008">
        <ele>85.927</ele>
        <time>2010-10-09T15:26:23Z</time>
      </trkpt>
      <trkpt lat="43.37338" lon="6.70071">
        <ele>87.644</ele>
        <time>2010-10-09T15:26:31Z</time>
      </trkpt>
      <trkpt lat="43.37339" lon="6.70068">
        <ele>87.992</ele>
        <time>2010-10-09T15:26:33Z</time>
      </trkpt>
      <trkpt lat="43.37347" lon="6.7005">
        <ele>90.903</ele>
        <time>2010-10-09T15:26:45Z</time>
      </trkpt>
      <trkpt lat="43.37352" lon="6.7004">
        <ele>92.582</ele>
        <time>2010-10-09T15:26:52Z</time>
      </trkpt>
      <trkpt lat="43.37355" lon="6.70037">
        <ele>93.239</ele>
        <time>2010-10-09T15:26:55Z</time>
      </trkpt>
      <trkpt lat="43.37363" lon="6.70019">
        <ele>96.494</ele>
        <time>2010-10-09T15:27:07Z</time>
      </trkpt>
      <trkpt lat="43.37367" lon="6.70009">
        <ele>98.812</ele>
        <time>2010-10-09T15:27:14Z</time>
      </trkpt>
      <trkpt lat="43.37371" lon="6.70006">
        <ele>99.419</ele>
        <time>2010-10-09T15:27:17Z</time>
      </trkpt>
      <trkpt lat="43.37378" lon="6.70006">
        <ele>101.076</ele>
        <time>2010-10-09T15:27:23Z</time>
      </trkpt>
      <trkpt lat="43.37386" lon="6.70017">
        <ele>103.569</ele>
        <time>2010-10-09T15:27:32Z</time>
      </trkpt>
      <trkpt lat="43.37394" lon="6.70029">
        <ele>106.236</ele>
        <time>2010-10-09T15:27:41Z</time>
      </trkpt>
      <trkpt lat="43.37396" lon="6.70029">
        <ele>106.459</ele>
        <time>2010-10-09T15:27:49Z</time>
      </trkpt>
      <trkpt lat="43.37398" lon="6.70032">
        <ele>107.189</ele>
        <time>2010-10-09T15:28:16Z</time>
      </trkpt>
      <trkpt lat="43.37398" lon="6.70032">
        <ele>107.45</ele>
        <time>2010-10-09T15:28:22Z</time>
      </trkpt>
      <trkpt lat="43.37408" lon="6.70037">
        <ele>109.476</ele>
        <time>2010-10-09T15:28:29Z</time>
      </trkpt>
      <trkpt lat="43.37426" lon="6.70023">
        <ele>110.953</ele>
        <time>2010-10-09T15:28:44Z</time>
      </trkpt>
      <trkpt lat="43.37437" lon="6.70013">
        <ele>111.208</ele>
        <time>2010-10-09T15:28:54Z</time>
      </trkpt>
      <trkpt lat="43.37443" lon="6.70002">
        <ele>110.944</ele>
        <time>2010-10-09T15:29:02Z</time>
      </trkpt>
      <trkpt lat="43.37442" lon="6.70002">
        <ele>111.535</ele>
        <time>2010-10-09T15:29:11Z</time>
      </trkpt>
      <trkpt lat="43.37442" lon="6.70002">
        <ele>111.215</ele>
        <time>2010-10-09T15:30:22Z</time>
      </trkpt>
      <trkpt lat="43.37441" lon="6.70003">
        <ele>112.549</ele>
        <time>2010-10-09T15:35:56Z</time>
      </trkpt>
      <trkpt lat="43.37441" lon="6.70004">
        <ele>112.005</ele>
        <time>2010-10-09T15:41:00Z</time>
      </trkpt>
      <trkpt lat="43.37444" lon="6.7">
        <ele>112.769</ele>
        <time>2010-10-09T15:44:02Z</time>
      </trkpt>
      <trkpt lat="43.37457" lon="6.69985">
        <ele>113.032</ele>
        <time>2010-10-09T15:44:09Z</time>
      </trkpt>
      <trkpt lat="43.37474" lon="6.69963">
        <ele>114.646</ele>
        <time>2010-10-09T15:44:18Z</time>
      </trkpt>
      <trkpt lat="43.37496" lon="6.69943">
        <ele>116.997</ele>
        <time>2010-10-09T15:44:29Z</time>
      </trkpt>
      <trkpt lat="43.37513" lon="6.69944">
        <ele>117.787</ele>
        <time>2010-10-09T15:44:37Z</time>
      </trkpt>
      <trkpt lat="43.37525" lon="6.69967">
        <ele>118.319</ele>
        <time>2010-10-09T15:44:47Z</time>
      </trkpt>
      <trkpt lat="43.37535" lon="6.69986">
        <ele>119.791</ele>
        <time>2010-10-09T15:44:57Z</time>
      </trkpt>
      <trkpt lat="43.37552" lon="6.70002">
        <ele>122.321</ele>
        <time>2010-10-09T15:45:09Z</time>
      </trkpt>
      <trkpt lat="43.3757" lon="6.70003">
        <ele>125.183</ele>
        <time>2010-10-09T15:45:18Z</time>
      </trkpt>
      <trkpt lat="43.37589" lon="6.69998">
        <ele>126.62</ele>
        <time>2010-10-09T15:45:27Z</time>
      </trkpt>
      <trkpt lat="43.37609" lon="6.69994">
        <ele>126.58</ele>
        <time>2010-10-09T15:45:34Z</time>
      </trkpt>
      <trkpt lat="43.37618" lon="6.69985">
        <ele>126.151</ele>
        <time>2010-10-09T15:45:37Z</time>
      </trkpt>
      <trkpt lat="43.37638" lon="6.6998">
        <ele>124.159</ele>
        <time>2010-10-09T15:45:42Z</time>
      </trkpt>
      <trkpt lat="43.37659" lon="6.69973">
        <ele>121.365</ele>
        <time>2010-10-09T15:45:46Z</time>
      </trkpt>
      <trkpt lat="43.37671" lon="6.69967">
        <ele>120.336</ele>
        <time>2010-10-09T15:45:48Z</time>
      </trkpt>
      <trkpt lat="43.37709" lon="6.69933">
        <ele>116.051</ele>
        <time>2010-10-09T15:45:54Z</time>
      </trkpt>
      <trkpt lat="43.37717" lon="6.69933">
        <ele>114.969</ele>
        <time>2010-10-09T15:45:56Z</time>
      </trkpt>
      <trkpt lat="43.37722" lon="6.69941">
        <ele>115.346</ele>
        <time>2010-10-09T15:45:58Z</time>
      </trkpt>
      <trkpt lat="43.37725" lon="6.69947">
        <ele>116.059</ele>
        <time>2010-10-09T15:46:00Z</time>
      </trkpt>
      <trkpt lat="43.37728" lon="6.69957">
        <ele>117.322</ele>
        <time>2010-10-09T15:46:03Z</time>
      </trkpt>
      <trkpt lat="43.37741" lon="6.69974">
        <ele>117.636</ele>
        <time>2010-10-09T15:46:09Z</time>
      </trkpt>
      <trkpt lat="43.37751" lon="6.69989">
        <ele>119.081</ele>
        <time>2010-10-09T15:46:16Z</time>
      </trkpt>
      <trkpt lat="43.37753" lon="6.69993">
        <ele>120.002</ele>
        <time>2010-10-09T15:46:30Z</time>
      </trkpt>
      <trkpt lat="43.3777" lon="6.70001">
        <ele>121.007</ele>
        <time>2010-10-09T15:46:38Z</time>
      </trkpt>
      <trkpt lat="43.37781" lon="6.70013">
        <ele>123.599</ele>
        <time>2010-10-09T15:46:45Z</time>
      </trkpt>
      <trkpt lat="43.37783" lon="6.70015">
        <ele>124.248</ele>
        <time>2010-10-09T15:46:47Z</time>
      </trkpt>
      <trkpt lat="43.37792" lon="6.70023">
        <ele>125.803</ele>
        <time>2010-10-09T15:46:55Z</time>
      </trkpt>
      <trkpt lat="43.37803" lon="6.70028">
        <ele>127.792</ele>
        <time>2010-10-09T15:47:03Z</time>
      </trkpt>
      <trkpt lat="43.37811" lon="6.70027">
        <ele>129.602</ele>
        <time>2010-10-09T15:47:09Z</time>
      </trkpt>
      <trkpt lat="43.37831" lon="6.70032">
        <ele>131.169</ele>
        <time>2010-10-09T15:47:18Z</time>
      </trkpt>
      <trkpt lat="43.37849" lon="6.70037">
        <ele>132.969</ele>
        <time>2010-10-09T15:47:26Z</time>
      </trkpt>
      <trkpt lat="43.37868" lon="6.70051">
        <ele>132.813</ele>
        <time>2010-10-09T15:47:33Z</time>
      </trkpt>
      <trkpt lat="43.37887" lon="6.70066">
        <ele>132.117</ele>
        <time>2010-10-09T15:47:40Z</time>
      </trkpt>
      <trkpt lat="43.37892" lon="6.70071">
        <ele>131.612</ele>
        <time>2010-10-09T15:47:44Z</time>
      </trkpt>
      <trkpt lat="43.37892" lon="6.70074">
        <ele>131.622</ele>
        <time>2010-10-09T15:49:32Z</time>
      </trkpt>
      <trkpt lat="43.37901" lon="6.70103">
        <ele>131.077</ele>
        <time>2010-10-09T15:49:41Z</time>
      </trkpt>
      <trkpt lat="43.37904" lon="6.70113">
        <ele>130.709</ele>
        <time>2010-10-09T15:49:43Z</time>
      </trkpt>
      <trkpt lat="43.37922" lon="6.70143">
        <ele>127.911</ele>
        <time>2010-10-09T15:49:48Z</time>
      </trkpt>
      <trkpt lat="43.37927" lon="6.70149">
        <ele>126.312</ele>
        <time>2010-10-09T15:49:49Z</time>
      </trkpt>
      <trkpt lat="43.37956" lon="6.7016">
        <ele>122.026</ele>
        <time>2010-10-09T15:49:54Z</time>
      </trkpt>
      <trkpt lat="43.37968" lon="6.70151">
        <ele>121.254</ele>
        <time>2010-10-09T15:49:56Z</time>
      </trkpt>
      <trkpt lat="43.38022" lon="6.70106">
        <ele>117.944</ele>
        <time>2010-10-09T15:50:04Z</time>
      </trkpt>
      <trkpt lat="43.38059" lon="6.70082">
        <ele>113.151</ele>
        <time>2010-10-09T15:50:09Z</time>
      </trkpt>
      <trkpt lat="43.38065" lon="6.70079">
        <ele>112.785</ele>
        <time>2010-10-09T15:50:10Z</time>
      </trkpt>
      <trkpt lat="43.38083" lon="6.70072">
        <ele>109.313</ele>
        <time>2010-10-09T15:50:13Z</time>
      </trkpt>
      <trkpt lat="43.38109" lon="6.70072">
        <ele>105.505</ele>
        <time>2010-10-09T15:50:17Z</time>
      </trkpt>
      <trkpt lat="43.38137" lon="6.70074">
        <ele>101.135</ele>
        <time>2010-10-09T15:50:21Z</time>
      </trkpt>
      <trkpt lat="43.38144" lon="6.70074">
        <ele>100.202</ele>
        <time>2010-10-09T15:50:22Z</time>
      </trkpt>
      <trkpt lat="43.38167" lon="6.70077">
        <ele>97.737</ele>
        <time>2010-10-09T15:50:25Z</time>
      </trkpt>
      <trkpt lat="43.38191" lon="6.70074">
        <ele>93.198</ele>
        <time>2010-10-09T15:50:29Z</time>
      </trkpt>
      <trkpt lat="43.382" lon="6.70085">
        <ele>91.496</ele>
        <time>2010-10-09T15:50:34Z</time>
      </trkpt>
      <trkpt lat="43.38215" lon="6.7011">
        <ele>92.084</ele>
        <time>2010-10-09T15:50:40Z</time>
      </trkpt>
      <trkpt lat="43.38229" lon="6.70125">
        <ele>93.924</ele>
        <time>2010-10-09T15:50:46Z</time>
      </trkpt>
      <trkpt lat="43.38244" lon="6.70138">
        <ele>94.314</ele>
        <time>2010-10-09T15:50:52Z</time>
      </trkpt>
      <trkpt lat="43.3826" lon="6.70152">
        <ele>94.961</ele>
        <time>2010-10-09T15:50:58Z</time>
      </trkpt>
      <trkpt lat="43.38282" lon="6.70175">
        <ele>95.031</ele>
        <time>2010-10-09T15:51:03Z</time>
      </trkpt>
      <trkpt lat="43.38295" lon="6.70189">
        <ele>94.721</ele>
        <time>2010-10-09T15:51:06Z</time>
      </trkpt>
      <trkpt lat="43.38306" lon="6.70228">
        <ele>93.763</ele>
        <time>2010-10-09T15:51:11Z</time>
      </trkpt>
      <trkpt lat="43.38314" lon="6.70254">
        <ele>94.905</ele>
        <time>2010-10-09T15:51:15Z</time>
      </trkpt>
      <trkpt lat="43.38313" lon="6.70285">
        <ele>95.518</ele>
        <time>2010-10-09T15:51:20Z</time>
      </trkpt>
      <trkpt lat="43.38323" lon="6.70305">
        <ele>96.816</ele>
        <time>2010-10-09T15:51:25Z</time>
      </trkpt>
      <trkpt lat="43.38326" lon="6.70307">
        <ele>96.902</ele>
        <time>2010-10-09T15:51:26Z</time>
      </trkpt>
      <trkpt lat="43.38338" lon="6.70312">
        <ele>97.566</ele>
        <time>2010-10-09T15:51:29Z</time>
      </trkpt>
      <trkpt lat="43.38353" lon="6.70329">
        <ele>98.675</ele>
        <time>2010-10-09T15:51:34Z</time>
      </trkpt>
      <trkpt lat="43.38353" lon="6.70334">
        <ele>98.949</ele>
        <time>2010-10-09T15:51:35Z</time>
      </trkpt>
      <trkpt lat="43.38354" lon="6.70341">
        <ele>99.512</ele>
        <time>2010-10-09T15:51:37Z</time>
      </trkpt>
      <trkpt lat="43.38362" lon="6.7035">
        <ele>99.634</ele>
        <time>2010-10-09T15:51:44Z</time>
      </trkpt>
      <trkpt lat="43.38369" lon="6.70355">
        <ele>99.608</ele>
        <time>2010-10-09T15:52:05Z</time>
      </trkpt>
      <trkpt lat="43.38373" lon="6.70361">
        <ele>99.465</ele>
        <time>2010-10-09T15:52:10Z</time>
      </trkpt>
      <trkpt lat="43.38382" lon="6.70363">
        <ele>100.511</ele>
        <time>2010-10-09T15:52:15Z</time>
      </trkpt>
      <trkpt lat="43.38385" lon="6.70364">
        <ele>101.553</ele>
        <time>2010-10-09T15:52:17Z</time>
      </trkpt>
      <trkpt lat="43.38394" lon="6.7036">
        <ele>102.503</ele>
        <time>2010-10-09T15:52:24Z</time>
      </trkpt>
      <trkpt lat="43.38402" lon="6.70359">
        <ele>103.139</ele>
        <time>2010-10-09T15:52:29Z</time>
      </trkpt>
      <trkpt lat="43.38409" lon="6.70365">
        <ele>104.979</ele>
        <time>2010-10-09T15:52:33Z</time>
      </trkpt>
      <trkpt lat="43.38421" lon="6.70372">
        <ele>107.597</ele>
        <time>2010-10-09T15:52:39Z</time>
      </trkpt>
      <trkpt lat="43.38425" lon="6.70383">
        <ele>109.863</ele>
        <time>2010-10-09T15:52:44Z</time>
      </trkpt>
      <trkpt lat="43.38427" lon="6.70389">
        <ele>110.423</ele>
        <time>2010-10-09T15:52:46Z</time>
      </trkpt>
      <trkpt lat="43.38438" lon="6.70401">
        <ele>111.293</ele>
        <time>2010-10-09T15:52:53Z</time>
      </trkpt>
      <trkpt lat="43.38431" lon="6.70412">
        <ele>113.224</ele>
        <time>2010-10-09T15:52:59Z</time>
      </trkpt>
      <trkpt lat="43.38423" lon="6.70427">
        <ele>115.145</ele>
        <time>2010-10-09T15:53:08Z</time>
      </trkpt>
      <trkpt lat="43.38411" lon="6.70448">
        <ele>116.638</ele>
        <time>2010-10-09T15:53:18Z</time>
      </trkpt>
      <trkpt lat="43.38405" lon="6.70463">
        <ele>117.707</ele>
        <time>2010-10-09T15:53:25Z</time>
      </trkpt>
      <trkpt lat="43.38388" lon="6.70481">
        <ele>121.076</ele>
        <time>2010-10-09T15:53:38Z</time>
      </trkpt>
      <trkpt lat="43.38377" lon="6.70495">
        <ele>123.873</ele>
        <time>2010-10-09T15:53:47Z</time>
      </trkpt>
      <trkpt lat="43.38371" lon="6.70499">
        <ele>124.987</ele>
        <time>2010-10-09T15:53:51Z</time>
      </trkpt>
      <trkpt lat="43.38357" lon="6.70516">
        <ele>126.728</ele>
        <time>2010-10-09T15:54:03Z</time>
      </trkpt>
      <trkpt lat="43.38358" lon="6.70518">
        <ele>126.979</ele>
        <time>2010-10-09T15:54:05Z</time>
      </trkpt>
      <trkpt lat="43.38359" lon="6.70523">
        <ele>126.649</ele>
        <time>2010-10-09T15:54:11Z</time>
      </trkpt>
      <trkpt lat="43.38355" lon="6.70521">
        <ele>126.935</ele>
        <time>2010-10-09T15:54:17Z</time>
      </trkpt>
      <trkpt lat="43.38354" lon="6.70524">
        <ele>127.006</ele>
        <time>2010-10-09T15:54:23Z</time>
      </trkpt>
      <trkpt lat="43.38351" lon="6.70529">
        <ele>126.873</ele>
        <time>2010-10-09T15:54:31Z</time>
      </trkpt>
      <trkpt lat="43.38351" lon="6.7053">
        <ele>126.968</ele>
        <time>2010-10-09T15:54:45Z</time>
      </trkpt>
      <trkpt lat="43.38351" lon="6.70528">
        <ele>125.93</ele>
        <time>2010-10-09T16:02:13Z</time>
      </trkpt>
      <trkpt lat="43.38351" lon="6.70528">
        <ele>125.846</ele>
        <time>2010-10-09T16:02:34Z</time>
      </trkpt>
      <trkpt lat="43.38351" lon="6.70528">
        <ele>126.022</ele>
        <time>2010-10-09T16:02:38Z</time>
      </trkpt>
      <trkpt lat="43.38361" lon="6.70524">
        <ele>125.587</ele>
        <time>2010-10-09T16:02:44Z</time>
      </trkpt>
      <trkpt lat="43.38376" lon="6.70513">
        <ele>124.206</ele>
        <time>2010-10-09T16:02:49Z</time>
      </trkpt>
      <trkpt lat="43.38393" lon="6.70507">
        <ele>120.9</ele>
        <time>2010-10-09T16:02:53Z</time>
      </trkpt>
      <trkpt lat="43.38397" lon="6.70509">
        <ele>119.73</ele>
        <time>2010-10-09T16:02:54Z</time>
      </trkpt>
      <trkpt lat="43.38414" lon="6.70522">
        <ele>114.999</ele>
        <time>2010-10-09T16:02:58Z</time>
      </trkpt>
      <trkpt lat="43.38427" lon="6.70549">
        <ele>110.666</ele>
        <time>2010-10-09T16:03:03Z</time>
      </trkpt>
      <trkpt lat="43.3843" lon="6.70554">
        <ele>109.401</ele>
        <time>2010-10-09T16:03:04Z</time>
      </trkpt>
      <trkpt lat="43.38439" lon="6.70571">
        <ele>107.042</ele>
        <time>2010-10-09T16:03:07Z</time>
      </trkpt>
      <trkpt lat="43.38464" lon="6.70582">
        <ele>103.596</ele>
        <time>2010-10-09T16:03:12Z</time>
      </trkpt>
      <trkpt lat="43.38478" lon="6.70582">
        <ele>101.367</ele>
        <time>2010-10-09T16:03:14Z</time>
      </trkpt>
      <trkpt lat="43.38489" lon="6.70585">
        <ele>100.16</ele>
        <time>2010-10-09T16:03:16Z</time>
      </trkpt>
      <trkpt lat="43.38501" lon="6.70602">
        <ele>99.584</ele>
        <time>2010-10-09T16:03:19Z</time>
      </trkpt>
      <trkpt lat="43.38514" lon="6.70618">
        <ele>97.625</ele>
        <time>2010-10-09T16:03:22Z</time>
      </trkpt>
      <trkpt lat="43.38536" lon="6.70656">
        <ele>96.254</ele>
        <time>2010-10-09T16:03:28Z</time>
      </trkpt>
      <trkpt lat="43.38549" lon="6.70683">
        <ele>96.202</ele>
        <time>2010-10-09T16:03:32Z</time>
      </trkpt>
      <trkpt lat="43.38551" lon="6.70687">
        <ele>96.377</ele>
        <time>2010-10-09T16:03:33Z</time>
      </trkpt>
      <trkpt lat="43.3856" lon="6.70702">
        <ele>99.662</ele>
        <time>2010-10-09T16:03:38Z</time>
      </trkpt>
      <trkpt lat="43.3856" lon="6.70704">
        <ele>99.854</ele>
        <time>2010-10-09T16:03:42Z</time>
      </trkpt>
      <trkpt lat="43.3856" lon="6.70705">
        <ele>99.93</ele>
        <time>2010-10-09T16:03:51Z</time>
      </trkpt>
      <trkpt lat="43.38562" lon="6.70707">
        <ele>100.746</ele>
        <time>2010-10-09T16:03:58Z</time>
      </trkpt>
      <trkpt lat="43.3857" lon="6.70717">
        <ele>102.922</ele>
        <time>2010-10-09T16:04:04Z</time>
      </trkpt>
      <trkpt lat="43.38584" lon="6.70725">
        <ele>105.913</ele>
        <time>2010-10-09T16:04:10Z</time>
      </trkpt>
      <trkpt lat="43.38606" lon="6.70732">
        <ele>108.041</ele>
        <time>2010-10-09T16:04:19Z</time>
      </trkpt>
      <trkpt lat="43.38631" lon="6.70737">
        <ele>106.559</ele>
        <time>2010-10-09T16:04:28Z</time>
      </trkpt>
      <trkpt lat="43.38644" lon="6.70739">
        <ele>104.128</ele>
        <time>2010-10-09T16:04:32Z</time>
      </trkpt>
      <trkpt lat="43.38653" lon="6.70725">
        <ele>100.163</ele>
        <time>2010-10-09T16:04:37Z</time>
      </trkpt>
      <trkpt lat="43.38667" lon="6.70727">
        <ele>96.601</ele>
        <time>2010-10-09T16:04:41Z</time>
      </trkpt>
      <trkpt lat="43.38691" lon="6.70724">
        <ele>95.992</ele>
        <time>2010-10-09T16:04:47Z</time>
      </trkpt>
      <trkpt lat="43.38694" lon="6.70723">
        <ele>97.331</ele>
        <time>2010-10-09T16:04:55Z</time>
      </trkpt>
      <trkpt lat="43.38696" lon="6.70724">
        <ele>98.001</ele>
        <time>2010-10-09T16:05:03Z</time>
      </trkpt>
      <trkpt lat="43.38697" lon="6.70724">
        <ele>98.139</ele>
        <time>2010-10-09T16:05:12Z</time>
      </trkpt>
      <trkpt lat="43.38703" lon="6.70721">
        <ele>100.574</ele>
        <time>2010-10-09T16:05:18Z</time>
      </trkpt>
      <trkpt lat="43.38707" lon="6.70721">
        <ele>101.325</ele>
        <time>2010-10-09T16:05:20Z</time>
      </trkpt>
      <trkpt lat="43.38714" lon="6.70723">
        <ele>102.972</ele>
        <time>2010-10-09T16:05:23Z</time>
      </trkpt>
      <trkpt lat="43.38739" lon="6.70719">
        <ele>104.857</ele>
        <time>2010-10-09T16:05:33Z</time>
      </trkpt>
      <trkpt lat="43.38763" lon="6.70702">
        <ele>103.022</ele>
        <time>2010-10-09T16:05:40Z</time>
      </trkpt>
      <trkpt lat="43.38791" lon="6.70687">
        <ele>100.605</ele>
        <time>2010-10-09T16:05:45Z</time>
      </trkpt>
      <trkpt lat="43.388" lon="6.70681">
        <ele>99.591</ele>
        <time>2010-10-09T16:05:47Z</time>
      </trkpt>
      <trkpt lat="43.38832" lon="6.7067">
        <ele>95.747</ele>
        <time>2010-10-09T16:05:52Z</time>
      </trkpt>
      <trkpt lat="43.38851" lon="6.7066">
        <ele>90.999</ele>
        <time>2010-10-09T16:05:56Z</time>
      </trkpt>
      <trkpt lat="43.38859" lon="6.70655">
        <ele>89.262</ele>
        <time>2010-10-09T16:05:58Z</time>
      </trkpt>
      <trkpt lat="43.38872" lon="6.70642">
        <ele>87.945</ele>
        <time>2010-10-09T16:06:01Z</time>
      </trkpt>
      <trkpt lat="43.38877" lon="6.70633">
        <ele>88.282</ele>
        <time>2010-10-09T16:06:03Z</time>
      </trkpt>
      <trkpt lat="43.38885" lon="6.70617">
        <ele>90.76</ele>
        <time>2010-10-09T16:06:10Z</time>
      </trkpt>
      <trkpt lat="43.38891" lon="6.70607">
        <ele>93.761</ele>
        <time>2010-10-09T16:06:15Z</time>
      </trkpt>
      <trkpt lat="43.38899" lon="6.70607">
        <ele>95.475</ele>
        <time>2010-10-09T16:06:21Z</time>
      </trkpt>
      <trkpt lat="43.38908" lon="6.70602">
        <ele>96.742</ele>
        <time>2010-10-09T16:06:29Z</time>
      </trkpt>
      <trkpt lat="43.38911" lon="6.70597">
        <ele>97.305</ele>
        <time>2010-10-09T16:06:36Z</time>
      </trkpt>
      <trkpt lat="43.3891" lon="6.706">
        <ele>97.065</ele>
        <time>2010-10-09T16:06:43Z</time>
      </trkpt>
      <trkpt lat="43.3891" lon="6.70599">
        <ele>97.19</ele>
        <time>2010-10-09T16:07:39Z</time>
      </trkpt>
      <trkpt lat="43.38912" lon="6.70599">
        <ele>97.316</ele>
        <time>2010-10-09T16:07:41Z</time>
      </trkpt>
      <trkpt lat="43.38921" lon="6.70593">
        <ele>97.089</ele>
        <time>2010-10-09T16:07:47Z</time>
      </trkpt>
      <trkpt lat="43.38936" lon="6.70594">
        <ele>95.149</ele>
        <time>2010-10-09T16:07:53Z</time>
      </trkpt>
      <trkpt lat="43.38953" lon="6.70588">
        <ele>91.549</ele>
        <time>2010-10-09T16:07:58Z</time>
      </trkpt>
      <trkpt lat="43.38955" lon="6.70586">
        <ele>90.593</ele>
        <time>2010-10-09T16:07:59Z</time>
      </trkpt>
      <trkpt lat="43.38966" lon="6.70586">
        <ele>87.974</ele>
        <time>2010-10-09T16:08:03Z</time>
      </trkpt>
      <trkpt lat="43.38979" lon="6.70584">
        <ele>84.16</ele>
        <time>2010-10-09T16:08:07Z</time>
      </trkpt>
      <trkpt lat="43.3899" lon="6.70572">
        <ele>79.23</ele>
        <time>2010-10-09T16:08:13Z</time>
      </trkpt>
      <trkpt lat="43.38999" lon="6.70572">
        <ele>76.284</ele>
        <time>2010-10-09T16:08:17Z</time>
      </trkpt>
      <trkpt lat="43.39009" lon="6.70568">
        <ele>71.268</ele>
        <time>2010-10-09T16:08:21Z</time>
      </trkpt>
      <trkpt lat="43.39021" lon="6.70562">
        <ele>66.968</ele>
        <time>2010-10-09T16:08:24Z</time>
      </trkpt>
      <trkpt lat="43.39035" lon="6.70559">
        <ele>63.201</ele>
        <time>2010-10-09T16:08:28Z</time>
      </trkpt>
      <trkpt lat="43.3905" lon="6.70565">
        <ele>59.559</ele>
        <time>2010-10-09T16:08:33Z</time>
      </trkpt>
      <trkpt lat="43.39065" lon="6.70578">
        <ele>58.745</ele>
        <time>2010-10-09T16:08:39Z</time>
      </trkpt>
      <trkpt lat="43.39077" lon="6.70586">
        <ele>59.429</ele>
        <time>2010-10-09T16:08:44Z</time>
      </trkpt>
      <trkpt lat="43.39077" lon="6.70586">
        <ele>58.583</ele>
        <time>2010-10-09T16:08:52Z</time>
      </trkpt>
      <trkpt lat="43.39079" lon="6.70587">
        <ele>58.982</ele>
        <time>2010-10-09T16:09:44Z</time>
      </trkpt>
      <trkpt lat="43.39082" lon="6.70589">
        <ele>59.027</ele>
        <time>2010-10-09T16:09:53Z</time>
      </trkpt>
      <trkpt lat="43.39088" lon="6.70598">
        <ele>58.692</ele>
        <time>2010-10-09T16:11:21Z</time>
      </trkpt>
      <trkpt lat="43.391" lon="6.70612">
        <ele>57.79</ele>
        <time>2010-10-09T16:11:24Z</time>
      </trkpt>
      <trkpt lat="43.39108" lon="6.70647">
        <ele>54.811</ele>
        <time>2010-10-09T16:11:28Z</time>
      </trkpt>
      <trkpt lat="43.39107" lon="6.70658">
        <ele>54.574</ele>
        <time>2010-10-09T16:11:29Z</time>
      </trkpt>
      <trkpt lat="43.39103" lon="6.7069">
        <ele>53.695</ele>
        <time>2010-10-09T16:11:32Z</time>
      </trkpt>
      <trkpt lat="43.39111" lon="6.7071">
        <ele>54.251</ele>
        <time>2010-10-09T16:11:35Z</time>
      </trkpt>
      <trkpt lat="43.3914" lon="6.70719">
        <ele>57.47</ele>
        <time>2010-10-09T16:11:42Z</time>
      </trkpt>
      <trkpt lat="43.39143" lon="6.70723">
        <ele>57.47</ele>
        <time>2010-10-09T16:11:43Z</time>
      </trkpt>
      <trkpt lat="43.39149" lon="6.70733">
        <ele>56.947</ele>
        <time>2010-10-09T16:11:45Z</time>
      </trkpt>
      <trkpt lat="43.39168" lon="6.70738">
        <ele>57.386</ele>
        <time>2010-10-09T16:11:49Z</time>
      </trkpt>
      <trkpt lat="43.39199" lon="6.70734">
        <ele>58.198</ele>
        <time>2010-10-09T16:11:57Z</time>
      </trkpt>
      <trkpt lat="43.39228" lon="6.70735">
        <ele>56.503</ele>
        <time>2010-10-09T16:12:05Z</time>
      </trkpt>
      <trkpt lat="43.39239" lon="6.70728">
        <ele>52.875</ele>
        <time>2010-10-09T16:12:08Z</time>
      </trkpt>
      <trkpt lat="43.39256" lon="6.70724">
        <ele>50.34</ele>
        <time>2010-10-09T16:12:11Z</time>
      </trkpt>
      <trkpt lat="43.39262" lon="6.70726">
        <ele>49.785</ele>
        <time>2010-10-09T16:12:12Z</time>
      </trkpt>
      <trkpt lat="43.3928" lon="6.70738">
        <ele>50.048</ele>
        <time>2010-10-09T16:12:15Z</time>
      </trkpt>
      <trkpt lat="43.39329" lon="6.70775">
        <ele>51.486</ele>
        <time>2010-10-09T16:12:24Z</time>
      </trkpt>
      <trkpt lat="43.39368" lon="6.70801">
        <ele>49.626</ele>
        <time>2010-10-09T16:12:31Z</time>
      </trkpt>
      <trkpt lat="43.39375" lon="6.70805">
        <ele>50.053</ele>
        <time>2010-10-09T16:12:32Z</time>
      </trkpt>
      <trkpt lat="43.39398" lon="6.70834">
        <ele>49.753</ele>
        <time>2010-10-09T16:12:37Z</time>
      </trkpt>
      <trkpt lat="43.39421" lon="6.70898">
        <ele>49.476</ele>
        <time>2010-10-09T16:12:46Z</time>
      </trkpt>
      <trkpt lat="43.3945" lon="6.70974">
        <ele>46.82</ele>
        <time>2010-10-09T16:12:56Z</time>
      </trkpt>
      <trkpt lat="43.39456" lon="6.71023">
        <ele>43.289</ele>
        <time>2010-10-09T16:13:01Z</time>
      </trkpt>
      <trkpt lat="43.39471" lon="6.71068">
        <ele>38.551</ele>
        <time>2010-10-09T16:13:05Z</time>
      </trkpt>
      <trkpt lat="43.39468" lon="6.7109">
        <ele>36.476</ele>
        <time>2010-10-09T16:13:07Z</time>
      </trkpt>
      <trkpt lat="43.39447" lon="6.71102">
        <ele>35.178</ele>
        <time>2010-10-09T16:13:10Z</time>
      </trkpt>
      <trkpt lat="43.39419" lon="6.71128">
        <ele>32.47</ele>
        <time>2010-10-09T16:13:15Z</time>
      </trkpt>
      <trkpt lat="43.39429" lon="6.71144">
        <ele>30.647</ele>
        <time>2010-10-09T16:13:17Z</time>
      </trkpt>
      <trkpt lat="43.39436" lon="6.71149">
        <ele>30.551</ele>
        <time>2010-10-09T16:13:18Z</time>
      </trkpt>
      <trkpt lat="43.39468" lon="6.71158">
        <ele>29.278</ele>
        <time>2010-10-09T16:13:22Z</time>
      </trkpt>
      <trkpt lat="43.39475" lon="6.71155">
        <ele>28.185</ele>
        <time>2010-10-09T16:13:23Z</time>
      </trkpt>
      <trkpt lat="43.39518" lon="6.71137">
        <ele>26.66</ele>
        <time>2010-10-09T16:13:29Z</time>
      </trkpt>
      <trkpt lat="43.39547" lon="6.71144">
        <ele>26.202</ele>
        <time>2010-10-09T16:13:33Z</time>
      </trkpt>
      <trkpt lat="43.3958" lon="6.71169">
        <ele>28.084</ele>
        <time>2010-10-09T16:13:39Z</time>
      </trkpt>
      <trkpt lat="43.39584" lon="6.71171">
        <ele>27.672</ele>
        <time>2010-10-09T16:13:40Z</time>
      </trkpt>
      <trkpt lat="43.39595" lon="6.7116">
        <ele>25.265</ele>
        <time>2010-10-09T16:13:45Z</time>
      </trkpt>
      <trkpt lat="43.39596" lon="6.71152">
        <ele>23.558</ele>
        <time>2010-10-09T16:13:47Z</time>
      </trkpt>
      <trkpt lat="43.39597" lon="6.71136">
        <ele>19.587</ele>
        <time>2010-10-09T16:13:52Z</time>
      </trkpt>
      <trkpt lat="43.39596" lon="6.71133">
        <ele>19.348</ele>
        <time>2010-10-09T16:13:53Z</time>
      </trkpt>
      <trkpt lat="43.39595" lon="6.71123">
        <ele>16.087</ele>
        <time>2010-10-09T16:13:57Z</time>
      </trkpt>
      <trkpt lat="43.39597" lon="6.71111">
        <ele>12.482</ele>
        <time>2010-10-09T16:14:01Z</time>
      </trkpt>
      <trkpt lat="43.39603" lon="6.71095">
        <ele>6.888</ele>
        <time>2010-10-09T16:14:05Z</time>
      </trkpt>
      <trkpt lat="43.39607" lon="6.71086">
        <ele>5.728</ele>
        <time>2010-10-09T16:14:07Z</time>
      </trkpt>
      <trkpt lat="43.39614" lon="6.7108">
        <ele>6.575</ele>
        <time>2010-10-09T16:14:12Z</time>
      </trkpt>
      <trkpt lat="43.39614" lon="6.7108">
        <ele>6.368</ele>
        <time>2010-10-09T16:14:24Z</time>
      </trkpt>
      <trkpt lat="43.39613" lon="6.7108">
        <ele>6.308</ele>
        <time>2010-10-09T16:14:35Z</time>
      </trkpt>
      <trkpt lat="43.39621" lon="6.71078">
        <ele>7.17</ele>
        <time>2010-10-09T16:14:52Z</time>
      </trkpt>
      <trkpt lat="43.39641" lon="6.71085">
        <ele>6.718</ele>
        <time>2010-10-09T16:14:57Z</time>
      </trkpt>
      <trkpt lat="43.39668" lon="6.71103">
        <ele>8.722</ele>
        <time>2010-10-09T16:15:04Z</time>
      </trkpt>
      <trkpt lat="43.39674" lon="6.71108">
        <ele>8.334</ele>
        <time>2010-10-09T16:15:06Z</time>
      </trkpt>
      <trkpt lat="43.39679" lon="6.71129">
        <ele>6.109</ele>
        <time>2010-10-09T16:15:10Z</time>
      </trkpt>
      <trkpt lat="43.39697" lon="6.71163">
        <ele>5.122</ele>
        <time>2010-10-09T16:15:16Z</time>
      </trkpt>
      <trkpt lat="43.39705" lon="6.71173">
        <ele>4.988</ele>
        <time>2010-10-09T16:15:18Z</time>
      </trkpt>
      <trkpt lat="43.39723" lon="6.71204">
        <ele>4.496</ele>
        <time>2010-10-09T16:15:23Z</time>
      </trkpt>
      <trkpt lat="43.39757" lon="6.71241">
        <ele>4.376</ele>
        <time>2010-10-09T16:15:30Z</time>
      </trkpt>
      <trkpt lat="43.39768" lon="6.71249">
        <ele>4.018</ele>
        <time>2010-10-09T16:15:32Z</time>
      </trkpt>
      <trkpt lat="43.39797" lon="6.71255">
        <ele>3.625</ele>
        <time>2010-10-09T16:15:37Z</time>
      </trkpt>
      <trkpt lat="43.39808" lon="6.71259">
        <ele>3.125</ele>
        <time>2010-10-09T16:15:39Z</time>
      </trkpt>
      <trkpt lat="43.39824" lon="6.71266">
        <ele>3.009</ele>
        <time>2010-10-09T16:15:42Z</time>
      </trkpt>
      <trkpt lat="43.39864" lon="6.71277">
        <ele>2.845</ele>
        <time>2010-10-09T16:15:49Z</time>
      </trkpt>
      <trkpt lat="43.3992" lon="6.7129">
        <ele>3.508</ele>
        <time>2010-10-09T16:15:58Z</time>
      </trkpt>
      <trkpt lat="43.39941" lon="6.71281">
        <ele>2.414</ele>
        <time>2010-10-09T16:16:02Z</time>
      </trkpt>
      <trkpt lat="43.39954" lon="6.71292">
        <ele>2.417</ele>
        <time>2010-10-09T16:16:06Z</time>
      </trkpt>
      <trkpt lat="43.39954" lon="6.713">
        <ele>2.221</ele>
        <time>2010-10-09T16:16:07Z</time>
      </trkpt>
      <trkpt lat="43.39955" lon="6.71315">
        <ele>2.247</ele>
        <time>2010-10-09T16:16:09Z</time>
      </trkpt>
      <trkpt lat="43.39963" lon="6.71382">
        <ele>2.005</ele>
        <time>2010-10-09T16:16:17Z</time>
      </trkpt>
      <trkpt lat="43.39975" lon="6.7147">
        <ele>1.597</ele>
        <time>2010-10-09T16:16:27Z</time>
      </trkpt>
      <trkpt lat="43.39984" lon="6.71553">
        <ele>1.486</ele>
        <time>2010-10-09T16:16:36Z</time>
      </trkpt>
      <trkpt lat="43.39988" lon="6.71587">
        <ele>1.077</ele>
        <time>2010-10-09T16:16:40Z</time>
      </trkpt>
      <trkpt lat="43.3998" lon="6.71624">
        <ele>0.653</ele>
        <time>2010-10-09T16:16:45Z</time>
      </trkpt>
      <trkpt lat="43.39977" lon="6.71653">
        <ele>0.364</ele>
        <time>2010-10-09T16:16:50Z</time>
      </trkpt>
      <trkpt lat="43.39981" lon="6.71665">
        <ele>0.252</ele>
        <time>2010-10-09T16:16:56Z</time>
      </trkpt>
      <trkpt lat="43.39983" lon="6.71668">
        <ele>0.084</ele>
        <time>2010-10-09T16:16:58Z</time>
      </trkpt>
      <trkpt lat="43.39989" lon="6.71663">
        <ele>-0.034</ele>
        <time>2010-10-09T16:17:03Z</time>
      </trkpt>
      <trkpt lat="43.39991" lon="6.71668">
        <ele>0.625</ele>
        <time>2010-10-09T16:17:15Z</time>
      </trkpt>
      <trkpt lat="43.39991" lon="6.71669">
        <ele>0.368</ele>
        <time>2010-10-09T16:17:26Z</time>
      </trkpt>
      <trkpt lat="43.3999" lon="6.71669">
        <ele>0.515</ele>
        <time>2010-10-09T16:17:38Z</time>
      </trkpt>
      <trkpt lat="43.39985" lon="6.71687">
        <ele>0.41</ele>
        <time>2010-10-09T16:17:44Z</time>
      </trkpt>
      <trkpt lat="43.3998" lon="6.71703">
        <ele>0.163</ele>
        <time>2010-10-09T16:17:47Z</time>
      </trkpt>
      <trkpt lat="43.39977" lon="6.71716">
        <ele>0.143</ele>
        <time>2010-10-09T16:17:49Z</time>
      </trkpt>
      <trkpt lat="43.39968" lon="6.71738">
        <ele>0.43</ele>
        <time>2010-10-09T16:17:53Z</time>
      </trkpt>
      <trkpt lat="43.39963" lon="6.7175">
        <ele>0.712</ele>
        <time>2010-10-09T16:17:55Z</time>
      </trkpt>
      <trkpt lat="43.39949" lon="6.71776">
        <ele>4.182</ele>
        <time>2010-10-09T16:18:02Z</time>
      </trkpt>
      <trkpt lat="43.39937" lon="6.71802">
        <ele>5.071</ele>
        <time>2010-10-09T16:18:10Z</time>
      </trkpt>
      <trkpt lat="43.39928" lon="6.71817">
        <ele>5.503</ele>
        <time>2010-10-09T16:18:17Z</time>
      </trkpt>
      <trkpt lat="43.39914" lon="6.71831">
        <ele>5.701</ele>
        <time>2010-10-09T16:18:25Z</time>
      </trkpt>
      <trkpt lat="43.39896" lon="6.7184">
        <ele>4.641</ele>
        <time>2010-10-09T16:18:31Z</time>
      </trkpt>
      <trkpt lat="43.39865" lon="6.71853">
        <ele>4.408</ele>
        <time>2010-10-09T16:18:39Z</time>
      </trkpt>
      <trkpt lat="43.39821" lon="6.71867">
        <ele>4.451</ele>
        <time>2010-10-09T16:18:50Z</time>
      </trkpt>
      <trkpt lat="43.39766" lon="6.71884">
        <ele>4.713</ele>
        <time>2010-10-09T16:19:03Z</time>
      </trkpt>
      <trkpt lat="43.39709" lon="6.71896">
        <ele>5.624</ele>
        <time>2010-10-09T16:19:16Z</time>
      </trkpt>
      <trkpt lat="43.397" lon="6.7192">
        <ele>3.488</ele>
        <time>2010-10-09T16:19:20Z</time>
      </trkpt>
      <trkpt lat="43.39697" lon="6.7194">
        <ele>2.737</ele>
        <time>2010-10-09T16:19:22Z</time>
      </trkpt>
      <trkpt lat="43.39691" lon="6.71993">
        <ele>1.768</ele>
        <time>2010-10-09T16:19:27Z</time>
      </trkpt>
      <trkpt lat="43.39682" lon="6.72056">
        <ele>0.843</ele>
        <time>2010-10-09T16:19:33Z</time>
      </trkpt>
      <trkpt lat="43.39671" lon="6.72116">
        <ele>0.423</ele>
        <time>2010-10-09T16:19:39Z</time>
      </trkpt>
      <trkpt lat="43.3966" lon="6.72176">
        <ele>0.227</ele>
        <time>2010-10-09T16:19:46Z</time>
      </trkpt>
      <trkpt lat="43.39649" lon="6.72225">
        <ele>0.139</ele>
        <time>2010-10-09T16:19:52Z</time>
      </trkpt>
      <trkpt lat="43.39646" lon="6.72249">
        <ele>0.363</ele>
        <time>2010-10-09T16:19:55Z</time>
      </trkpt>
      <trkpt lat="43.39637" lon="6.723">
        <ele>0.724</ele>
        <time>2010-10-09T16:20:01Z</time>
      </trkpt>
      <trkpt lat="43.39625" lon="6.72384">
        <ele>-0.436</ele>
        <time>2010-10-09T16:20:11Z</time>
      </trkpt>
      <trkpt lat="43.39611" lon="6.72466">
        <ele>0.672</ele>
        <time>2010-10-09T16:20:21Z</time>
      </trkpt>
      <trkpt lat="43.39609" lon="6.72487">
        <ele>1.39</ele>
        <time>2010-10-09T16:20:24Z</time>
      </trkpt>
      <trkpt lat="43.39599" lon="6.72546">
        <ele>1.411</ele>
        <time>2010-10-09T16:20:32Z</time>
      </trkpt>
      <trkpt lat="43.3959" lon="6.72574">
        <ele>1.728</ele>
        <time>2010-10-09T16:20:36Z</time>
      </trkpt>
      <trkpt lat="43.39582" lon="6.72611">
        <ele>1.306</ele>
        <time>2010-10-09T16:20:41Z</time>
      </trkpt>
      <trkpt lat="43.3957" lon="6.72622">
        <ele>-0.147</ele>
        <time>2010-10-09T16:20:44Z</time>
      </trkpt>
      <trkpt lat="43.39565" lon="6.7262">
        <ele>-0.251</ele>
        <time>2010-10-09T16:20:45Z</time>
      </trkpt>
      <trkpt lat="43.39512" lon="6.72599">
        <ele>-0.245</ele>
        <time>2010-10-09T16:20:56Z</time>
      </trkpt>
      <trkpt lat="43.39498" lon="6.72596">
        <ele>-0.82</ele>
        <time>2010-10-09T16:20:59Z</time>
      </trkpt>
      <trkpt lat="43.39469" lon="6.72603">
        <ele>-0.36</ele>
        <time>2010-10-09T16:21:06Z</time>
      </trkpt>
      <trkpt lat="43.39449" lon="6.72611">
        <ele>-0.018</ele>
        <time>2010-10-09T16:21:11Z</time>
      </trkpt>
      <trkpt lat="43.39392" lon="6.72629">
        <ele>-0.062</ele>
        <time>2010-10-09T16:21:25Z</time>
      </trkpt>
      <trkpt lat="43.3938" lon="6.72633">
        <ele>-0.176</ele>
        <time>2010-10-09T16:21:28Z</time>
      </trkpt>
      <trkpt lat="43.39368" lon="6.72637">
        <ele>0.936</ele>
        <time>2010-10-09T16:21:31Z</time>
      </trkpt>
      <trkpt lat="43.39322" lon="6.72659">
        <ele>0.329</ele>
        <time>2010-10-09T16:21:42Z</time>
      </trkpt>
      <trkpt lat="43.39309" lon="6.72666">
        <ele>0.983</ele>
        <time>2010-10-09T16:21:45Z</time>
      </trkpt>
      <trkpt lat="43.39292" lon="6.7267">
        <ele>0.002</ele>
        <time>2010-10-09T16:21:49Z</time>
      </trkpt>
      <trkpt lat="43.39269" lon="6.72669">
        <ele>0.236</ele>
        <time>2010-10-09T16:21:54Z</time>
      </trkpt>
      <trkpt lat="43.39256" lon="6.72671">
        <ele>0.741</ele>
        <time>2010-10-09T16:21:57Z</time>
      </trkpt>
      <trkpt lat="43.39241" lon="6.72688">
        <ele>1.037</ele>
        <time>2010-10-09T16:22:02Z</time>
      </trkpt>
      <trkpt lat="43.39243" lon="6.72693">
        <ele>1.136</ele>
        <time>2010-10-09T16:22:03Z</time>
      </trkpt>
      <trkpt lat="43.39266" lon="6.72719">
        <ele>0.86</ele>
        <time>2010-10-09T16:22:11Z</time>
      </trkpt>
      <trkpt lat="43.39276" lon="6.72728">
        <ele>1.252</ele>
        <time>2010-10-09T16:22:14Z</time>
      </trkpt>
      <trkpt lat="43.39281" lon="6.72749">
        <ele>2.231</ele>
        <time>2010-10-09T16:22:19Z</time>
      </trkpt>
      <trkpt lat="43.39273" lon="6.72789">
        <ele>0.088</ele>
        <time>2010-10-09T16:22:26Z</time>
      </trkpt>
      <trkpt lat="43.39261" lon="6.72833">
        <ele>-1.023</ele>
        <time>2010-10-09T16:22:34Z</time>
      </trkpt>
      <trkpt lat="43.39255" lon="6.72847">
        <ele>-0.974</ele>
        <time>2010-10-09T16:22:40Z</time>
      </trkpt>
      <trkpt lat="43.39254" lon="6.72847">
        <ele>-1.028</ele>
        <time>2010-10-09T16:22:46Z</time>
      </trkpt>
      <trkpt lat="43.39252" lon="6.72849">
        <ele>-0.777</ele>
        <time>2010-10-09T16:23:08Z</time>
      </trkpt>
      <trkpt lat="43.39245" lon="6.72851">
        <ele>0.181</ele>
        <time>2010-10-09T16:23:19Z</time>
      </trkpt>
      <trkpt lat="43.39238" lon="6.72851">
        <ele>-0.031</ele>
        <time>2010-10-09T16:23:28Z</time>
      </trkpt>
      <trkpt lat="43.39232" lon="6.72851">
        <ele>-0.2</ele>
        <time>2010-10-09T16:23:34Z</time>
      </trkpt>
      <trkpt lat="43.39228" lon="6.72847">
        <ele>0.381</ele>
        <time>2010-10-09T16:23:40Z</time>
      </trkpt>
      <trkpt lat="43.39222" lon="6.72833">
        <ele>1.571</ele>
        <time>2010-10-09T16:23:51Z</time>
      </trkpt>
      <trkpt lat="43.39219" lon="6.72826">
        <ele>3.126</ele>
        <time>2010-10-09T16:24:00Z</time>
      </trkpt>
      <trkpt lat="43.39216" lon="6.72821">
        <ele>3.76</ele>
        <time>2010-10-09T16:24:08Z</time>
      </trkpt>
      <trkpt lat="43.39215" lon="6.7282">
        <ele>3.564</ele>
        <time>2010-10-09T16:24:10Z</time>
      </trkpt>
      <trkpt lat="43.39212" lon="6.72818">
        <ele>3.752</ele>
        <time>2010-10-09T16:24:12Z</time>
      </trkpt>
      <trkpt lat="43.39192" lon="6.72814">
        <ele>4.336</ele>
        <time>2010-10-09T16:24:22Z</time>
      </trkpt>
      <trkpt lat="43.39173" lon="6.72811">
        <ele>5.137</ele>
        <time>2010-10-09T16:24:31Z</time>
      </trkpt>
      <trkpt lat="43.39148" lon="6.72815">
        <ele>5.819</ele>
        <time>2010-10-09T16:24:40Z</time>
      </trkpt>
      <trkpt lat="43.39122" lon="6.72837">
        <ele>7.795</ele>
        <time>2010-10-09T16:24:49Z</time>
      </trkpt>
      <trkpt lat="43.39079" lon="6.72879">
        <ele>8.22</ele>
        <time>2010-10-09T16:25:03Z</time>
      </trkpt>
      <trkpt lat="43.39058" lon="6.72887">
        <ele>8.459</ele>
        <time>2010-10-09T16:25:09Z</time>
      </trkpt>
      <trkpt lat="43.39025" lon="6.72865">
        <ele>9.725</ele>
        <time>2010-10-09T16:25:18Z</time>
      </trkpt>
      <trkpt lat="43.38988" lon="6.72838">
        <ele>12.219</ele>
        <time>2010-10-09T16:25:28Z</time>
      </trkpt>
      <trkpt lat="43.38948" lon="6.72812">
        <ele>13.689</ele>
        <time>2010-10-09T16:25:38Z</time>
      </trkpt>
      <trkpt lat="43.38914" lon="6.72792">
        <ele>14.769</ele>
        <time>2010-10-09T16:25:47Z</time>
      </trkpt>
      <trkpt lat="43.38895" lon="6.7278">
        <ele>15.247</ele>
        <time>2010-10-09T16:25:53Z</time>
      </trkpt>
      <trkpt lat="43.38892" lon="6.72779">
        <ele>15.148</ele>
        <time>2010-10-09T16:25:54Z</time>
      </trkpt>
      <trkpt lat="43.38882" lon="6.72789">
        <ele>15.344</ele>
        <time>2010-10-09T16:25:58Z</time>
      </trkpt>
      <trkpt lat="43.38867" lon="6.72834">
        <ele>14.361</ele>
        <time>2010-10-09T16:26:09Z</time>
      </trkpt>
      <trkpt lat="43.38854" lon="6.72874">
        <ele>11.946</ele>
        <time>2010-10-09T16:26:15Z</time>
      </trkpt>
      <trkpt lat="43.38833" lon="6.72933">
        <ele>8.602</ele>
        <time>2010-10-09T16:26:21Z</time>
      </trkpt>
      <trkpt lat="43.38808" lon="6.72998">
        <ele>7.095</ele>
        <time>2010-10-09T16:26:29Z</time>
      </trkpt>
      <trkpt lat="43.38803" lon="6.73009">
        <ele>5.412</ele>
        <time>2010-10-09T16:26:32Z</time>
      </trkpt>
      <trkpt lat="43.38801" lon="6.73013">
        <ele>4.51</ele>
        <time>2010-10-09T16:26:34Z</time>
      </trkpt>
      <trkpt lat="43.38797" lon="6.73016">
        <ele>4.928</ele>
        <time>2010-10-09T16:26:42Z</time>
      </trkpt>
      <trkpt lat="43.38794" lon="6.73021">
        <ele>2.117</ele>
        <time>2010-10-09T16:26:55Z</time>
      </trkpt>
      <trkpt lat="43.38796" lon="6.73023">
        <ele>2.38</ele>
        <time>2010-10-09T16:26:59Z</time>
      </trkpt>
      <trkpt lat="43.38802" lon="6.73027">
        <ele>1.218</ele>
        <time>2010-10-09T16:27:07Z</time>
      </trkpt>
      <trkpt lat="43.38806" lon="6.73038">
        <ele>1.403</ele>
        <time>2010-10-09T16:27:11Z</time>
      </trkpt>
      <trkpt lat="43.38819" lon="6.7306">
        <ele>0.479</ele>
        <time>2010-10-09T16:27:19Z</time>
      </trkpt>
      <trkpt lat="43.3882" lon="6.73061">
        <ele>0.489</ele>
        <time>2010-10-09T16:27:20Z</time>
      </trkpt>
      <trkpt lat="43.38828" lon="6.73057">
        <ele>0.398</ele>
        <time>2010-10-09T16:27:24Z</time>
      </trkpt>
      <trkpt lat="43.38832" lon="6.73038">
        <ele>1.71</ele>
        <time>2010-10-09T16:27:31Z</time>
      </trkpt>
      <trkpt lat="43.38836" lon="6.73023">
        <ele>1.679</ele>
        <time>2010-10-09T16:27:37Z</time>
      </trkpt>
      <trkpt lat="43.38843" lon="6.73022">
        <ele>2.381</ele>
        <time>2010-10-09T16:27:43Z</time>
      </trkpt>
      <trkpt lat="43.38846" lon="6.73025">
        <ele>1.851</ele>
        <time>2010-10-09T16:27:50Z</time>
      </trkpt>
      <trkpt lat="43.38847" lon="6.73029">
        <ele>1.217</ele>
        <time>2010-10-09T16:27:57Z</time>
      </trkpt>
      <trkpt lat="43.38851" lon="6.73036">
        <ele>2.062</ele>
        <time>2010-10-09T16:28:05Z</time>
      </trkpt>
      <trkpt lat="43.38853" lon="6.7304">
        <ele>2.473</ele>
        <time>2010-10-09T16:28:12Z</time>
      </trkpt>
      <trkpt lat="43.38857" lon="6.73045">
        <ele>2.946</ele>
        <time>2010-10-09T16:28:17Z</time>
      </trkpt>
      <trkpt lat="43.3886" lon="6.73048">
        <ele>2.92</ele>
        <time>2010-10-09T16:28:22Z</time>
      </trkpt>
      <trkpt lat="43.38879" lon="6.73054">
        <ele>3.156</ele>
        <time>2010-10-09T16:28:28Z</time>
      </trkpt>
      <trkpt lat="43.38905" lon="6.73067">
        <ele>2.657</ele>
        <time>2010-10-09T16:28:35Z</time>
      </trkpt>
      <trkpt lat="43.38922" lon="6.73061">
        <ele>2.459</ele>
        <time>2010-10-09T16:28:41Z</time>
      </trkpt>
      <trkpt lat="43.38931" lon="6.73065">
        <ele>1.319</ele>
        <time>2010-10-09T16:28:46Z</time>
      </trkpt>
      <trkpt lat="43.38931" lon="6.73082">
        <ele>2.603</ele>
        <time>2010-10-09T16:28:55Z</time>
      </trkpt>
      <trkpt lat="43.38931" lon="6.73088">
        <ele>3.826</ele>
        <time>2010-10-09T16:29:04Z</time>
      </trkpt>
      <trkpt lat="43.38931" lon="6.73089">
        <ele>3.673</ele>
        <time>2010-10-09T16:29:05Z</time>
      </trkpt>
      <trkpt lat="43.38929" lon="6.73091">
        <ele>3.377</ele>
        <time>2010-10-09T16:29:08Z</time>
      </trkpt>
      <trkpt lat="43.3893" lon="6.73104">
        <ele>3.63</ele>
        <time>2010-10-09T16:29:15Z</time>
      </trkpt>
      <trkpt lat="43.38931" lon="6.73106">
        <ele>3.791</ele>
        <time>2010-10-09T16:29:16Z</time>
      </trkpt>
      <trkpt lat="43.3894" lon="6.73118">
        <ele>3.444</ele>
        <time>2010-10-09T16:29:23Z</time>
      </trkpt>
      <trkpt lat="43.38947" lon="6.73124">
        <ele>2.557</ele>
        <time>2010-10-09T16:29:27Z</time>
      </trkpt>
      <trkpt lat="43.38958" lon="6.73147">
        <ele>3.932</ele>
        <time>2010-10-09T16:29:35Z</time>
      </trkpt>
      <trkpt lat="43.38962" lon="6.73156">
        <ele>2.2</ele>
        <time>2010-10-09T16:29:38Z</time>
      </trkpt>
      <trkpt lat="43.38963" lon="6.73159">
        <ele>2.264</ele>
        <time>2010-10-09T16:29:39Z</time>
      </trkpt>
      <trkpt lat="43.38967" lon="6.73163">
        <ele>2.482</ele>
        <time>2010-10-09T16:29:41Z</time>
      </trkpt>
      <trkpt lat="43.38967" lon="6.73178">
        <ele>3.163</ele>
        <time>2010-10-09T16:29:47Z</time>
      </trkpt>
      <trkpt lat="43.38972" lon="6.73179">
        <ele>2.283</ele>
        <time>2010-10-09T16:29:53Z</time>
      </trkpt>
      <trkpt lat="43.38979" lon="6.73171">
        <ele>2.336</ele>
        <time>2010-10-09T16:29:58Z</time>
      </trkpt>
      <trkpt lat="43.38986" lon="6.73174">
        <ele>2.998</ele>
        <time>2010-10-09T16:30:02Z</time>
      </trkpt>
      <trkpt lat="43.39004" lon="6.73203">
        <ele>3.532</ele>
        <time>2010-10-09T16:30:11Z</time>
      </trkpt>
      <trkpt lat="43.39006" lon="6.73206">
        <ele>3.939</ele>
        <time>2010-10-09T16:30:12Z</time>
      </trkpt>
      <trkpt lat="43.39014" lon="6.73207">
        <ele>2.676</ele>
        <time>2010-10-09T16:30:15Z</time>
      </trkpt>
      <trkpt lat="43.39033" lon="6.73198">
        <ele>2.655</ele>
        <time>2010-10-09T16:30:23Z</time>
      </trkpt>
      <trkpt lat="43.39042" lon="6.73185">
        <ele>3.776</ele>
        <time>2010-10-09T16:30:28Z</time>
      </trkpt>
      <trkpt lat="43.39055" lon="6.73183">
        <ele>2.824</ele>
        <time>2010-10-09T16:30:34Z</time>
      </trkpt>
      <trkpt lat="43.3907" lon="6.73194">
        <ele>2.361</ele>
        <time>2010-10-09T16:30:41Z</time>
      </trkpt>
      <trkpt lat="43.39086" lon="6.73192">
        <ele>1.848</ele>
        <time>2010-10-09T16:30:47Z</time>
      </trkpt>
      <trkpt lat="43.39101" lon="6.7318">
        <ele>1.754</ele>
        <time>2010-10-09T16:30:53Z</time>
      </trkpt>
      <trkpt lat="43.39117" lon="6.73157">
        <ele>2.263</ele>
        <time>2010-10-09T16:30:59Z</time>
      </trkpt>
      <trkpt lat="43.39117" lon="6.7313">
        <ele>3.417</ele>
        <time>2010-10-09T16:31:06Z</time>
      </trkpt>
      <trkpt lat="43.39117" lon="6.73124">
        <ele>3.451</ele>
        <time>2010-10-09T16:31:07Z</time>
      </trkpt>
      <trkpt lat="43.39116" lon="6.73107">
        <ele>3.579</ele>
        <time>2010-10-09T16:31:10Z</time>
      </trkpt>
      <trkpt lat="43.39121" lon="6.73084">
        <ele>3.567</ele>
        <time>2010-10-09T16:31:14Z</time>
      </trkpt>
      <trkpt lat="43.39123" lon="6.73066">
        <ele>2.864</ele>
        <time>2010-10-09T16:31:17Z</time>
      </trkpt>
      <trkpt lat="43.39134" lon="6.73042">
        <ele>1.508</ele>
        <time>2010-10-09T16:31:21Z</time>
      </trkpt>
      <trkpt lat="43.39154" lon="6.72996">
        <ele>-0.092</ele>
        <time>2010-10-09T16:31:26Z</time>
      </trkpt>
      <trkpt lat="43.3919" lon="6.72945">
        <ele>-0.748</ele>
        <time>2010-10-09T16:31:33Z</time>
      </trkpt>
      <trkpt lat="43.39196" lon="6.72939">
        <ele>-0.567</ele>
        <time>2010-10-09T16:31:34Z</time>
      </trkpt>
      <trkpt lat="43.39221" lon="6.72928">
        <ele>0.177</ele>
        <time>2010-10-09T16:31:39Z</time>
      </trkpt>
      <trkpt lat="43.39225" lon="6.72932">
        <ele>-0.063</ele>
        <time>2010-10-09T16:31:41Z</time>
      </trkpt>
      <trkpt lat="43.39228" lon="6.72936">
        <ele>-0.09</ele>
        <time>2010-10-09T16:31:47Z</time>
      </trkpt>
      <trkpt lat="43.39234" lon="6.72945">
        <ele>-0.672</ele>
        <time>2010-10-09T16:31:56Z</time>
      </trkpt>
      <trkpt lat="43.39239" lon="6.72946">
        <ele>-0.819</ele>
        <time>2010-10-09T16:32:00Z</time>
      </trkpt>
      <trkpt lat="43.39242" lon="6.7294">
        <ele>-0.917</ele>
        <time>2010-10-09T16:32:06Z</time>
      </trkpt>
      <trkpt lat="43.39244" lon="6.72926">
        <ele>-0.347</ele>
        <time>2010-10-09T16:32:16Z</time>
      </trkpt>
      <trkpt lat="43.39248" lon="6.72911">
        <ele>-0.522</ele>
        <time>2010-10-09T16:32:27Z</time>
      </trkpt>
      <trkpt lat="43.39254" lon="6.72897">
        <ele>-0.457</ele>
        <time>2010-10-09T16:32:37Z</time>
      </trkpt>
      <trkpt lat="43.39257" lon="6.72879">
        <ele>-0.673</ele>
        <time>2010-10-09T16:32:50Z</time>
      </trkpt>
      <trkpt lat="43.39259" lon="6.72859">
        <ele>-0.53</ele>
        <time>2010-10-09T16:33:04Z</time>
      </trkpt>
      <trkpt lat="43.39264" lon="6.72842">
        <ele>-0.845</ele>
        <time>2010-10-09T16:33:17Z</time>
      </trkpt>
      <trkpt lat="43.39267" lon="6.72821">
        <ele>-1.13</ele>
        <time>2010-10-09T16:33:30Z</time>
      </trkpt>
      <trkpt lat="43.39268" lon="6.72815">
        <ele>-0.86</ele>
        <time>2010-10-09T16:33:37Z</time>
      </trkpt>
      <trkpt lat="43.39273" lon="6.72795">
        <ele>-0.926</ele>
        <time>2010-10-09T16:33:43Z</time>
      </trkpt>
      <trkpt lat="43.39281" lon="6.72773">
        <ele>-0.291</ele>
        <time>2010-10-09T16:33:49Z</time>
      </trkpt>
      <trkpt lat="43.39294" lon="6.72766">
        <ele>0.235</ele>
        <time>2010-10-09T16:33:54Z</time>
      </trkpt>
      <trkpt lat="43.39315" lon="6.72773">
        <ele>-0.39</ele>
        <time>2010-10-09T16:34:01Z</time>
      </trkpt>
      <trkpt lat="43.39343" lon="6.72782">
        <ele>-0.003</ele>
        <time>2010-10-09T16:34:11Z</time>
      </trkpt>
      <trkpt lat="43.3937" lon="6.72784">
        <ele>1.003</ele>
        <time>2010-10-09T16:34:20Z</time>
      </trkpt>
      <trkpt lat="43.39398" lon="6.72785">
        <ele>3.815</ele>
        <time>2010-10-09T16:34:30Z</time>
      </trkpt>
      <trkpt lat="43.39411" lon="6.7279">
        <ele>2.875</ele>
        <time>2010-10-09T16:34:39Z</time>
      </trkpt>
      <trkpt lat="43.39417" lon="6.72789">
        <ele>2.524</ele>
        <time>2010-10-09T16:34:50Z</time>
      </trkpt>
      <trkpt lat="43.39419" lon="6.7279">
        <ele>2.755</ele>
        <time>2010-10-09T16:34:57Z</time>
      </trkpt>
      <trkpt lat="43.39422" lon="6.72793">
        <ele>2.826</ele>
        <time>2010-10-09T16:35:03Z</time>
      </trkpt>
      <trkpt lat="43.39424" lon="6.72792">
        <ele>2.732</ele>
        <time>2010-10-09T16:35:05Z</time>
      </trkpt>
      <trkpt lat="43.39421" lon="6.7279">
        <ele>2.782</ele>
        <time>2010-10-09T16:35:11Z</time>
      </trkpt>
      <trkpt lat="43.39415" lon="6.7279">
        <ele>2.784</ele>
        <time>2010-10-09T16:35:18Z</time>
      </trkpt>
      <trkpt lat="43.39416" lon="6.7279">
        <ele>2.762</ele>
        <time>2010-10-09T16:35:25Z</time>
      </trkpt>
      <trkpt lat="43.39414" lon="6.72789">
        <ele>2.734</ele>
        <time>2010-10-09T16:35:34Z</time>
      </trkpt>
      <trkpt lat="43.39408" lon="6.72789">
        <ele>3.492</ele>
        <time>2010-10-09T16:35:40Z</time>
      </trkpt>
      <trkpt lat="43.39409" lon="6.72789">
        <ele>3.132</ele>
        <time>2010-10-09T16:35:50Z</time>
      </trkpt>
      <trkpt lat="43.39408" lon="6.72789">
        <ele>3.664</ele>
        <time>2010-10-09T16:38:33Z</time>
      </trkpt>
      <trkpt lat="43.39408" lon="6.72786">
        <ele>1.903</ele>
        <time>2010-10-09T16:42:22Z</time>
      </trkpt>
      <trkpt lat="43.39407" lon="6.72788">
        <ele>2.886</ele>
        <time>2010-10-09T16:42:30Z</time>
      </trkpt>
      <trkpt lat="43.39406" lon="6.72787">
        <ele>2.913</ele>
        <time>2010-10-09T16:42:43Z</time>
      </trkpt>
      <trkpt lat="43.39411" lon="6.72789">
        <ele>3.101</ele>
        <time>2010-10-09T16:42:49Z</time>
      </trkpt>
      <trkpt lat="43.39418" lon="6.72792">
        <ele>2.616</ele>
        <time>2010-10-09T16:42:56Z</time>
      </trkpt>
      <trkpt lat="43.3942" lon="6.72791">
        <ele>2.319</ele>
        <time>2010-10-09T16:42:59Z</time>
      </trkpt>
      <trkpt lat="43.39425" lon="6.72792">
        <ele>3.008</ele>
        <time>2010-10-09T16:43:03Z</time>
      </trkpt>
      <trkpt lat="43.39443" lon="6.728">
        <ele>2.648</ele>
        <time>2010-10-09T16:43:11Z</time>
      </trkpt>
      <trkpt lat="43.39477" lon="6.72814">
        <ele>3.228</ele>
        <time>2010-10-09T16:43:23Z</time>
      </trkpt>
      <trkpt lat="43.39517" lon="6.72829">
        <ele>2.561</ele>
        <time>2010-10-09T16:43:35Z</time>
      </trkpt>
      <trkpt lat="43.39567" lon="6.72847">
        <ele>3.648</ele>
        <time>2010-10-09T16:43:47Z</time>
      </trkpt>
      <trkpt lat="43.39622" lon="6.72867">
        <ele>2.453</ele>
        <time>2010-10-09T16:43:59Z</time>
      </trkpt>
      <trkpt lat="43.39683" lon="6.72887">
        <ele>3.216</ele>
        <time>2010-10-09T16:44:10Z</time>
      </trkpt>
      <trkpt lat="43.39734" lon="6.72908">
        <ele>1.844</ele>
        <time>2010-10-09T16:44:20Z</time>
      </trkpt>
      <trkpt lat="43.39797" lon="6.72931">
        <ele>2.942</ele>
        <time>2010-10-09T16:44:33Z</time>
      </trkpt>
      <trkpt lat="43.39816" lon="6.72937">
        <ele>1.946</ele>
        <time>2010-10-09T16:44:37Z</time>
      </trkpt>
      <trkpt lat="43.39863" lon="6.72954">
        <ele>1.626</ele>
        <time>2010-10-09T16:44:48Z</time>
      </trkpt>
      <trkpt lat="43.3992" lon="6.72973">
        <ele>1.772</ele>
        <time>2010-10-09T16:45:01Z</time>
      </trkpt>
      <trkpt lat="43.39979" lon="6.72983">
        <ele>2.023</ele>
        <time>2010-10-09T16:45:14Z</time>
      </trkpt>
      <trkpt lat="43.40045" lon="6.72985">
        <ele>2.511</ele>
        <time>2010-10-09T16:45:28Z</time>
      </trkpt>
      <trkpt lat="43.40103" lon="6.72989">
        <ele>3.2</ele>
        <time>2010-10-09T16:45:41Z</time>
      </trkpt>
      <trkpt lat="43.40159" lon="6.72993">
        <ele>2.116</ele>
        <time>2010-10-09T16:45:53Z</time>
      </trkpt>
      <trkpt lat="43.40219" lon="6.72991">
        <ele>1.565</ele>
        <time>2010-10-09T16:46:06Z</time>
      </trkpt>
      <trkpt lat="43.40265" lon="6.72982">
        <ele>1.066</ele>
        <time>2010-10-09T16:46:14Z</time>
      </trkpt>
      <trkpt lat="43.40315" lon="6.72965">
        <ele>1.18</ele>
        <time>2010-10-09T16:46:23Z</time>
      </trkpt>
      <trkpt lat="43.40378" lon="6.72933">
        <ele>1.198</ele>
        <time>2010-10-09T16:46:35Z</time>
      </trkpt>
      <trkpt lat="43.40419" lon="6.72904">
        <ele>1.932</ele>
        <time>2010-10-09T16:46:43Z</time>
      </trkpt>
      <trkpt lat="43.4047" lon="6.72857">
        <ele>2.037</ele>
        <time>2010-10-09T16:46:53Z</time>
      </trkpt>
      <trkpt lat="43.40525" lon="6.72799">
        <ele>1.955</ele>
        <time>2010-10-09T16:47:04Z</time>
      </trkpt>
      <trkpt lat="43.40578" lon="6.72747">
        <ele>1.316</ele>
        <time>2010-10-09T16:47:16Z</time>
      </trkpt>
      <trkpt lat="43.4064" lon="6.72685">
        <ele>1.301</ele>
        <time>2010-10-09T16:47:30Z</time>
      </trkpt>
      <trkpt lat="43.40689" lon="6.72634">
        <ele>1.63</ele>
        <time>2010-10-09T16:47:41Z</time>
      </trkpt>
      <trkpt lat="43.40754" lon="6.7257">
        <ele>2.168</ele>
        <time>2010-10-09T16:47:54Z</time>
      </trkpt>
      <trkpt lat="43.40806" lon="6.7252">
        <ele>2.247</ele>
        <time>2010-10-09T16:48:04Z</time>
      </trkpt>
      <trkpt lat="43.40869" lon="6.7246">
        <ele>2.592</ele>
        <time>2010-10-09T16:48:15Z</time>
      </trkpt>
      <trkpt lat="43.40887" lon="6.72445">
        <ele>2.273</ele>
        <time>2010-10-09T16:48:18Z</time>
      </trkpt>
      <trkpt lat="43.40897" lon="6.72435">
        <ele>2.172</ele>
        <time>2010-10-09T16:48:20Z</time>
      </trkpt>
      <trkpt lat="43.40937" lon="6.72427">
        <ele>2.124</ele>
        <time>2010-10-09T16:48:27Z</time>
      </trkpt>
      <trkpt lat="43.40967" lon="6.7242">
        <ele>3.344</ele>
        <time>2010-10-09T16:48:32Z</time>
      </trkpt>
      <trkpt lat="43.41042" lon="6.72433">
        <ele>3.77</ele>
        <time>2010-10-09T16:48:45Z</time>
      </trkpt>
      <trkpt lat="43.41053" lon="6.72438">
        <ele>4.024</ele>
        <time>2010-10-09T16:48:47Z</time>
      </trkpt>
      <trkpt lat="43.41109" lon="6.72475">
        <ele>3.997</ele>
        <time>2010-10-09T16:48:58Z</time>
      </trkpt>
      <trkpt lat="43.41169" lon="6.72513">
        <ele>3.251</ele>
        <time>2010-10-09T16:49:09Z</time>
      </trkpt>
      <trkpt lat="43.41182" lon="6.72507">
        <ele>4.49875</ele>
        <time>2010-10-09T16:49:14Z</time>
      </trkpt>
      <trkpt lat="43.41189" lon="6.72508">
        <ele>1.927</ele>
        <time>2010-10-09T16:49:15Z</time>
      </trkpt>
      <trkpt lat="43.41206" lon="6.72512">
        <ele>2.175</ele>
        <time>2010-10-09T16:49:22Z</time>
      </trkpt>
      <trkpt lat="43.41203" lon="6.7251">
        <ele>1.87</ele>
        <time>2010-10-09T16:49:33Z</time>
      </trkpt>
      <trkpt lat="43.41202" lon="6.7251">
        <ele>1.631</ele>
        <time>2010-10-09T16:49:47Z</time>
      </trkpt>
      <trkpt lat="43.41202" lon="6.7251">
        <ele>1.923</ele>
        <time>2010-10-09T16:50:52Z</time>
      </trkpt>
      <trkpt lat="43.41201" lon="6.72511">
        <ele>2.09</ele>
        <time>2010-10-09T16:50:55Z</time>
      </trkpt>
      <trkpt lat="43.41214" lon="6.72517">
        <ele>2.129</ele>
        <time>2010-10-09T16:51:00Z</time>
      </trkpt>
      <trkpt lat="43.41258" lon="6.7254">
        <ele>2.082</ele>
        <time>2010-10-09T16:51:09Z</time>
      </trkpt>
      <trkpt lat="43.41283" lon="6.72548">
        <ele>2.028</ele>
        <time>2010-10-09T16:51:15Z</time>
      </trkpt>
      <trkpt lat="43.41295" lon="6.7255">
        <ele>2.239</ele>
        <time>2010-10-09T16:51:18Z</time>
      </trkpt>
      <trkpt lat="43.4131" lon="6.72563">
        <ele>2.49</ele>
        <time>2010-10-09T16:51:22Z</time>
      </trkpt>
      <trkpt lat="43.41345" lon="6.72582">
        <ele>2.066</ele>
        <time>2010-10-09T16:51:30Z</time>
      </trkpt>
      <trkpt lat="43.41354" lon="6.72585">
        <ele>1.661</ele>
        <time>2010-10-09T16:51:32Z</time>
      </trkpt>
      <trkpt lat="43.41372" lon="6.7259">
        <ele>1.801</ele>
        <time>2010-10-09T16:51:36Z</time>
      </trkpt>
      <trkpt lat="43.41384" lon="6.72597">
        <ele>2.699</ele>
        <time>2010-10-09T16:51:39Z</time>
      </trkpt>
      <trkpt lat="43.41398" lon="6.72618">
        <ele>2.967</ele>
        <time>2010-10-09T16:51:44Z</time>
      </trkpt>
      <trkpt lat="43.41428" lon="6.72637">
        <ele>3.164</ele>
        <time>2010-10-09T16:51:52Z</time>
      </trkpt>
      <trkpt lat="43.41483" lon="6.7267">
        <ele>3.86</ele>
        <time>2010-10-09T16:52:06Z</time>
      </trkpt>
      <trkpt lat="43.41514" lon="6.72687">
        <ele>4.563</ele>
        <time>2010-10-09T16:52:14Z</time>
      </trkpt>
      <trkpt lat="43.4155" lon="6.72705">
        <ele>5.427</ele>
        <time>2010-10-09T16:52:23Z</time>
      </trkpt>
      <trkpt lat="43.41589" lon="6.72729">
        <ele>4.543</ele>
        <time>2010-10-09T16:52:30Z</time>
      </trkpt>
      <trkpt lat="43.41644" lon="6.72752">
        <ele>3.147</ele>
        <time>2010-10-09T16:52:39Z</time>
      </trkpt>
      <trkpt lat="43.41714" lon="6.72791">
        <ele>2.456</ele>
        <time>2010-10-09T16:52:51Z</time>
      </trkpt>
      <trkpt lat="43.41784" lon="6.72829">
        <ele>1.535</ele>
        <time>2010-10-09T16:53:03Z</time>
      </trkpt>
      <trkpt lat="43.41826" lon="6.72852">
        <ele>1.528</ele>
        <time>2010-10-09T16:53:10Z</time>
      </trkpt>
      <trkpt lat="43.41852" lon="6.72849">
        <ele>1.514</ele>
        <time>2010-10-09T16:53:14Z</time>
      </trkpt>
      <trkpt lat="43.41866" lon="6.72839">
        <ele>2.077</ele>
        <time>2010-10-09T16:53:16Z</time>
      </trkpt>
      <trkpt lat="43.41906" lon="6.72834">
        <ele>1.62</ele>
        <time>2010-10-09T16:53:21Z</time>
      </trkpt>
      <trkpt lat="43.41947" lon="6.72836">
        <ele>1.299</ele>
        <time>2010-10-09T16:53:27Z</time>
      </trkpt>
      <trkpt lat="43.41973" lon="6.72854">
        <ele>1.188</ele>
        <time>2010-10-09T16:53:32Z</time>
      </trkpt>
      <trkpt lat="43.4198" lon="6.7288">
        <ele>0.871</ele>
        <time>2010-10-09T16:53:37Z</time>
      </trkpt>
      <trkpt lat="43.4198" lon="6.72901">
        <ele>0.483</ele>
        <time>2010-10-09T16:53:43Z</time>
      </trkpt>
      <trkpt lat="43.41985" lon="6.72914">
        <ele>0.372</ele>
        <time>2010-10-09T16:53:51Z</time>
      </trkpt>
      <trkpt lat="43.41985" lon="6.72914">
        <ele>0.381</ele>
        <time>2010-10-09T16:53:52Z</time>
      </trkpt>
      <trkpt lat="43.41985" lon="6.72911">
        <ele>0.301</ele>
        <time>2010-10-09T16:53:56Z</time>
      </trkpt>
      <trkpt lat="43.41981" lon="6.72909">
        <ele>0.348</ele>
        <time>2010-10-09T16:54:04Z</time>
      </trkpt>
      <trkpt lat="43.41981" lon="6.7291">
        <ele>0.378</ele>
        <time>2010-10-09T16:54:11Z</time>
      </trkpt>
      <trkpt lat="43.4197" lon="6.72922">
        <ele>0.768</ele>
        <time>2010-10-09T16:54:18Z</time>
      </trkpt>
      <trkpt lat="43.41967" lon="6.72947">
        <ele>1.24</ele>
        <time>2010-10-09T16:54:24Z</time>
      </trkpt>
      <trkpt lat="43.41967" lon="6.72951">
        <ele>0.858</ele>
        <time>2010-10-09T16:54:25Z</time>
      </trkpt>
      <trkpt lat="43.41978" lon="6.7297">
        <ele>0.886</ele>
        <time>2010-10-09T16:54:29Z</time>
      </trkpt>
      <trkpt lat="43.42044" lon="6.73007">
        <ele>-0.322</ele>
        <time>2010-10-09T16:54:42Z</time>
      </trkpt>
      <trkpt lat="43.4212" lon="6.73053">
        <ele>0.338</ele>
        <time>2010-10-09T16:54:56Z</time>
      </trkpt>
      <trkpt lat="43.42142" lon="6.73073">
        <ele>0.524</ele>
        <time>2010-10-09T16:55:01Z</time>
      </trkpt>
      <trkpt lat="43.42167" lon="6.73113">
        <ele>0.403</ele>
        <time>2010-10-09T16:55:10Z</time>
      </trkpt>
      <trkpt lat="43.42207" lon="6.73178">
        <ele>0.352</ele>
        <time>2010-10-09T16:55:25Z</time>
      </trkpt>
      <trkpt lat="43.42234" lon="6.7322">
        <ele>0.37</ele>
        <time>2010-10-09T16:55:35Z</time>
      </trkpt>
      <trkpt lat="43.42251" lon="6.73249">
        <ele>0.29</ele>
        <time>2010-10-09T16:55:42Z</time>
      </trkpt>
      <trkpt lat="43.42271" lon="6.7328">
        <ele>0.364</ele>
        <time>2010-10-09T16:55:50Z</time>
      </trkpt>
      <trkpt lat="43.42302" lon="6.73331">
        <ele>0.409</ele>
        <time>2010-10-09T16:56:01Z</time>
      </trkpt>
      <trkpt lat="43.42342" lon="6.73399">
        <ele>0.079</ele>
        <time>2010-10-09T16:56:15Z</time>
      </trkpt>
      <trkpt lat="43.42382" lon="6.73465">
        <ele>0.226</ele>
        <time>2010-10-09T16:56:28Z</time>
      </trkpt>
      <trkpt lat="43.42407" lon="6.73512">
        <ele>-0.095</ele>
        <time>2010-10-09T16:56:37Z</time>
      </trkpt>
      <trkpt lat="43.42415" lon="6.73525">
        <ele>0.299</ele>
        <time>2010-10-09T16:56:40Z</time>
      </trkpt>
      <trkpt lat="43.42423" lon="6.7354">
        <ele>-0.245</ele>
        <time>2010-10-09T16:56:43Z</time>
      </trkpt>
      <trkpt lat="43.42434" lon="6.73558">
        <ele>-0.194</ele>
        <time>2010-10-09T16:56:47Z</time>
      </trkpt>
      <trkpt lat="43.42453" lon="6.73573">
        <ele>-0.193</ele>
        <time>2010-10-09T16:56:52Z</time>
      </trkpt>
      <trkpt lat="43.42462" lon="6.73584">
        <ele>-0.419</ele>
        <time>2010-10-09T16:56:55Z</time>
      </trkpt>
      <trkpt lat="43.4247" lon="6.73607">
        <ele>0.007</ele>
        <time>2010-10-09T16:56:59Z</time>
      </trkpt>
      <trkpt lat="43.42476" lon="6.73623">
        <ele>-0.124</ele>
        <time>2010-10-09T16:57:02Z</time>
      </trkpt>
      <trkpt lat="43.42491" lon="6.7367">
        <ele>-0.849</ele>
        <time>2010-10-09T16:57:12Z</time>
      </trkpt>
      <trkpt lat="43.42486" lon="6.7368">
        <ele>-1.053</ele>
        <time>2010-10-09T16:57:16Z</time>
      </trkpt>
      <trkpt lat="43.42469" lon="6.73704">
        <ele>-0.883</ele>
        <time>2010-10-09T16:57:24Z</time>
      </trkpt>
      <trkpt lat="43.42459" lon="6.73714">
        <ele>-1.24</ele>
        <time>2010-10-09T16:57:30Z</time>
      </trkpt>
      <trkpt lat="43.42441" lon="6.73728">
        <ele>-1.398</ele>
        <time>2010-10-09T16:57:40Z</time>
      </trkpt>
      <trkpt lat="43.42409" lon="6.7374">
        <ele>-1.462</ele>
        <time>2010-10-09T16:57:49Z</time>
      </trkpt>
      <trkpt lat="43.42406" lon="6.73741">
        <ele>-1.404</ele>
        <time>2010-10-09T16:57:50Z</time>
      </trkpt>
      <trkpt lat="43.4237" lon="6.73753">
        <ele>-0.976</ele>
        <time>2010-10-09T16:58:00Z</time>
      </trkpt>
      <trkpt lat="43.42348" lon="6.7376">
        <ele>-1.292</ele>
        <time>2010-10-09T16:58:08Z</time>
      </trkpt>
      <trkpt lat="43.42316" lon="6.7377">
        <ele>-1.147</ele>
        <time>2010-10-09T16:58:19Z</time>
      </trkpt>
      <trkpt lat="43.423" lon="6.73775">
        <ele>-1.136</ele>
        <time>2010-10-09T16:58:27Z</time>
      </trkpt>
      <trkpt lat="43.42279" lon="6.73782">
        <ele>-0.984</ele>
        <time>2010-10-09T16:58:37Z</time>
      </trkpt>
      <trkpt lat="43.42274" lon="6.73784">
        <ele>-1.008</ele>
        <time>2010-10-09T16:58:45Z</time>
      </trkpt>
      <trkpt lat="43.42273" lon="6.73785">
        <ele>-0.995</ele>
        <time>2010-10-09T16:58:53Z</time>
      </trkpt>
      <trkpt lat="43.42268" lon="6.73785">
        <ele>-1.029</ele>
        <time>2010-10-09T16:59:02Z</time>
      </trkpt>
      <trkpt lat="43.42259" lon="6.73789">
        <ele>-0.807</ele>
        <time>2010-10-09T16:59:09Z</time>
      </trkpt>
      <trkpt lat="43.42255" lon="6.73792">
        <ele>-0.948</ele>
        <time>2010-10-09T16:59:15Z</time>
      </trkpt>
      <trkpt lat="43.42253" lon="6.73793">
        <ele>-1.055</ele>
        <time>2010-10-09T16:59:29Z</time>
      </trkpt>
      <trkpt lat="43.42252" lon="6.73794">
        <ele>-1.026</ele>
        <time>2010-10-09T16:59:31Z</time>
      </trkpt>
      <trkpt lat="43.4225" lon="6.73798">
        <ele>-0.722</ele>
        <time>2010-10-09T16:59:33Z</time>
      </trkpt>
      <trkpt lat="43.42231" lon="6.7381">
        <ele>-0.76</ele>
        <time>2010-10-09T16:59:40Z</time>
      </trkpt>
      <trkpt lat="43.42212" lon="6.7382">
        <ele>-1.014</ele>
        <time>2010-10-09T16:59:48Z</time>
      </trkpt>
      <trkpt lat="43.42188" lon="6.73827">
        <ele>-0.951</ele>
        <time>2010-10-09T16:59:56Z</time>
      </trkpt>
      <trkpt lat="43.42171" lon="6.73835">
        <ele>-1.043</ele>
        <time>2010-10-09T17:00:03Z</time>
      </trkpt>
      <trkpt lat="43.42143" lon="6.73848">
        <ele>-0.696</ele>
        <time>2010-10-09T17:00:14Z</time>
      </trkpt>
      <trkpt lat="43.42109" lon="6.73864">
        <ele>-0.871</ele>
        <time>2010-10-09T17:00:27Z</time>
      </trkpt>
      <trkpt lat="43.42087" lon="6.73879">
        <ele>-0.966</ele>
        <time>2010-10-09T17:00:36Z</time>
      </trkpt>
      <trkpt lat="43.4207" lon="6.7389">
        <ele>-1.115</ele>
        <time>2010-10-09T17:00:43Z</time>
      </trkpt>
      <trkpt lat="43.42049" lon="6.73913">
        <ele>-1.532</ele>
        <time>2010-10-09T17:00:54Z</time>
      </trkpt>
      <trkpt lat="43.4204" lon="6.73928">
        <ele>-1.604</ele>
        <time>2010-10-09T17:01:01Z</time>
      </trkpt>
      <trkpt lat="43.42022" lon="6.73952">
        <ele>-1.4</ele>
        <time>2010-10-09T17:01:11Z</time>
      </trkpt>
      <trkpt lat="43.42006" lon="6.73977">
        <ele>-1.258</ele>
        <time>2010-10-09T17:01:20Z</time>
      </trkpt>
      <trkpt lat="43.41989" lon="6.73997">
        <ele>-1.857</ele>
        <time>2010-10-09T17:01:28Z</time>
      </trkpt>
      <trkpt lat="43.41985" lon="6.74002">
        <ele>-1.232</ele>
        <time>2010-10-09T17:01:32Z</time>
      </trkpt>
    </trkseg>
  </trk>
</gpx>